[[{"header":{"parameterUnit":"m.s-1","parameterCategory":1,"la1":31.0,"la2":29.5877,"lo1":-88.7671,"lo2":-86.6584,"dy":0.0162,"dx":0.0185,"nx":115,"ny":88,"refTime":"2023-05-16T06:00:00:Z","depth":0,"parameterNumber":2,"parameterNumberName":"U-component_of_WINDS"},"data":[0.0,0.0,0.0,0.0,0.0,0.0,0.0,0.0,0.0,0.0,0.0,0.0,0.0,0.0,0.0,0.0,0.0,0.0,0.0,0.0,0.0,0.0,0.0,0.0,0.0,0.0,0.0,0.0,0.0,0.0,0.0,0.0,0.0,0.0,0.0,0.0,0.0,0.0,0.0,0.0,0.0,0.0,0.0,0.0,0.0,0.0,0.0,0.0,0.0,0.0,0.0,0.0,0.0,0.0,0.0,0.0,0.0,0.0,0.0,0.0,0.0,0.0,0.0,0.0,0.0,0.0,0.0,0.0,0.0,0.0,0.0,0.0,0.0,0.0,0.0,0.0,0.0,0.0,0.0,0.0,0.0,0.0,0.0,0.0,0.0,0.0,0.0,0.0,0.0,0.0,0.0,0.0,0.0,0.0,0.0,0.0,0.0,0.0,0.0,0.0,0.0,0.0,0.0,0.0,0.0,0.0,0.0,0.0,0.0,0.0,0.0,0.0,0.0,0.0,0.0,0.0,0.0,0.0,0.0,0.0,0.0,0.0,0.0,0.0,0.0,0.0,0.0,0.0,0.0,0.0,0.0,0.0,0.0,0.0,0.0,0.0,0.0,0.0,0.0,0.0,0.0,0.0,0.0,0.0,0.0,0.0,0.0,0.0,0.0,0.0,0.0,0.0,0.0,0.0,0.0,0.0,0.0,0.0,0.0,0.0,0.0,0.0,0.0,0.0,0.0,0.0,0.0,0.0,0.0,0.0,0.0,0.0,0.0,0.0,0.0,0.0,0.0,0.0,0.0,0.0,0.0,0.0,0.0,0.0,0.0,0.0,0.0,0.0,0.0,0.0,0.0,0.0,0.0,0.0,0.0,0.0,0.0,0.0,0.0,0.0,0.0,0.0,0.0,0.0,0.0,0.0,0.0,0.0,0.0,0.0,0.0,0.0,0.0,0.0,0.0,0.0,0.0,0.0,0.0,0.0,0.0,0.0,0.0,0.0,0.0,0.0,0.0,0.0,0.0,0.0,0.0,0.0,0.0,0.0,0.0,0.0,0.0,0.0,0.0,0.0,0.0,0.0,0.0,0.0,0.0,0.0,0.0,0.0,0.0,0.0,0.0,0.0,0.0,0.0,0.0,0.0,0.0,0.0,0.0,0.0,0.0,0.0,0.0,0.0,0.0,0.0,0.0,0.0,0.0,0.0,0.0,0.0,0.0,0.0,0.0,0.0,0.0,0.0,0.0,0.0,0.0,0.0,0.0,0.0,0.0,0.0,0.0,0.0,0.0,0.0,0.0,0.0,0.0,0.0,0.0,0.0,0.0,0.0,0.0,0.0,0.0,0.0,0.0,0.0,0.0,0.0,0.0,0.0,0.0,0.0,0.0,0.0,0.0,0.0,0.0,0.0,0.0,0.0,0.0,0.0,0.0,0.0,0.0,0.0,0.0,0.0,0.0,0.0,0.0,0.0,0.0,0.0,0.0,0.0,0.0,0.0,0.0,0.0,0.0,0.0,0.0,0.0,0.0,0.0,0.0,0.0,0.0,0.0,0.0,0.0,0.0,0.0,0.0,0.0,0.0,0.0,0.0,0.0,0.0,0.0,0.0,0.0,0.0,0.0,0.0,0.0,0.0,0.0,0.0,0.0,0.0,0.0,0.0,0.0,0.0,0.0,0.0,0.0,0.0,0.0,0.0,0.0,0.0,0.0,0.0,0.0,0.0,0.0,0.0,0.0,0.0,0.0,0.0,0.0,0.0,0.0,0.0,0.0,0.0,0.0,0.0,0.0,0.0,0.0,0.0,0.0,0.0,0.0,0.0,0.0,0.0,0.0,0.0,0.0,0.0,0.0,0.0,0.0,0.0,0.0,0.0,0.0,0.0,0.0,0.0,0.0,0.0,0.0,0.0,0.0,0.0,0.0,0.0,0.0,0.0,0.0,0.0,0.0,0.0,0.0,0.0,0.0,0.0,0.0,0.0,0.0,0.0,0.0,0.0,0.0,0.0,0.0,0.0,0.0,0.0,0.0,0.0,0.0,0.0,0.0,0.0,0.0,0.0,0.0,0.0,0.0,0.0,0.0,0.0,0.0,0.0,0.0,0.0,0.0,0.0,0.0,0.0,0.0,0.0,0.0,0.0,0.0,0.0,0.0,0.0,0.0,0.0,0.0,0.0,0.0,0.0,0.0,0.0,0.0,0.0,0.0,0.0,0.0,0.0,0.0,0.0,0.0,0.0,0.0,0.0,0.0,0.0,0.0,0.0,0.0,0.0,0.0,0.0,0.0,0.0,0.0,0.0,0.0,0.0,0.0,0.0,0.0,0.0,0.0,0.0,0.0,0.0,0.0,0.0,0.0,0.0,0.0,0.0,0.0,0.0,0.0,0.0,0.0,0.0,0.0,0.0,0.0,0.0,0.0,0.0,0.0,0.0,0.0,0.0,0.0,0.0,0.0,0.0,0.0,0.0,0.0,0.0,0.0,0.0,0.0,0.0,0.0,0.0,0.0,0.0,0.0,0.0,0.0,0.0,0.0,0.0,0.0,0.0,0.0,0.0,0.0,0.0,0.0,0.0,0.0,0.0,0.0,0.0,0.0,0.0,0.0,0.0,0.0,0.0,0.0,0.0,0.0,0.0,0.0,0.0,0.0,0.0,0.0,0.0,0.0,0.0,0.0,0.0,0.0,0.0,0.0,0.0,0.0,0.0,0.0,0.0,0.0,0.0,0.0,0.0,0.0,0.0,0.0,0.0,0.0,0.0,0.0,0.0,0.0,0.0,0.0,0.0,0.0,0.0,0.0,0.0,0.0,0.0,0.0,0.0,0.0,0.0,0.0,0.0,0.0,0.0,0.0,0.0,0.0,0.0,0.0,0.0,0.0,0.0,0.0,0.0,0.0,0.0,0.0,0.0,0.0,0.0,0.0,0.0,0.0,0.0,0.0,0.0,0.0,0.0,0.0,0.0,0.0,0.0,0.0,0.0,0.0,0.0,0.0,0.0,0.0,0.0,0.0,0.0,0.0,0.0,0.0,0.0,0.0,0.0,0.0,0.0,0.0,0.0,0.0,0.0,0.0,0.0,0.0,0.0,0.0,0.0,0.0,0.0,0.0,0.0,0.0,0.0,0.0,0.0,0.0,0.0,0.0,0.0,0.0,0.0,0.0,0.0,0.0,0.0,0.0,0.0,0.0,0.0,0.0,0.0,0.0,0.0,0.0,0.0,0.0,0.0,0.0,0.0,0.0,0.0,0.0,0.0,0.0,0.0,0.0,0.0,0.0,0.0,0.0,0.0,0.0,0.0,0.0,0.0,0.0,0.0,0.0,0.0,0.0,0.0,0.0,0.0,0.0,0.0,0.0,0.0,0.0,0.0,0.0,0.0,0.0,0.0,0.0,0.0,0.0,0.0,0.0,0.0,0.0,0.0,0.0,0.0,0.0,0.0,0.0,0.0,0.0,0.0,0.0,0.0,0.0,0.0,0.0,0.0,0.0,0.0,0.0,0.0,0.0,0.0,0.0,0.0,0.0,0.0,0.0,0.0,0.0,0.0,0.0,0.0,0.0,0.0,0.0,0.0,0.0,0.0,0.0,0.0,0.0,0.0,0.0,0.0,0.0,0.0,0.0,0.0,0.0,0.0,0.0,0.0,0.0,0.0,0.0,0.0,0.0,0.0,0.0,0.0,0.0,0.0,0.0,0.0,0.0,0.0,0.0,0.0,0.0,0.0,0.0,0.0,0.0,0.0,0.0,0.0,0.0,0.0,0.0,0.0,0.0,0.0,0.0,0.0,0.0,0.0,0.0,0.0,0.0,0.0,0.0,0.0,0.0,0.0,0.0,0.0,0.0,0.0,0.0,0.0,0.0,0.0,0.0,0.0,0.0,0.0,0.0,0.0,0.0,0.0,0.0,0.0,0.0,0.0,0.0,0.0,0.0,0.0,0.0,0.0,0.0,0.0,0.0,0.0,0.0,0.0,0.0,0.0,0.0,0.0,0.0,0.0,0.0,0.0,0.0,0.0,0.0,0.0,0.0,0.0,0.0,0.0,0.0,0.0,0.0,0.0,0.0,0.0,0.0,0.0,0.0,0.0,0.0,0.0,0.0,0.0,0.0,0.0,0.0,0.0,0.0,0.0,0.0,0.0,0.0,0.0,0.0,0.0,0.0,0.0,0.0,0.0,0.0,0.0,0.0,0.0,0.0,0.0,0.0,0.0,0.0,0.0,0.0,0.0,0.0,0.0,0.0,0.0,0.0,0.0,0.0,0.0,0.0,0.0,0.0,0.0,0.0,-0.0359,0.0,0.0,0.0,0.0,0.0,0.0,0.0,0.0,0.0,0.0,0.0,0.0,0.0,0.0,0.0,0.0,0.0,0.0,0.0,0.0,0.0,0.0,0.0,0.0,0.0,0.0,0.0,0.0,0.0,0.0,0.0,0.0,0.0,0.0,0.0,0.0,0.0,0.0,0.0,0.0,0.0,0.0,0.0,0.0,0.0,0.0,0.0,0.0,0.0,0.0,0.0,0.0,0.0,0.0,0.0,0.0,0.0,0.0,0.0,0.0,0.0,0.0,0.0,0.0,0.0,0.0,0.0,0.0,0.0,0.0,0.0,0.0,0.0,0.0,0.0,0.0,0.0,0.0,0.0,0.0,0.0,0.0,0.0,0.0,0.0,0.0,0.0,0.0,0.0,0.0,0.0,0.0,0.0,0.0,0.0,0.0,0.0,0.0,0.0,0.0,0.0,0.0,0.0,0.0,0.0,0.0,0.0,0.0,0.0,0.0,-0.1614,-0.1705,-0.1569,-0.1299,-0.0897,0.0,0.0,0.0,0.0,0.0,0.0,0.0,0.0,0.0,0.0,0.0,0.0,0.0,0.0,0.0,0.0,0.0,0.0,0.0,0.0,0.0,0.0,0.0,0.0,0.0,0.0,0.0,0.0,0.0,0.0,0.0,0.0,0.0,0.0,0.0,0.0,0.0,0.0,0.0,0.0,0.0,0.0,0.0,0.0,0.0,0.0,0.0,0.0,0.0,0.0,0.0,0.0,0.0,0.0,0.0,0.0,0.0,0.0,0.0,0.0,0.0,0.0,0.0,0.0,0.0,0.0,0.0,0.0,0.0,0.0,0.0,0.0,0.0,0.0,0.0,0.0,0.0,0.0,0.0,0.0,0.0,0.0,0.0,0.0,0.0,0.0,0.0,0.0,0.0,0.0,0.0,0.0,0.0,0.0,0.0,0.0,0.0,0.0,0.0,0.0,0.0,0.0,0.0,0.0,0.0,0.0,0.0,0.0,0.0,0.0,0.0,0.0,-0.2061,-0.1746,-0.1254,0.0,0.0,0.0,0.0,0.0,0.0,0.0,0.0,0.0,0.0,0.0,0.0,0.0,0.0,0.0,0.0,0.0,0.0,0.0,0.0,0.0,0.0,0.0,0.0,0.0,0.0,0.0,0.0,0.0,0.0,0.0,0.0,0.0,0.0,0.0,0.0,0.0,0.0,0.0,0.0,0.0,0.0,0.0,0.0,0.0,0.0,0.0,0.0,0.0,0.0,0.0,0.0,0.0,0.0,0.0,0.0,0.0,0.0,0.0,0.0,0.0,0.0,0.0,0.0,0.0,0.0,0.0,0.0,0.0,0.0,0.0,0.0,0.0,0.0,0.0,0.0,0.0,0.0,0.0,0.0,0.0,0.0,0.0,0.0,0.0,0.0,0.0,0.0,0.0,0.0,0.0,0.0,0.0,0.0,0.0,0.0,0.0,0.0,0.0,0.0,0.0,0.0,0.0,0.0,0.0,0.0,0.0,0.0,0.0,0.0,-0.2993,-0.281,-0.2682,0.0,-0.1433,0.0,0.0,0.0,0.0,0.0,0.0,0.0,0.0,0.0,0.0,0.0,0.0,0.0,0.0,0.0,0.0,0.0,0.0,0.0,0.0,0.0,0.0,0.0,0.0,0.0,0.0,0.0,0.0,0.0,0.0,0.0,0.0,0.0,0.0,0.0,0.0,0.0,0.0,0.0,0.0,0.0,0.0,0.0,0.0,0.0,0.0,0.0,0.0,0.0,0.0,0.0,0.0,0.0,0.0,0.0,0.0,0.0,0.0,0.0,0.0,0.0,0.0,0.0,0.0,0.0,0.0,0.0,0.0,0.0,0.0,0.0,0.0,0.0,0.0,0.0,0.0,0.0,0.0,0.0,0.0,0.0,0.0,0.0,0.0,0.0,0.0,0.0,0.0,0.0,0.0,0.0,0.0,0.0,0.0,0.0,0.0,0.0,0.0,0.0,0.0,0.0,0.0,0.0,0.0,0.0,0.0,0.0,0.0,0.0,0.0,-0.7265,-0.5685,-0.3867,-0.2591,0.0,0.0,0.0,0.0,0.0,0.0,0.0,0.0,0.0,0.0,0.0,0.0,0.0,0.0,0.0,0.0,0.0,0.0,0.0,0.0,0.0,0.0,0.0,0.0,0.0,0.0,0.0,0.0,0.0,0.0,0.0,0.0,0.0,0.0,0.0,0.0,0.0,0.0,0.0,0.0,0.0,0.0,0.0,0.0,0.0,0.0,0.0,0.0,0.0,0.0,0.0,0.0,0.0,0.0,0.0,0.0,0.0,0.0,0.0,0.0,0.0,0.0,0.0,0.0,0.0,0.0,0.0,0.0,0.0,0.0,0.0,0.0,0.0,0.0,0.0,0.0,0.0,0.0,0.0,0.0,0.0,0.0,0.0,0.0,0.0,0.0,0.0,0.0,0.0,0.0,0.0,0.0,0.0,0.0,0.0,0.0,0.0,0.0,0.0,0.0,0.0,0.0,0.0,0.0,0.0,0.0,0.0,0.0,0.0,0.0,-1.1964,-1.0342,-0.7689,-0.4798,-0.3078,-0.2729,0.0,0.0,0.0,0.0,0.0,0.0,0.0,0.0,0.0,0.0,0.0,0.0,0.0,0.0,0.0,0.0,0.0,0.0,0.0,0.0,0.0,0.0,0.0,0.0,0.0,0.0,0.0,0.0,0.0,0.0,0.0,0.0,0.0,0.0,0.0,0.0,0.0,0.0,0.0,0.0,0.0,0.0,0.0,0.0,0.0,0.0,0.0,0.0,0.0,0.0,0.0,0.0,0.0,0.0,0.0,0.0,0.0,0.0,0.0,0.0,0.0,0.0,0.0,0.0,0.0,0.0,0.0,0.0,0.0,0.0,0.0,0.0,0.0,0.0,0.0,0.0,0.0,0.0,0.0,0.0,0.0,0.0,0.0,0.0,0.0,0.0,0.0,0.0,0.0,0.0,0.0,0.0,0.0,0.0,0.0,0.0,0.0,0.0,0.0,0.0,0.0,0.0,0.0,0.0,0.0,0.0,0.0,0.0,-1.5731,-1.3375,-1.0778,-0.8099,-0.5325,-0.3656,0.0,0.0,0.0,0.0,0.0,0.0,0.0,0.0,0.0,0.0,0.0,0.0,0.0,0.0,0.0,0.0,0.0,0.0,0.0,0.0,0.0,0.0,0.0,0.0,0.0,0.0,0.0,0.0,0.0,0.0,0.0,0.0,0.0,0.0,0.0,0.0,0.0,0.0,0.0,0.0,0.0,0.0,0.0,0.0,0.0,0.0,0.0,0.0,0.0,0.0,0.0,0.0,0.0,0.0,0.0,0.0,0.0,0.0,0.0,0.0,0.0,0.0,0.0,0.0,0.0,0.0,0.0,0.0,0.0,0.0,0.0,0.0,0.0,0.0,0.0,0.0,0.0,0.0,0.0,0.0,0.0,0.0,0.0,0.0,0.0,0.0,0.0,0.0,0.0,0.0,0.0,0.0,0.0,0.0,0.0,0.0,0.0,0.0,0.0,0.0,0.0,0.0,0.0,0.0,0.0,0.0,0.0,0.0,0.0,-1.8319,-1.589,-1.3291,-1.0733,-0.8058,-0.5725,0.0,0.0,0.0,0.0,0.0,0.0,0.0,0.0,0.0,0.0,0.0,0.0,0.0,0.0,0.0,0.0,0.0,0.0,0.0,0.0,0.0,0.0,0.0,0.0,0.0,0.0,0.0,0.0,0.0,0.0,0.0,0.0,0.0,0.0,0.0,0.0,0.0,0.0,0.0,0.0,0.0,0.0,0.0,0.0,0.0,0.0,0.0,0.0,0.0,0.0,0.0,0.0,0.0,0.0,0.0,0.0,0.0,0.0,0.0,0.0,0.0,0.0,0.0,0.0,0.0,0.0,0.0,0.0,0.0,0.0,0.0,0.0,0.0,0.0,0.0,0.0,0.0,0.0,0.0,0.0,0.0,0.0,0.0,0.0,0.0,0.0,0.0,0.0,0.0,0.0,0.0,0.0,0.0,0.0,0.0,0.0,0.0,0.0,0.0,0.0,0.0,0.0,0.0,0.0,0.0,0.0,0.0,0.0,0.0,-1.9676,0.0,-1.4769,-1.235,-0.9692,-0.6991,0.0,0.0,0.0,0.0,0.0,0.0,0.0,0.0,0.0,0.0,0.0,0.0,0.0,0.0,0.0,0.0,0.0,0.0,0.0,0.0,0.0,0.0,0.0,0.0,0.0,0.0,0.0,0.0,0.0,0.0,0.0,0.0,0.0,0.0,0.0,0.0,0.0,0.0,0.0,0.0,0.0,0.0,0.0,0.0,0.0,0.0,0.0,0.0,0.0,0.0,0.0,0.0,0.0,0.0,0.0,0.0,0.0,0.0,0.0,0.0,0.0,0.0,0.0,0.0,0.0,0.0,0.0,0.0,0.0,0.0,0.0,0.0,0.0,0.0,0.0,0.0,0.0,0.0,0.0,0.0,0.0,0.0,0.0,0.0,0.0,0.0,0.0,0.0,0.0,0.0,0.0,0.0,0.0,0.0,0.0,0.0,0.0,0.0,0.0,0.0,0.0,0.0,0.0,0.0,0.0,0.0,0.0,0.0,-1.9625,-1.9613,-1.7369,-1.5071,-1.2603,-1.0022,-0.7366,0.0,0.0,0.0,0.0,0.0,0.0,0.0,0.0,0.0,0.0,0.0,0.0,0.0,0.0,0.0,0.0,0.0,0.0,0.0,0.0,0.0,0.0,0.0,0.0,0.0,0.0,0.0,0.0,0.0,0.0,0.0,0.0,0.0,0.0,0.0,0.0,0.0,0.0,0.0,0.0,0.0,0.0,0.0,0.0,0.0,0.0,0.0,0.0,0.0,0.0,0.0,0.0,0.0,0.0,0.0,0.0,0.0,0.0,0.0,0.0,0.0,0.0,0.0,0.0,0.0,0.0,0.0,0.0,0.0,0.0,0.0,0.0,0.0,0.0,0.0,0.0,0.0,0.0,0.0,0.0,0.0,0.0,0.0,0.0,0.0,0.0,0.0,0.0,0.0,0.0,0.0,0.0,0.0,0.0,0.0,0.0,0.0,0.0,0.0,0.0,0.0,0.0,0.0,0.0,0.0,0.0,0.0,0.0,0.0,-1.962,-1.8922,-1.7424,-1.5034,-1.2517,-0.99,0.0,0.0,0.0,0.0,0.0,0.0,0.0,0.0,0.0,0.0,0.0,0.0,0.0,0.0,0.0,0.0,0.0,0.0,0.0,0.0,0.0,0.0,0.0,0.0,0.0,0.0,0.0,0.0,0.0,0.0,0.0,0.0,0.0,0.0,0.0,0.0,0.0,0.0,0.0,0.0,0.0,0.0,0.0,0.0,0.0,0.0,0.0,0.0,0.0,0.0,0.0,0.0,0.0,0.0,0.0,0.0,0.0,0.0,0.0,0.0,0.0,0.0,0.0,0.0,0.0,0.0,0.0,0.0,0.0,0.0,0.0,0.0,0.0,0.0,0.0,0.0,0.0,0.0,0.0,0.0,0.0,0.0,0.0,0.0,0.0,0.0,0.0,0.0,0.0,0.0,0.0,0.0,0.0,0.0,0.0,0.0,0.0,0.0,0.0,0.0,0.0,0.0,0.0,0.0,0.0,0.0,0.0,0.0,0.0,-2.0158,-1.9852,-1.8567,-1.618,-1.3698,-1.1117,-0.8408,0.0,0.0,0.0,0.0,0.0,0.0,0.0,0.0,0.0,0.0,0.0,0.0,0.0,0.0,0.0,0.0,0.0,0.0,0.0,0.0,0.0,0.0,0.0,0.0,0.0,0.0,0.0,0.0,0.0,0.0,0.0,0.0,0.0,0.0,0.0,0.0,0.0,0.0,0.0,0.0,0.0,0.0,0.0,0.0,0.0,0.0,0.0,0.0,0.0,0.0,0.0,0.0,0.0,0.0,0.0,0.0,0.0,0.0,0.0,0.0,0.0,0.0,0.0,0.0,0.0,0.0,0.0,0.0,0.0,0.0,0.0,0.0,0.0,0.0,0.0,0.0,0.0,0.0,0.0,0.0,0.0,0.0,0.0,0.0,0.0,0.0,0.0,0.0,0.0,0.0,0.0,0.0,0.0,0.0,0.0,0.0,0.0,0.0,0.0,0.0,0.0,0.0,0.0,0.0,0.0,0.0,0.0,0.0,-2.1216,-2.0318,-1.8809,-1.6581,-1.39,-1.1282,0.0,0.0,0.0,0.0,0.0,0.0,0.0,0.0,0.0,0.0,0.0,0.0,0.0,0.0,0.0,0.0,0.0,0.0,0.0,0.0,0.0,0.0,0.0,0.0,0.0,0.0,0.0,0.0,0.0,0.0,0.0,0.0,0.0,0.0,0.0,0.0,0.0,0.0,0.0,0.0,0.0,0.0,0.0,0.0,0.0,0.0,0.0,0.0,0.0,0.0,0.0,0.0,0.0,0.0,0.0,0.0,0.0,0.0,0.0,0.0,0.0,0.0,0.0,0.0,0.0,0.0,0.0,0.0,0.0,0.0,0.0,0.0,0.0,0.0,0.0,0.0,0.0,0.0,0.0,0.0,0.0,0.0,0.0,0.0,0.0,0.0,0.0,0.0,0.0,0.0,0.0,0.0,0.0,0.0,0.0,0.0,0.0,0.0,0.0,0.0,0.0,0.0,0.0,0.0,0.0,0.0,0.0,0.0,0.0,-2.166,-2.1563,-2.0941,-1.9781,-1.5575,-1.264,0.0,0.0,0.0,0.0,0.0,0.0,0.0,0.0,0.0,0.0,0.0,0.0,0.0,0.0,0.0,0.0,0.0,0.0,0.0,0.0,0.0,0.0,0.0,0.0,0.0,0.0,0.0,0.0,0.0,0.0,0.0,0.0,0.0,0.0,0.0,0.0,0.0,0.0,0.0,0.0,0.0,0.0,0.0,0.0,0.0,0.0,0.0,0.0,0.0,0.0,0.0,0.0,0.0,0.0,0.0,0.0,0.0,0.0,0.0,0.0,0.0,0.0,0.0,0.0,0.0,0.0,0.0,0.0,0.0,0.0,0.0,0.0,0.0,0.0,0.0,0.0,0.0,0.0,0.0,0.0,0.0,0.0,0.0,0.0,0.0,0.0,0.0,0.0,0.0,0.0,0.0,0.0,0.0,0.0,0.0,0.0,0.0,0.0,0.0,0.0,0.0,0.0,0.0,0.0,0.0,0.0,0.0,0.0,-2.1438,-2.2401,-2.255,-2.2447,-2.212,-1.659,-1.3357,0.0,0.0,0.0,0.0,0.0,0.0,0.0,0.0,0.0,0.0,0.0,0.0,0.0,0.0,0.0,0.0,0.0,0.0,0.0,0.0,0.0,0.0,0.0,0.0,0.0,0.0,0.0,0.0,0.0,0.0,0.0,0.0,0.0,0.0,0.0,0.0,0.0,0.0,0.0,0.0,0.0,0.0,0.0,0.0,0.0,0.0,0.0,0.0,0.0,0.0,0.0,0.0,0.0,0.0,0.0,0.0,0.0,0.0,0.0,0.0,0.0,0.0,0.0,0.0,0.0,0.0,0.0,0.0,0.0,0.0,0.0,0.0,0.0,0.0,0.0,0.0,0.0,0.0,0.0,0.0,0.0,0.0,0.0,0.0,0.0,0.0,0.0,0.0,0.0,0.0,0.0,0.0,0.0,0.0,0.0,0.0,0.0,0.0,0.0,0.0,0.0,0.0,0.0,0.0,0.0,0.0,0.0,0.0,-2.2191,-2.3195,-2.3349,-2.3315,-2.2993,-1.7104,-1.3701,0.0,0.0,0.0,0.0,0.0,0.0,0.0,0.0,0.0,0.0,0.0,0.0,0.0,0.0,0.0,0.0,0.0,0.0,0.0,0.0,0.0,0.0,0.0,0.0,0.0,0.0,0.0,0.0,0.0,0.0,0.0,0.0,0.0,0.0,0.0,0.0,0.0,0.0,0.0,0.0,0.0,0.0,0.0,0.0,0.0,0.0,0.0,0.0,0.0,0.0,0.0,0.0,0.0,0.0,0.0,0.0,0.0,0.0,0.0,0.0,0.0,0.0,0.0,0.0,0.0,0.0,0.0,0.0,0.0,0.0,0.0,0.0,0.0,0.0,0.0,0.0,0.0,0.0,0.0,0.0,0.0,0.0,0.0,0.0,0.0,0.0,0.0,0.0,0.0,0.0,0.0,0.0,0.0,0.0,0.0,0.0,0.0,0.0,0.0,0.0,0.0,0.0,0.0,0.0,0.0,0.0,0.0,0.0,-2.2958,-2.3952,-2.4099,-2.3133,-2.0935,-1.6985,-1.4433,0.0,0.0,0.0,0.0,0.0,0.0,0.0,0.0,0.0,0.0,0.0,0.0,0.0,0.0,0.0,0.0,0.0,0.0,0.0,0.0,0.0,0.0,0.0,0.0,0.0,0.0,0.0,0.0,0.0,0.0,0.0,0.0,0.0,0.0,0.0,0.0,0.0,0.0,0.0,0.0,0.0,0.0,0.0,0.0,0.0,0.0,0.0,0.0,-2.1467,0.0,0.0,0.0,0.0,0.0,0.0,0.0,0.0,0.0,0.0,0.0,0.0,0.0,0.0,0.0,0.0,0.0,0.0,0.0,0.0,0.0,0.0,0.0,0.0,0.0,0.0,0.0,0.0,0.0,0.0,0.0,0.0,0.0,0.0,0.0,0.0,0.0,0.0,0.0,0.0,0.0,0.0,0.0,0.0,0.0,0.0,0.0,0.0,0.0,0.0,0.0,0.0,0.0,0.0,0.0,0.0,0.0,0.0,0.0,-2.2937,-2.2342,-2.2449,-2.1188,-1.8412,-1.5258,-1.3063,0.0,0.0,0.0,0.0,0.0,0.0,0.0,0.0,0.0,0.0,0.0,0.0,0.0,0.0,0.0,0.0,0.0,0.0,0.0,0.0,0.0,0.0,0.0,0.0,0.0,0.0,0.0,0.0,0.0,0.0,0.0,0.0,0.0,0.0,0.0,0.0,0.0,0.0,0.0,0.0,0.0,0.0,0.0,0.0,0.0,0.0,0.0,0.0,0.0,0.0,0.0,0.0,0.0,0.0,0.0,0.0,0.0,0.0,0.0,0.0,0.0,0.0,0.0,0.0,0.0,0.0,0.0,0.0,0.0,0.0,0.0,0.0,0.0,0.0,0.0,0.0,0.0,0.0,0.0,0.0,0.0,0.0,0.0,0.0,0.0,0.0,0.0,0.0,0.0,0.0,0.0,0.0,0.0,0.0,0.0,0.0,0.0,0.0,0.0,0.0,0.0,0.0,0.0,0.0,0.0,0.0,0.0,-2.2484,-2.2111,-1.9843,-1.9809,-1.8518,-1.5749,-1.309,-1.1071,-0.9763,0.0,0.0,0.0,0.0,0.0,0.0,0.0,0.0,0.0,0.0,0.0,0.0,0.0,0.0,0.0,0.0,0.0,0.0,0.0,0.0,0.0,0.0,0.0,0.0,0.0,0.0,0.0,0.0,0.0,0.0,0.0,0.0,0.0,0.0,0.0,0.0,0.0,0.0,-1.8331,-1.5944,0.0,0.0,0.0,0.0,0.0,0.0,0.0,0.0,-2.3085,0.0,0.0,0.0,0.0,0.0,0.0,0.0,0.0,0.0,0.0,0.0,0.0,0.0,0.0,0.0,0.0,0.0,0.0,0.0,0.0,0.0,0.0,0.0,0.0,0.0,0.0,0.0,0.0,0.0,0.0,0.0,0.0,0.0,0.0,0.0,0.0,0.0,0.0,0.0,0.0,0.0,0.0,0.0,0.0,0.0,0.0,0.0,0.0,0.0,0.0,0.0,0.0,0.0,0.0,0.0,0.0,-1.9577,-2.0385,-1.9766,-1.7683,-1.7468,-1.5967,-1.3084,-1.2072,-1.028,-0.751,0.0,0.0,0.0,0.0,0.0,0.0,0.0,0.0,0.0,0.0,0.0,0.0,0.0,0.0,0.0,0.0,0.0,0.0,0.0,0.0,0.0,0.0,0.0,0.0,0.0,0.0,0.0,0.0,0.0,0.0,0.0,0.0,0.0,0.0,0.0,0.0,0.0,0.0,0.0,-1.6593,-1.6557,0.0,0.0,0.0,0.0,0.0,0.0,0.0,0.0,-2.4986,0.0,0.0,0.0,0.0,0.0,0.0,0.0,0.0,0.0,0.0,0.0,0.0,0.0,0.0,0.0,0.0,0.0,0.0,0.0,0.0,0.0,0.0,0.0,0.0,0.0,0.0,0.0,0.0,0.0,0.0,0.0,0.0,0.0,0.0,0.0,0.0,0.0,0.0,0.0,0.0,0.0,0.0,0.0,0.0,0.0,0.0,0.0,0.0,0.0,0.0,0.0,0.0,0.0,0.0,0.0,-1.9219,-1.8734,-1.7368,-1.5155,-1.4837,-1.3308,-1.0401,-1.0017,-0.8984,0.0,0.0,0.0,0.0,0.0,0.0,0.0,0.0,0.0,0.0,0.0,0.0,0.0,0.0,0.0,0.0,0.0,0.0,0.0,0.0,0.0,0.0,0.0,0.0,0.0,0.0,0.0,0.0,0.0,0.0,0.0,0.0,0.0,0.0,0.0,0.0,0.0,0.0,0.0,0.0,-1.7262,-1.7952,-1.9027,0.0,0.0,0.0,0.0,0.0,0.0,-2.6054,-2.6382,0.0,0.0,0.0,0.0,0.0,0.0,0.0,0.0,0.0,0.0,0.0,0.0,0.0,0.0,0.0,0.0,0.0,0.0,0.0,0.0,0.0,0.0,0.0,0.0,0.0,0.0,0.0,0.0,0.0,0.0,0.0,0.0,0.0,0.0,0.0,0.0,0.0,0.0,0.0,0.0,0.0,0.0,0.0,0.0,0.0,0.0,0.0,0.0,0.0,0.0,0.0,0.0,0.0,0.0,0.0,-1.8704,-1.7077,-1.503,-1.2695,-1.2283,-1.0979,-0.8646,-0.8328,-0.8002,0.0,0.0,0.0,0.0,0.0,0.0,0.0,0.0,0.0,0.0,0.0,0.0,0.0,0.0,0.0,0.0,0.0,0.0,0.0,0.0,0.0,0.0,0.0,0.0,0.0,0.0,0.0,0.0,0.0,0.0,0.0,0.0,0.0,0.0,0.0,0.0,0.0,0.0,0.0,0.0,0.0,-1.935,-2.0873,-2.2294,0.0,0.0,0.0,0.0,-2.6647,-2.7276,0.0,0.0,0.0,0.0,0.0,0.0,0.0,0.0,0.0,0.0,0.0,0.0,0.0,0.0,0.0,0.0,0.0,0.0,0.0,0.0,0.0,0.0,0.0,0.0,0.0,0.0,0.0,0.0,0.0,0.0,0.0,0.0,0.0,0.0,0.0,0.0,0.0,0.0,0.0,0.0,0.0,0.0,0.0,0.0,0.0,0.0,0.0,0.0,0.0,0.0,0.0,0.0,0.0,0.0,0.0,0.0,-1.7238,-1.5039,-1.2753,-1.0507,-1.0145,-0.9634,-0.8956,-0.8586,-0.8215,0.0,0.0,0.0,0.0,0.0,0.0,0.0,0.0,0.0,0.0,0.0,0.0,0.0,0.0,0.0,0.0,0.0,0.0,0.0,0.0,0.0,0.0,0.0,0.0,0.0,0.0,0.0,0.0,0.0,0.0,0.0,0.0,0.0,0.0,0.0,0.0,0.0,0.0,0.0,0.0,0.0,-2.1,-2.28,-2.4529,-2.6077,0.0,0.0,-2.8152,-2.8229,-2.8274,0.0,0.0,0.0,0.0,0.0,0.0,0.0,0.0,0.0,0.0,0.0,0.0,0.0,0.0,0.0,0.0,0.0,0.0,0.0,0.0,0.0,0.0,0.0,0.0,0.0,0.0,0.0,0.0,0.0,0.0,0.0,0.0,0.0,0.0,0.0,0.0,0.0,0.0,0.0,0.0,0.0,0.0,0.0,0.0,0.0,0.0,0.0,0.0,0.0,0.0,0.0,0.0,0.0,0.0,0.0,-1.7002,-1.5117,-1.2861,-1.1186,-1.0174,-0.9777,-0.9465,-0.9113,-0.8798,-0.8381,0.0,0.0,0.0,0.0,0.0,0.0,0.0,0.0,0.0,0.0,0.0,0.0,0.0,0.0,0.0,0.0,0.0,0.0,0.0,0.0,0.0,0.0,0.0,0.0,0.0,0.0,0.0,0.0,0.0,0.0,0.0,0.0,0.0,0.0,0.0,0.0,0.0,0.0,0.0,0.0,0.0,0.0,-2.4209,-2.6154,0.0,0.0,0.0,-2.9529,-2.9416,0.0,0.0,0.0,0.0,0.0,0.0,0.0,0.0,0.0,0.0,0.0,0.0,0.0,0.0,0.0,0.0,0.0,0.0,0.0,0.0,0.0,0.0,0.0,0.0,0.0,0.0,0.0,0.0,0.0,0.0,0.0,0.0,0.0,0.0,0.0,0.0,0.0,0.0,0.0,0.0,0.0,0.0,0.0,0.0,0.0,0.0,0.0,0.0,0.0,0.0,0.0,0.0,0.0,0.0,0.0,0.0,0.0,-1.371,-1.1502,-1.0324,-1.0316,-0.9947,-0.9621,-0.9309,-0.9054,0.0,0.0,0.0,0.0,0.0,0.0,0.0,0.0,0.0,0.0,0.0,0.0,0.0,0.0,0.0,0.0,0.0,0.0,0.0,0.0,0.0,0.0,0.0,0.0,0.0,0.0,0.0,-1.2246,0.0,0.0,0.0,0.0,0.0,0.0,0.0,0.0,0.0,0.0,0.0,0.0,0.0,0.0,-2.3484,-2.5397,-2.7562,-2.9141,0.0,0.0,-3.0629,-3.0459,-3.0723,-3.0499,0.0,0.0,0.0,0.0,0.0,0.0,0.0,0.0,0.0,0.0,0.0,0.0,0.0,0.0,0.0,0.0,0.0,0.0,0.0,0.0,0.0,0.0,0.0,0.0,0.0,0.0,0.0,0.0,0.0,0.0,0.0,0.0,0.0,0.0,0.0,0.0,0.0,0.0,0.0,0.0,0.0,0.0,0.0,0.0,0.0,0.0,0.0,0.0,0.0,0.0,0.0,0.0,0.0,0.0,-1.5907,-1.371,-1.1557,-1.0419,-1.0316,-1.0265,-1.0051,-0.9614,-0.9316,-0.9008,0.0,0.0,0.0,0.0,0.0,0.0,0.0,0.0,0.0,0.0,0.0,0.0,0.0,0.0,0.0,0.0,0.0,0.0,0.0,0.0,0.0,0.0,0.0,0.0,0.0,0.0,0.0,0.0,0.0,0.0,0.0,0.0,0.0,0.0,0.0,0.0,0.0,0.0,0.0,0.0,0.0,-2.3952,-2.654,-2.8704,-3.033,0.0,-3.1308,-3.1397,-3.1227,-3.1083,-3.0667,-2.9682,0.0,0.0,0.0,0.0,0.0,0.0,0.0,0.0,0.0,0.0,0.0,0.0,0.0,0.0,0.0,0.0,0.0,0.0,0.0,0.0,0.0,0.0,0.0,0.0,0.0,0.0,0.0,0.0,0.0,0.0,0.0,0.0,0.0,0.0,0.0,0.0,0.0,0.0,0.0,0.0,0.0,0.0,0.0,0.0,0.0,0.0,0.0,0.0,0.0,0.0,0.0,0.0,0.0,-1.5256,-1.1762,-1.0916,-1.047,-1.0411,-1.0368,-1.0162,-0.9836,-0.9688,-0.9427,0.0,0.0,0.0,0.0,0.0,0.0,0.0,0.0,0.0,0.0,0.0,0.0,0.0,0.0,0.0,0.0,0.0,0.0,0.0,0.0,0.0,0.0,0.0,0.0,0.0,0.0,0.0,0.0,-1.4223,-1.4195,-1.4222,0.0,0.0,0.0,0.0,0.0,0.0,0.0,0.0,0.0,0.0,-2.4713,-2.6993,-2.9281,0.0,0.0,-3.1355,-3.1355,-3.1044,-3.0902,-3.0482,-2.9468,-2.9121,0.0,0.0,0.0,0.0,0.0,0.0,0.0,0.0,0.0,0.0,0.0,0.0,0.0,0.0,0.0,0.0,0.0,0.0,0.0,0.0,0.0,0.0,0.0,0.0,0.0,0.0,0.0,0.0,0.0,0.0,0.0,0.0,0.0,0.0,0.0,0.0,0.0,0.0,0.0,0.0,0.0,0.0,0.0,0.0,0.0,0.0,0.0,0.0,0.0,0.0,0.0,0.0,-1.4202,-1.0533,-1.0573,-1.0573,-1.0573,-1.0522,-1.0419,-1.0205,-1.0051,-0.9844,0.0,0.0,0.0,0.0,0.0,0.0,0.0,0.0,0.0,0.0,0.0,0.0,0.0,0.0,0.0,0.0,0.0,0.0,0.0,0.0,0.0,0.0,0.0,0.0,0.0,0.0,0.0,0.0,-1.5734,-1.5678,-1.5426,0.0,0.0,0.0,0.0,0.0,0.0,0.0,0.0,0.0,0.0,-2.5138,-2.7274,-2.9324,-3.0735,-3.0971,-3.1067,-3.0931,-3.0625,-3.0452,-3.0119,-2.9375,0.0,0.0,0.0,0.0,0.0,0.0,0.0,0.0,0.0,0.0,0.0,0.0,0.0,0.0,0.0,0.0,0.0,0.0,0.0,0.0,0.0,0.0,0.0,0.0,0.0,0.0,0.0,-1.1728,0.0,0.0,-1.2076,0.0,0.0,0.0,0.0,0.0,0.0,0.0,0.0,0.0,0.0,0.0,0.0,0.0,0.0,0.0,0.0,0.0,0.0,0.0,0.0,0.0,0.0,-1.2728,-1.0533,-1.0616,-1.0726,-1.0726,-1.082,-1.082,-1.0667,-1.0573,-1.0316,-0.9999,0.0,0.0,0.0,0.0,0.0,0.0,0.0,0.0,0.0,0.0,0.0,0.0,0.0,0.0,0.0,0.0,0.0,0.0,0.0,0.0,0.0,0.0,0.0,0.0,0.0,0.0,-1.7279,-1.6991,-1.6735,0.0,0.0,0.0,0.0,0.0,0.0,0.0,0.0,0.0,-2.1206,-2.3151,-2.5182,-2.7356,-2.8784,-2.9802,-3.0236,-3.0335,-3.0251,-3.0054,-2.9793,-2.9617,0.0,0.0,0.0,0.0,0.0,0.0,0.0,0.0,0.0,0.0,0.0,0.0,0.0,0.0,0.0,0.0,0.0,0.0,0.0,0.0,0.0,0.0,0.0,0.0,0.0,0.0,0.0,-1.1819,-1.1877,0.0,0.0,0.0,0.0,0.0,0.0,0.0,0.0,0.0,0.0,0.0,-1.3666,-1.3679,0.0,0.0,0.0,0.0,0.0,0.0,0.0,0.0,0.0,0.0,0.0,0.0,-1.2552,-1.0629,-1.0624,-1.0726,-1.0726,-1.082,-1.0922,-1.0964,-1.0828,-1.0667,-1.0462,0.0,0.0,0.0,0.0,0.0,0.0,0.0,0.0,0.0,0.0,0.0,0.0,0.0,0.0,0.0,0.0,0.0,0.0,0.0,0.0,0.0,0.0,0.0,0.0,0.0,-1.9374,0.0,0.0,0.0,0.0,0.0,0.0,0.0,0.0,0.0,0.0,-1.8874,-2.0029,-2.1191,-2.2818,-2.4657,-2.6659,-2.7801,-2.8737,0.0,0.0,0.0,0.0,0.0,0.0,0.0,0.0,0.0,0.0,0.0,0.0,0.0,0.0,-3.122,-3.1951,-3.2061,-3.2137,-3.2525,0.0,0.0,0.0,0.0,0.0,0.0,0.0,0.0,0.0,0.0,0.0,0.0,0.0,0.0,-1.1927,-1.1927,-1.2026,0.0,0.0,0.0,0.0,0.0,0.0,0.0,0.0,-1.1927,-1.1968,-1.1927,-1.1918,-1.2534,0.0,-1.3588,-1.4062,0.0,0.0,0.0,0.0,0.0,0.0,0.0,0.0,-1.1804,-1.0618,-1.0669,-1.0829,-1.1112,-1.1325,-1.1437,-1.1482,-1.1294,-1.1167,-1.1124,-1.0972,-1.0913,0.0,0.0,0.0,0.0,0.0,0.0,0.0,0.0,0.0,0.0,0.0,0.0,0.0,0.0,0.0,0.0,0.0,0.0,0.0,0.0,0.0,0.0,0.0,-2.0867,0.0,0.0,0.0,0.0,0.0,0.0,0.0,0.0,0.0,-1.8632,-1.9697,-2.0805,-2.152,-2.303,-2.4686,-2.624,0.0,0.0,0.0,0.0,0.0,0.0,0.0,-2.8795,-2.8779,-2.8982,-2.9167,-2.9412,-2.9913,-3.0417,-3.0651,0.0,0.0,-3.2385,-3.2527,-3.2637,-3.3084,-3.3022,-3.2951,-3.3129,-3.3259,-3.3291,0.0,0.0,0.0,0.0,0.0,0.0,0.0,0.0,-1.1877,-1.1927,0.0,-1.2026,0.0,0.0,0.0,0.0,-1.2323,-1.2274,0.0,0.0,-1.2332,-1.2431,-1.2283,-1.2283,-1.2224,-1.2076,-1.1873,-1.1657,-1.1607,-1.516,0.0,0.0,0.0,0.0,0.0,0.0,-1.0573,-1.0683,-1.0724,-1.1112,-1.1868,-1.2204,-1.2347,-1.2307,-1.1977,-1.1813,-1.1895,-1.1805,-1.1746,-1.1728,-1.1728,0.0,0.0,0.0,0.0,0.0,0.0,0.0,0.0,0.0,0.0,0.0,0.0,0.0,0.0,0.0,0.0,0.0,0.0,0.0,0.0,-2.1634,0.0,0.0,0.0,0.0,0.0,0.0,0.0,0.0,0.0,-2.0169,-1.9579,-2.0877,-2.1932,-2.2086,0.0,0.0,0.0,0.0,-2.7313,-2.7969,-2.8268,-2.8348,-2.8235,-2.8235,-2.8317,-2.8573,0.0,0.0,-2.9608,-2.9989,-3.0333,-3.0651,-3.1038,-3.147,-3.2056,-3.2568,-3.3009,-3.3473,-3.3839,-3.4232,-3.4498,-3.4499,-3.447,-1.321,0.0,0.0,0.0,0.0,-1.2076,-1.2026,-1.1977,-1.2026,-1.2026,-1.2026,-1.2076,0.0,0.0,0.0,0.0,0.0,0.0,-1.2274,-1.2224,-1.2234,-1.2175,-1.2126,-1.2184,-1.2126,-1.2126,-1.1927,-1.1778,-1.1625,-1.243,-1.27,-1.2438,0.0,0.0,0.0,0.0,-1.047,-1.0683,-1.0701,-1.108,-1.1877,-1.2671,-1.2995,-1.2851,-1.3002,-1.2905,-1.261,-1.2549,-1.2471,-1.2292,-1.2274,0.0,0.0,0.0,0.0,0.0,0.0,0.0,0.0,0.0,0.0,0.0,0.0,0.0,0.0,0.0,0.0,0.0,0.0,0.0,-2.2643,-2.2922,-2.2889,0.0,0.0,0.0,0.0,0.0,0.0,0.0,0.0,0.0,-2.1237,-2.1704,-2.2081,0.0,0.0,-2.4545,-2.5478,-2.6105,-2.6747,-2.759,-2.8024,0.0,-2.8103,-2.8201,-2.8396,-2.8589,-2.8905,-2.9275,-2.9653,-3.0033,-3.0401,-3.0651,-3.1038,-3.1411,-3.1748,-3.2317,-3.2862,-3.3256,-3.3643,-3.3972,-3.4191,-3.4386,-3.4467,-1.3478,-1.3007,-1.2822,-1.2627,-1.2382,-1.2224,-1.2175,-1.2175,-1.2116,-1.2076,-1.2076,-1.2076,-1.2175,-1.2372,-1.248,0.0,0.0,0.0,-1.2421,-1.2372,-1.2274,-1.2224,-1.2184,-1.2184,-1.2175,-1.2184,-1.1927,-1.1778,-1.1669,-1.1326,-1.0972,-1.0667,0.0,-1.0316,-1.0316,-1.0316,-1.0419,-1.0683,-1.0761,-1.126,-1.227,-1.3032,-1.3396,-1.335,-1.3302,-1.3157,-1.2909,-1.295,-1.2926,-1.2764,-1.2852,-1.29,0.0,0.0,0.0,0.0,0.0,0.0,0.0,0.0,0.0,0.0,0.0,-1.6693,-1.7115,0.0,0.0,0.0,-2.1269,-2.2673,-2.3551,-2.3653,0.0,0.0,0.0,0.0,0.0,0.0,0.0,-2.2081,-2.1988,-2.2049,-2.231,-2.2434,-2.258,-2.2851,-2.3815,-2.4802,-2.5593,0.0,-2.6775,-2.7291,-2.769,-2.794,-2.784,-2.8054,-2.8363,-2.8636,-2.9029,-2.9396,-2.9653,-3.0033,-3.0375,-3.0609,-3.0918,-3.1235,-3.1466,-3.1985,-3.2504,-3.293,-3.3357,-3.3652,-3.3905,-3.4099,-3.4274,-1.3668,-1.316,-1.3007,-1.2774,-1.2529,-1.2382,-1.2283,-1.2283,-1.2175,-1.2076,-1.2076,-1.2076,-1.2234,-1.252,-1.2783,0.0,-1.2881,-1.2774,-1.2637,-1.2471,-1.2471,-1.2372,-1.2274,-1.2274,-1.2274,-1.2224,-1.1877,-1.1669,-1.1669,-1.1326,-1.1074,-1.0913,-1.0522,-1.0316,-1.0316,-1.0316,-1.047,-1.0726,-1.0837,-1.1552,-1.2831,-1.3286,-1.3577,-1.3666,-1.3135,-1.288,-1.2988,-1.3086,-1.3202,-1.3218,-1.3362,-1.3515,-1.3658,0.0,0.0,0.0,0.0,0.0,0.0,0.0,0.0,0.0,0.0,0.0,0.0,0.0,0.0,-2.0697,-2.2477,0.0,-2.3824,-2.3967,0.0,0.0,0.0,-2.3421,-2.3216,-2.2934,-2.2844,-2.2979,0.0,0.0,-2.2962,-2.3096,-2.3418,-2.3996,-2.4817,-2.5597,-2.6234,-2.6804,-2.713,-2.7041,-2.7386,-2.7625,-2.7675,-2.794,-2.825,-2.87,-2.9107,-2.9396,-2.9637,-2.9946,-3.0248,-3.0485,-3.0773,-3.1055,-3.1274,-3.1637,-3.2038,-3.2539,-3.2957,-3.3321,-3.3605,-3.3807,-3.3928,-1.3668,-1.3324,-1.318,-1.2939,-1.2627,-1.2431,-1.2283,-1.2274,-1.2126,-1.2076,-1.2076,-1.2076,-1.2274,-1.2529,-1.2774,-1.2832,-1.2725,-1.2618,-1.2471,-1.2323,-1.2224,-1.2135,-1.2026,-1.1977,-1.1968,-1.1841,-1.176,-1.1678,-1.1519,-1.1368,-1.1175,-1.1023,-1.0675,-1.047,-1.047,-1.047,-1.0573,-1.0871,-1.0934,-1.1527,-1.265,-1.3204,-1.3568,-1.3702,-1.3691,-1.3649,-1.353,-1.3621,-1.366,-1.3536,-1.3621,-1.381,-1.4025,-1.4186,0.0,0.0,0.0,0.0,0.0,0.0,0.0,0.0,0.0,-1.7852,-1.8422,0.0,-2.0836,0.0,-2.2424,-2.357,-2.4256,-2.4441,0.0,0.0,-2.4276,-2.4135,-2.3894,-2.3782,-2.3653,-2.361,-2.3407,-2.3452,-2.3847,-2.3921,-2.4347,-2.5316,-2.5185,-2.5179,-2.5871,-2.6462,-2.6989,-2.713,-2.7372,-2.7675,-2.789,-2.8299,-2.8652,-2.8794,-2.9107,-2.9396,-2.9637,-2.9902,-3.013,-3.0426,-3.0699,-3.0958,-3.1173,-3.1445,-3.1674,-3.2038,-3.2504,-3.293,-3.3178,-3.3364,-3.3481,-1.3573,-1.3314,-1.319,-1.2968,-1.2676,-1.248,-1.2332,-1.2274,-1.2175,-1.2076,-1.2135,-1.2184,-1.2274,-1.2421,-1.2627,-1.2676,-1.2578,-1.248,-1.2372,-1.2274,-1.2175,-1.2076,-1.1977,-1.1977,-1.1977,-1.19,-1.1819,-1.1728,-1.1578,-1.1477,-1.1276,-1.1124,-1.0871,-1.0718,-1.0667,-1.0565,-1.0624,-1.082,-1.1341,-1.1982,-1.2797,-1.3162,-1.3383,-1.3532,-1.3517,-1.3486,-1.3442,-1.3511,-1.3587,-1.3678,-1.3858,-1.4093,-1.4373,-1.4558,-1.464,0.0,0.0,0.0,0.0,0.0,0.0,0.0,0.0,0.0,0.0,0.0,-2.1525,-2.214,-2.3203,-2.4039,-2.458,-2.4742,-2.4766,-2.4726,-2.4926,-2.4984,-2.4901,-2.4967,-2.4994,-2.4863,-2.4552,-2.4415,-2.4538,-2.4378,-2.4612,-2.551,-2.5171,-2.5171,-2.6046,-2.6509,-2.675,-2.6893,-2.7115,-2.7437,-2.779,-2.8299,-2.8604,-2.8652,-2.8951,-2.9275,-2.9412,-2.9681,-2.993,-3.0172,-3.0368,-3.0617,-3.0838,-3.0769,-3.0836,-3.1067,-3.115,-3.1614,-3.2624,-3.2711,-3.2649,-1.342,-1.317,-1.3065,-1.2939,-1.2627,-1.2529,-1.2431,-1.2283,-1.2175,-1.2076,-1.2135,-1.2234,-1.2283,-1.2323,-1.2431,-1.2471,-1.248,-1.2332,-1.2283,-1.2274,-1.2175,-1.2076,-1.2076,-1.2076,-1.2076,-1.2067,-1.1927,-1.1819,-1.1669,-1.1578,-1.1377,-1.1175,-1.1124,-1.1015,-1.0922,-1.0667,-1.0616,-1.0777,-1.1766,-1.2513,-1.2945,-1.302,-1.3061,-1.3205,-1.2977,-1.2929,-1.3085,-1.3142,-1.3409,-1.3773,-1.4035,-1.4326,-1.4616,-1.4834,-1.4949,0.0,-1.538,0.0,0.0,0.0,0.0,0.0,0.0,0.0,0.0,-2.1151,-2.2323,-2.3603,-2.4256,-2.4661,-2.482,-2.4918,-2.5005,-2.5021,-2.5406,-2.5686,-2.566,-2.5998,-2.6211,-2.6046,-2.5633,-2.5269,-2.5034,-2.4704,-2.4682,-2.5204,-2.5107,-2.53,-2.6304,-2.6457,-2.6404,-2.6457,-2.675,-2.7181,-2.7524,-2.7989,-2.8317,-2.8288,-2.8529,-2.8871,-2.8728,-2.9032,-2.9315,-2.9442,-2.9583,-2.9828,-3.0162,-2.9836,-2.9705,-2.9888,-2.9668,-2.9971,-3.1544,-3.1753,-3.1502,-1.3132,-1.2968,-1.2929,-1.2735,-1.2382,-1.2332,-1.2323,-1.2283,-1.2175,-1.2076,-1.2126,-1.2224,-1.2283,-1.2332,-1.2421,-1.2431,-1.2332,-1.2323,-1.2224,-1.2126,-1.2135,-1.2026,-1.1927,-1.1918,-1.1868,-1.1801,-1.1769,-1.171,-1.1692,-1.1569,-1.1477,-1.1427,-1.1226,-1.1065,-1.1074,0.0,0.0,0.0,-1.1707,-1.2086,-1.2295,-1.2494,-1.2693,-1.2791,-1.2773,0.0,-1.3075,-1.318,-1.3409,-1.3763,-1.4035,0.0,0.0,0.0,0.0,0.0,0.0,0.0,0.0,0.0,0.0,0.0,-2.0468,-2.0975,-2.1069,-2.2571,-2.3746,-2.4287,-2.4605,-2.4822,-2.4942,-2.4982,-2.5005,-2.5021,-2.5012,-2.497,-2.5001,-2.533,-2.5372,-2.5017,-2.507,-2.5204,-2.5199,-2.4991,-2.5022,-2.5394,-2.5315,-2.526,-2.5467,-2.577,-2.6042,-2.615,-2.6563,-2.7034,-2.7386,-2.7745,-2.7814,-2.7592,-2.7643,-2.7641,-2.7324,-2.7331,-2.7576,-2.7849,-2.7885,-2.8084,-2.8509,-2.8481,-2.8516,-2.877,-2.8787,-2.9117,-3.0056,-3.0155,-3.0132,-1.2861,-1.2676,-1.2637,-1.2431,0.0,-1.2126,-1.2076,-1.2026,-1.2076,-1.2076,-1.2135,-1.2175,-1.2224,-1.2224,-1.2274,-1.2283,-1.2175,-1.2224,-1.2184,-1.2076,-1.2076,-1.2067,-1.1977,-1.1927,-1.1868,-1.1801,-1.171,-1.166,-1.1601,-1.1519,-1.1469,-1.1427,-1.1276,-1.1319,-1.161,-1.1852,-1.18,-1.1528,-1.2016,-1.2328,-1.2302,-1.2669,-1.2888,-1.2783,-1.2881,0.0,0.0,0.0,0.0,0.0,0.0,0.0,0.0,-1.5475,0.0,-1.6188,-1.6993,-1.7632,-1.7987,-1.8862,-1.9684,-2.0347,-2.1329,-2.1997,-2.2277,-2.3301,-2.4024,-2.4364,-2.4554,-2.4701,-2.4726,-2.4766,-2.4846,-2.4918,-2.5023,-2.5144,-2.5165,-2.5395,-2.5531,-2.5431,-2.5311,-2.5264,-2.5342,-2.5024,-2.4874,-2.498,-2.4821,-2.4637,-2.4708,-2.5104,-2.5495,-2.5756,-2.6094,-2.6376,-2.6403,-2.6692,-2.6801,-2.6402,-2.6487,-2.6505,-2.6364,-2.6481,-2.6658,-2.6934,-2.7047,-2.7174,-2.7492,-2.7373,-2.7234,-2.7459,-2.7366,-2.7337,-2.7841,-2.8391,-2.8904,-1.2529,-1.2431,-1.2283,-1.2076,-1.1868,-1.1877,-1.1828,-1.1728,-1.1918,0.0,0.0,-1.2076,-1.2076,-1.2067,-1.2076,-1.2067,-1.2067,-1.2026,-1.2026,-1.2026,-1.2026,-1.2017,-1.2026,-1.1927,-1.1877,-1.1877,-1.1728,-1.1628,-1.1528,-1.1477,-1.1368,-1.1335,-1.1345,-1.161,-1.2166,-1.2698,-1.2645,-1.2037,-1.2547,-1.2824,-1.2717,-1.3173,-1.3316,-1.3057,-1.3145,-1.3242,-1.3276,-1.3443,-1.3734,-1.4195,-1.4544,-1.4907,-1.5233,-1.615,-1.6715,-1.6961,-1.7803,-1.8553,-1.9092,-1.961,-2.0197,-2.0868,-2.1827,-2.2646,-2.3172,-2.3566,-2.3897,-2.4197,-2.439,-2.4457,-2.4457,-2.4467,-2.4549,-2.4645,-2.4963,-2.5145,-2.5133,-2.5363,-2.5431,-2.5624,-2.5329,-2.5159,-2.508,-2.4784,-2.4549,-2.4247,-2.4073,-2.3956,-2.4015,-2.4478,-2.4935,-2.5175,-2.5481,-2.5584,-2.5408,-2.5553,-2.5477,-2.5081,-2.5201,-2.539,-2.5455,-2.5606,-2.5771,-2.587,-2.6109,-2.6221,-2.6493,-2.6192,-2.5982,-2.6213,-2.5825,-2.5551,-2.5824,-2.6673,-2.7535,-1.2283,-1.2126,-1.2026,-1.1877,-1.1728,-1.1728,-1.1728,-1.1669,-1.1728,-1.1769,-1.1778,-1.1877,-1.1918,-1.1927,-1.1927,-1.1927,-1.1927,-1.1828,-1.1728,-1.1728,-1.1778,-1.1778,-1.1769,-1.1728,-1.1728,-1.1719,-1.1578,-1.1528,-1.1477,-1.1276,-1.1226,-1.131,-1.1498,-1.189,-1.2506,-1.2986,-1.3186,-1.3077,-1.3266,-1.3418,-1.3522,-1.3801,-1.3848,-1.3609,-1.363,-1.3591,-1.3546,-1.3955,-1.4408,-1.492,-1.5637,-1.6196,-1.6541,-1.7002,-1.7448,-1.7795,-1.8507,-1.9103,-1.9484,-2.0096,-2.0657,-2.1251,-2.1983,-2.254,-2.2934,-2.348,-2.3839,-2.404,-2.4193,-2.4302,-2.4302,-2.4219,-2.4162,-2.4162,-2.3985,-2.3874,-2.3904,-2.4059,-2.4083,-2.384,-2.4189,-2.4285,-2.4065,-2.4041,-2.3995,-2.3734,-2.3556,-2.345,-2.3365,-2.3826,-2.4292,-2.4567,-2.4808,-2.4901,-2.4771,-2.499,-2.4617,-2.3914,-2.3978,-2.3973,-2.358,-2.3747,-2.3911,-2.4011,-2.4173,-2.4316,-2.4656,-2.4658,-2.471,-2.4898,-2.4902,-2.4981,-2.5059,-2.5474,-2.5863,-1.1877,-1.1778,-1.1728,-1.1628,-1.1469,-1.1418,-1.1318,-1.1276,-1.1276,-1.1427,-1.1728,-1.1769,-1.1778,-1.1778,-1.1778,-1.1778,-1.1778,-1.1728,-1.1678,-1.1578,-1.1578,-1.1519,-1.1469,-1.1427,-1.1377,-1.1368,-1.1226,-1.1175,-1.1175,-1.1074,-1.1023,-1.1116,-1.169,-1.2384,-1.3019,-1.3543,-1.3889,-1.4042,-1.41,-1.4038,-1.399,-1.4365,-1.4449,-1.418,-1.4326,-1.4389,-1.4376,-1.4715,-1.5084,-1.5498,-1.5998,-1.6462,-1.6799,-1.7577,-1.8105,-1.8351,-1.9083,-1.9598,-1.9811,-2.028,-2.0785,-2.1215,-2.165,-2.1983,-2.2296,-2.2979,-2.348,-2.3653,-2.3739,-2.3782,-2.3824,-2.3739,-2.3653,-2.3653,-2.3377,-2.3187,-2.3068,-2.2939,-2.2847,-2.2804,-2.3103,-2.3297,-2.3267,-2.3457,-2.3522,-2.3271,-2.303,-2.2848,-2.2714,-2.2884,-2.3305,-2.3859,-2.3861,-2.3694,-2.3635,-2.3447,-2.3036,-2.2436,-2.253,-2.2607,-2.2477,-2.2632,-2.2814,-2.3068,-2.3157,-2.3334,-2.3595,-2.3696,-2.3824,-2.3979,-2.4105,-2.4271,-2.4436,-2.4639,-2.502,-1.158,-1.1549,-1.1506,-1.1456,-1.1413,-1.1234,-1.1097,-1.0995,-1.0912,-1.1065,-1.1477,-1.1519,-1.1578,-1.1578,-1.1569,-1.1578,-1.1578,-1.1519,-1.1477,-1.1377,-1.1368,-1.1326,-1.1226,-1.1124,-1.1023,-1.0972,-1.0871,-1.082,-1.0769,-1.0718,-1.0799,-1.1107,-1.2028,-1.2819,-1.3415,-1.4037,-1.4437,-1.4628,-1.4687,-1.4664,-1.4473,-1.4887,-1.5004,-1.4747,-1.4993,-1.5164,-1.5112,-1.5447,-1.576,-1.6133,-1.6479,-1.6803,-1.721,-1.8094,-1.8692,-1.8881,-1.9534,-1.999,-2.0029,-2.0372,-2.0709,-2.097,-2.1166,-2.1361,-2.1602,-2.2235,-2.2844,-2.3113,-2.3113,-2.3157,-2.3201,-2.3201,-2.3112,-2.3098,-2.2859,-2.2632,-2.248,-2.2063,-2.1815,-2.1988,-2.2181,-2.2447,-2.2578,-2.2972,-2.3138,-2.28,-2.2494,-2.2235,-2.2161,-2.2049,-2.2322,-2.2695,-2.2763,-2.251,-2.2269,-2.1995,-2.1639,-2.1233,-2.1326,-2.1582,-2.1793,-2.1949,-2.2123,-2.2434,-2.2572,-2.2723,-2.2904,-2.3053,-2.3172,-2.3334,-2.3465,-2.3551,-2.3879,-2.4105,-2.4477,-1.1533,-1.172,-1.1534,-1.1564,-1.1795,-1.1506,-1.1366,-1.1272,-1.0916,-1.0718,-1.0845,-1.1015,-1.1124,-1.1175,-1.1124,-1.1167,-1.1124,-1.1023,-1.0972,-1.0922,-1.0972,-1.0972,-1.0922,-1.0922,-1.0879,-1.0726,-1.0616,-1.0462,-1.036,-1.0221,-1.0568,-1.1479,-1.2429,-1.3091,-1.3536,-1.4154,-1.4478,-1.4529,-1.4923,-1.5129,-1.5109,-1.5477,-1.5472,-1.5144,-1.5454,-1.5529,-1.5436,-1.5966,-1.6459,-1.6927,-1.7404,-1.7966,-1.8395,-1.872,-1.9125,-1.9478,-1.967,-1.9914,-2.0131,-2.0321,-2.0422,-2.0472,-2.0709,-2.0858,-2.0957,-2.1215,-2.1698,-2.2296,-2.2526,-2.2558,-2.2603,-2.2672,-2.264,-2.2463,-2.2198,-2.1977,-2.1855,-2.1423,-2.1059,-2.0911,-2.1549,-2.1865,-2.1819,-2.2393,-2.2689,-2.2371,-2.1987,-2.1675,-2.1588,-2.1537,-2.1366,-2.133,-2.1534,-2.1661,-2.1247,-2.1117,-2.0914,-2.0612,-2.072,-2.0957,-2.1118,-2.1277,-2.141,-2.1793,-2.1888,-2.2077,-2.2324,-2.2463,-2.254,-2.2754,-2.2889,-2.3068,-2.3363,-2.3537,-2.3937,-1.1814,-1.1847,-1.1746,-1.1662,-1.1664,-1.1527,-1.136,-1.1099,-1.0647,-1.0439,-1.0461,-1.0275,-1.0395,-1.0726,-1.0777,-1.0769,-1.0718,-1.0557,-1.0454,-1.036,-1.0293,-1.019,-1.0138,-1.0138,-1.0087,-1.0035,-0.9984,-0.9932,-0.9918,-1.0076,-1.0632,-1.1471,-1.2134,-1.2789,-1.3476,-1.3743,-1.4052,-1.43,-1.4597,-1.4843,-1.4961,-1.5439,-1.5708,-1.5756,-1.6073,-1.6224,-1.6275,-1.671,-1.7082,-1.7409,-1.7741,-1.8116,-1.8572,-1.8827,-1.9105,-1.9368,-1.946,-1.9656,-1.9811,-1.9965,-2.0067,-2.0182,-2.0321,-2.0472,-2.0573,-2.0673,-2.0908,-2.1299,-2.1636,-2.1874,-2.1983,-2.208,-2.2047,-2.1835,-2.1609,-2.1429,-2.1326,-2.0921,-2.0573,-2.0449,-2.1125,-2.1536,-2.1418,-2.1846,-2.2139,-2.1913,-2.1537,-2.1233,-2.1083,-2.1042,-2.0677,-2.022,-2.0322,-2.0437,-2.0287,-2.0126,-2.0022,-1.9925,-2.0042,-2.0258,-2.0485,-2.0586,-2.0772,-2.1229,-2.1326,-2.1471,-2.1759,-2.1807,-2.1888,-2.2109,-2.236,-2.2543,-2.2766,-2.2918,-2.3143,-1.1962,-1.1947,-1.193,-1.1805,-1.1565,-1.1472,-1.1253,-1.092,-1.0431,-1.0173,-1.0137,-0.9678,-0.9708,-1.0113,-1.02,-1.0205,-1.0146,-0.9991,-0.9888,-0.9792,-0.9673,-0.9614,-0.951,-0.9465,-0.9465,-0.9458,-0.9458,-0.9465,-0.9561,-1.01,-1.0632,-1.1236,-1.1823,-1.2462,-1.3183,-1.339,-1.3631,-1.4001,-1.424,-1.4478,-1.4715,-1.5196,-1.5672,-1.6009,-1.64,-1.6637,-1.6807,-1.711,-1.7445,-1.7645,-1.781,-1.8073,-1.856,-1.8774,-1.8999,-1.917,-1.9328,-1.942,-1.9565,-1.9656,-1.9759,-1.9875,-1.9978,-2.0067,-2.022,-2.0271,-2.0321,-2.0459,-2.0822,-2.1118,-2.1326,-2.1456,-2.1421,-2.1193,-2.1059,-2.0911,-2.0785,-2.0472,-2.0169,-2.0015,-2.0573,-2.1126,-2.1116,-2.132,-2.1393,-2.1218,-2.0991,-2.0632,-2.0512,-2.0384,-2.0172,-1.9358,-1.9298,-1.9378,-1.9432,-1.9407,-1.9235,-1.9303,-1.9488,-1.9747,-1.9965,-2.0016,-2.0169,-2.0723,-2.0785,-2.0934,-2.1166,-2.1215,-2.1326,-2.1602,-2.1813,-2.2035,-2.2245,-2.2324,-2.2434,-1.171,-1.1968,-1.2057,-1.1912,-1.1735,-1.1413,-1.1108,-1.0728,-1.0233,-0.9928,-0.9778,-0.9401,-0.9218,-0.9295,-0.9404,-0.942,-0.9413,-0.9316,-0.9263,-0.9211,-0.9204,-0.9211,-0.9211,-0.9211,-0.9159,-0.9061,-0.9106,-0.9225,-0.926,-0.998,-1.0458,-1.0688,-1.1691,-1.2405,-1.2683,-1.3155,-1.3511,-1.3571,-1.3941,-1.4309,-1.4478,-1.4843,-1.5264,-1.5662,-1.6296,-1.6637,-1.6807,-1.7099,-1.7434,-1.7711,-1.7711,-1.7963,-1.856,-1.8614,-1.8839,-1.9117,-1.9328,-1.942,-1.9433,-1.942,-1.946,-1.9617,-1.9656,-1.9708,-1.985,-1.9978,-2.0029,-2.0029,-2.0233,-2.0422,-2.0623,-2.0901,-2.0927,-2.0686,-2.0421,-2.027,-2.022,-2.0003,-1.9811,-1.9691,-1.9883,-2.0382,-2.1009,-2.0754,-2.0423,-2.0318,-2.0322,-2.0114,-1.9519,-1.9598,-1.9434,-1.8938,-1.8698,-1.8666,-1.8536,-1.8672,-1.8863,-1.8934,-1.9028,-1.9279,-1.954,-1.9759,-1.9965,-2.0169,-2.0321,-2.0459,-2.061,-2.0759,-2.0921,-2.1118,-2.1313,-2.152,-2.1691,-2.1821,-2.1888,-1.1707,-1.1569,-1.1564,-1.1435,-1.1163,-1.0995,-1.0829,-1.0423,-0.9959,-0.9648,-0.9411,-0.9053,-0.8789,-0.8614,-0.8576,-0.8756,-0.8969,-0.8791,-0.8692,-0.8679,-0.8461,-0.8415,-0.8533,-0.8533,-0.8586,-0.8633,-0.8685,-0.8838,-0.9214,-0.972,-1.024,-1.0754,-1.1456,-1.1996,-1.2305,-1.2674,-1.2981,-1.3103,-1.3519,-1.3812,-1.3932,-1.4419,-1.4843,-1.5264,-1.5951,-1.64,-1.6637,-1.7099,-1.7434,-1.7711,-1.781,-1.8084,-1.856,-1.8774,-1.8881,-1.9052,-1.9105,-1.9158,-1.9158,-1.9223,-1.9328,-1.9473,-1.9565,-1.9656,-1.9759,-1.9862,-1.9862,-1.9862,-1.9914,-1.9952,-2.0029,-2.0258,-2.0423,-2.0233,-1.9889,-1.971,-1.9734,-1.9604,-1.9396,-1.9271,-1.9335,-1.9674,-1.9983,-1.981,-1.9437,-1.9254,-1.904,-1.8762,-1.8552,-1.8574,-1.852,-1.8027,-1.7922,-1.7941,-1.7545,-1.7909,-1.8236,-1.8398,-1.856,-1.8881,-1.9093,-1.9239,-1.9448,-1.9708,-1.9862,-1.9965,-2.0105,-2.0321,-2.0472,-2.0636,-2.0785,-2.0934,-2.1122,-2.1242,-2.1375,-1.1283,-1.0898,-1.0836,-1.0711,-1.0478,-1.0485,-1.0295,-0.9958,-0.96,-0.9327,-0.9086,-0.8739,-0.8434,-0.82,-0.8107,-0.8147,-0.834,-0.8156,-0.8103,-0.8103,-0.7883,-0.783,-0.7949,-0.7949,-0.8062,-0.8174,-0.841,-0.8664,-0.9092,-0.9459,-0.9979,-1.0537,-1.1091,-1.1567,-1.1941,-1.2313,-1.2498,-1.2674,-1.3042,-1.3338,-1.3442,-1.3992,-1.4478,-1.4843,-1.5478,-1.6056,-1.6581,-1.6976,-1.7379,-1.7656,-1.781,-1.8073,-1.856,-1.8839,-1.8946,-1.8999,-1.8987,-1.8987,-1.8987,-1.9117,-1.9223,-1.9368,-1.946,-1.9604,-1.9747,-1.9798,-1.9798,-1.9747,-1.9759,-1.9708,-1.9604,-1.9695,-1.9798,-1.9759,-1.9389,-1.9209,-1.9384,-1.9133,-1.8922,-1.8703,-1.8611,-1.8839,-1.9043,-1.8781,-1.8517,-1.8278,-1.7973,-1.7822,-1.7604,-1.7698,-1.7625,-1.7259,-1.7305,-1.726,-1.7048,-1.7234,-1.7744,-1.792,-1.8193,-1.8464,-1.8679,-1.8774,-1.8987,-1.9251,-1.9408,-1.9512,-1.9668,-1.9823,-1.9978,-2.0144,-2.0283,-2.0422,-2.0549,-2.0662,-2.0835,-1.0228,-0.9918,-0.9912,-0.9842,-0.9793,-0.9761,-0.9588,-0.9332,-0.9064,-0.8918,-0.8687,-0.8509,-0.8199,-0.8005,-0.7857,-0.7772,-0.7549,-0.7521,-0.7521,-0.7574,-0.7515,-0.7515,-0.7574,-0.7574,-0.7645,-0.7836,-0.8337,-0.8639,-0.889,-0.9347,-0.9797,-1.018,-1.0608,-1.1122,-1.156,-1.1872,-1.212,-1.2305,-1.2613,-1.2972,-1.3268,-1.364,-1.4061,-1.4469,-1.4991,-1.5642,-1.6513,-1.6853,-1.7245,-1.7656,-1.7711,-1.7975,-1.8506,-1.8732,-1.8851,-1.8987,-1.8987,-1.8987,-1.8987,-1.9052,-1.9158,-1.9368,-1.942,-1.9565,-1.9747,-1.9798,-1.9747,-1.9656,-1.9604,-1.9565,-1.9408,-1.9202,-1.9202,-1.9291,-1.896,-1.8766,-1.8886,-1.8774,-1.8387,-1.8018,-1.7878,-1.7868,-1.7986,-1.777,-1.7488,-1.7326,-1.7255,-1.7114,-1.6698,-1.686,-1.7022,-1.6829,-1.6734,-1.6636,-1.6613,-1.6627,-1.7088,-1.749,-1.7822,-1.8096,-1.8313,-1.8464,-1.8625,-1.8893,-1.8946,-1.904,-1.9198,-1.9408,-1.95,-1.9656,-1.9747,-1.9901,-2.0029,-2.0195,-2.0334,-0.9282,-0.901,-0.9181,-0.918,-0.9039,-0.907,-0.8958,-0.877,-0.8565,-0.8306,-0.8042,-0.7986,-0.7741,-0.7435,-0.7357,-0.7182,-0.6939,-0.6977,-0.709,-0.7322,-0.7257,-0.7257,-0.7371,-0.7371,-0.7558,-0.7845,-0.8149,-0.8539,-0.8938,-0.9175,-0.9525,-1.0032,-1.0445,-1.0744,-1.0933,-1.131,-1.1615,-1.1809,-1.212,-1.2498,-1.2858,-1.3216,-1.37,-1.4121,-1.4725,-1.5371,-1.5951,-1.6581,-1.7088,-1.7534,-1.7744,-1.8073,-1.8506,-1.8732,-1.8851,-1.8999,-1.8987,-1.9052,-1.9117,-1.917,-1.9263,-1.946,-1.9565,-1.9604,-1.9747,-1.9798,-1.9759,-1.9617,-1.9617,-1.946,-1.9198,-1.9081,-1.9028,-1.9093,-1.8602,-1.8365,-1.8483,-1.8247,-1.7909,-1.7634,-1.7412,-1.7277,-1.7148,-1.6859,-1.6523,-1.6359,-1.6158,-1.5851,-1.5792,-1.587,-1.582,-1.5723,-1.5861,-1.6077,-1.61,-1.6171,-1.6457,-1.6931,-1.7323,-1.7645,-1.7865,-1.8096,-1.8247,-1.841,-1.8518,-1.8625,-1.8774,-1.8881,-1.8975,-1.9133,-1.9291,-1.9448,-1.9617,-1.972,-1.9862,-0.8363,-0.8096,-0.8238,-0.8242,-0.8232,-0.8343,-0.8249,-0.8073,-0.8011,-0.7782,-0.7531,-0.7536,-0.735,-0.7073,-0.7082,-0.7008,-0.6798,-0.6713,-0.6935,-0.7189,-0.7025,-0.7025,-0.723,-0.7438,-0.7644,-0.7931,-0.8227,-0.8546,-0.888,-0.9048,-0.9304,-0.9824,-1.0104,-1.0358,-1.0561,-1.087,-1.1185,-1.1435,-1.1755,-1.2058,-1.2367,-1.2789,-1.3277,-1.3761,-1.4309,-1.4843,-1.5323,-1.6009,-1.6694,-1.7245,-1.7678,-1.8061,-1.8398,-1.8614,-1.8786,-1.8893,-1.8999,-1.9105,-1.9182,-1.9223,-1.9368,-1.9565,-1.9617,-1.9656,-1.9747,-1.9747,-1.9656,-1.9565,-1.9408,-1.9251,-1.8946,-1.8721,-1.8667,-1.8614,-1.8251,-1.7993,-1.7963,-1.7645,-1.7357,-1.7134,-1.6909,-1.6684,-1.6457,-1.6114,-1.5816,-1.5604,-1.5381,-1.5098,-1.5156,-1.5166,-1.5098,-1.5166,-1.5312,-1.5498,-1.5634,-1.5778,-1.5951,-1.6363,-1.6761,-1.7145,-1.7412,-1.759,-1.7755,-1.7865,-1.8018,-1.8127,-1.8278,-1.829,-1.8344,-1.856,-1.8827,-1.8934,-1.9052,-1.9198,-1.9291,-0.7362,-0.7192,-0.7213,-0.7302,-0.7444,-0.7609,-0.7596,-0.7443,-0.7407,-0.7367,-0.7195,-0.7138,-0.7026,-0.6867,-0.6934,-0.6932,-0.6947,-0.6755,-0.6813,-0.7007,-0.6827,-0.6789,-0.7125,-0.7502,-0.7785,-0.7963,-0.8304,-0.8545,-0.8657,-0.8828,-0.9145,-0.9454,-0.9582,-0.9843,-1.0358,-1.0561,-1.0744,-1.1059,-1.138,-1.156,-1.1809,-1.2305,-1.2797,-1.3268,-1.3761,-1.424,-1.4715,-1.5371,-1.6114,-1.6899,-1.7512,-1.7909,-1.8139,-1.8398,-1.8614,-1.8798,-1.9064,-1.9117,-1.9223,-1.9275,-1.942,-1.9565,-1.9565,-1.9656,-1.9708,-1.9656,-1.9512,-1.9356,-1.9158,-1.8881,-1.8614,-1.8356,-1.8127,-1.7897,-1.7809,-1.7644,-1.7368,-1.7145,-1.6909,-1.6694,-1.6477,-1.6249,-1.5941,-1.5584,-1.5362,-1.5196,-1.5029,-1.498,-1.4921,-1.4921,-1.498,-1.498,-1.5039,-1.5205,-1.5371,-1.5536,-1.571,-1.5961,-1.6306,-1.6591,-1.6965,-1.7078,-1.7256,-1.7412,-1.7523,-1.7689,-1.7744,-1.7744,-1.7865,-1.8073,-1.8236,-1.841,-1.8518,-1.8667,-1.8774,-0.6898,-0.6863,-0.6972,-0.7079,-0.7107,-0.7136,-0.7201,-0.7212,-0.7016,-0.6883,-0.6846,-0.6806,-0.6707,-0.6543,-0.6593,-0.6551,-0.6466,-0.6442,-0.6424,-0.6524,-0.6456,-0.6763,-0.7146,-0.7522,-0.7691,-0.7788,-0.8028,-0.8286,-0.8489,-0.8603,-0.8829,-0.9145,-0.9326,-0.9582,-0.9779,-1.0047,-1.0244,-1.0491,-1.0744,-1.1059,-1.1428,-1.1809,-1.2297,-1.292,-1.3398,-1.3821,-1.424,-1.501,-1.5894,-1.6807,-1.7301,-1.7678,-1.7831,-1.8127,-1.8422,-1.8834,-1.8917,-1.9011,-1.917,-1.9223,-1.9316,-1.942,-1.9473,-1.946,-1.9512,-1.946,-1.9316,-1.9146,-1.904,-1.8786,-1.8356,-1.8139,-1.7931,-1.7545,-1.7412,-1.7346,-1.7078,-1.6761,-1.6534,-1.6431,-1.6144,-1.5836,-1.5536,-1.5303,-1.502,-1.4902,-1.4734,-1.4625,-1.4693,-1.4693,-1.4693,-1.4743,-1.4803,-1.497,-1.5137,-1.5303,-1.5478,-1.5662,-1.5904,-1.6087,-1.641,-1.6694,-1.6807,-1.6976,-1.7134,-1.7234,-1.7301,-1.7301,-1.7479,-1.7645,-1.7854,-1.8018,-1.8084,-1.8182,-1.8302,-0.644,-0.6445,-0.6577,-0.6687,-0.666,-0.6682,-0.6713,-0.6771,-0.6625,-0.6566,-0.658,-0.6548,-0.6485,-0.633,-0.6326,-0.6273,-0.6233,-0.615,-0.6166,-0.6366,-0.6366,-0.6688,-0.7173,-0.7438,-0.7604,-0.7805,-0.7921,-0.8107,-0.8247,-0.8312,-0.8571,-0.8765,-0.9081,-0.9274,-0.946,-0.9658,-0.9919,-1.011,-1.0308,-1.0681,-1.0996,-1.1365,-1.1872,-1.249,-1.2972,-1.3459,-1.4001,-1.4706,-1.5526,-1.6343,-1.6909,-1.729,-1.7435,-1.7831,-1.8205,-1.8619,-1.8703,-1.8917,-1.9011,-1.9064,-1.9158,-1.9251,-1.9263,-1.9263,-1.9263,-1.921,-1.9052,-1.8946,-1.8786,-1.8452,-1.8073,-1.7799,-1.7523,-1.7256,-1.7088,-1.692,-1.6751,-1.6467,-1.6192,-1.6009,-1.572,-1.542,-1.5177,-1.4951,-1.4784,-1.4675,-1.4565,-1.4515,-1.4515,-1.4515,-1.4515,-1.4625,-1.4734,-1.4902,-1.5088,-1.5254,-1.5352,-1.5546,-1.5662,-1.5788,-1.6019,-1.6353,-1.6534,-1.6637,-1.674,-1.6853,-1.692,-1.6976,-1.7032,-1.72,-1.7468,-1.7634,-1.77,-1.7799,-1.7865,-0.6064,-0.6005,-0.6123,-0.6173,-0.6165,-0.6228,-0.6267,-0.6328,-0.6328,-0.6382,-0.6388,-0.6354,-0.6272,-0.6148,-0.6113,-0.6133,-0.6117,-0.5849,-0.5952,-0.614,-0.6233,-0.6496,-0.6836,-0.7209,-0.7418,-0.7692,-0.7852,-0.7852,-0.7917,-0.8042,-0.8242,-0.8376,-0.8635,-0.8894,-0.9145,-0.9338,-0.9536,-0.9798,-1.0047,-1.0301,-1.0618,-1.0989,-1.1498,-1.2058,-1.256,-1.3164,-1.3821,-1.4419,-1.4942,-1.57,-1.6343,-1.6729,-1.6933,-1.7446,-1.7843,-1.8073,-1.841,-1.8691,-1.8798,-1.8839,-1.8987,-1.9081,-1.8987,-1.904,-1.904,-1.8934,-1.8786,-1.8691,-1.8367,-1.8084,-1.7799,-1.7346,-1.7067,-1.6909,-1.674,-1.6524,-1.6316,-1.6192,-1.5884,-1.5468,-1.541,-1.5118,-1.4883,-1.4656,-1.4666,-1.4565,-1.4515,-1.4515,-1.4515,-1.4515,-1.4515,-1.4565,-1.4675,-1.4834,-1.502,-1.5156,-1.5313,-1.542,-1.5478,-1.5604,-1.5788,-1.6019,-1.6192,-1.6363,-1.6457,-1.657,-1.6705,-1.6705,-1.6761,-1.6807,-1.7134,-1.72,-1.7267,-1.7423,-1.7523,-0.585,-0.5845,-0.585,-0.5905,-0.5881,-0.5884,-0.6015,-0.6138,-0.62,-0.6245,-0.6252,-0.6218,-0.6148,-0.5954,-0.5815,-0.5745,-0.5752,-0.5574,-0.5536,-0.555,-0.5627,-0.5745,-0.609,-0.6527,-0.6868,-0.7007,-0.7077,-0.7204,-0.733,-0.7521,-0.7722,-0.7857,-0.8177,-0.8436,-0.8641,-0.8894,-0.9087,-0.9402,-0.9594,-0.9913,-1.0301,-1.0618,-1.1059,-1.1685,-1.2313,-1.292,-1.3519,-1.3881,-1.424,-1.4815,-1.5575,-1.6161,-1.6492,-1.6944,-1.7335,-1.7611,-1.8018,-1.8313,-1.8476,-1.856,-1.8667,-1.8721,-1.8667,-1.8732,-1.8721,-1.8667,-1.8518,-1.8302,-1.8139,-1.7865,-1.749,-1.7099,-1.6864,-1.6684,-1.6457,-1.6114,-1.5894,-1.5798,-1.5662,-1.541,-1.5059,-1.4824,-1.4715,-1.4616,-1.4565,-1.4515,-1.4515,-1.4515,-1.4515,-1.4515,-1.4565,-1.4616,-1.4793,-1.4961,-1.5079,-1.5205,-1.5313,-1.542,-1.542,-1.542,-1.5604,-1.572,-1.5961,-1.6066,-1.6171,-1.6296,-1.6534,-1.6591,-1.6648,-1.6694,-1.674,-1.692,-1.7032,-1.7134,-1.7245,-0.5776,-0.5715,-0.5772,-0.5776,-0.5789,-0.5822,-0.5903,-0.6059,-0.6103,-0.6121,-0.6187,-0.6083,-0.5951,-0.5752,-0.5554,-0.5488,-0.5352,-0.5226,-0.5093,-0.5093,-0.5163,-0.516,-0.5289,-0.5683,-0.6079,-0.6346,-0.6478,-0.6609,-0.6811,-0.7003,-0.7199,-0.7335,-0.7722,-0.7922,-0.8187,-0.8447,-0.8705,-0.8958,-0.9274,-0.9588,-0.9913,-1.0301,-1.0877,-1.156,-1.2189,-1.2805,-1.3033,-1.345,-1.3761,-1.4172,-1.4815,-1.5449,-1.5911,-1.6436,-1.6765,-1.7101,-1.7556,-1.781,-1.7975,-1.8073,-1.8182,-1.829,-1.8236,-1.8236,-1.8236,-1.8236,-1.8139,-1.792,-1.781,-1.7656,-1.72,-1.6987,-1.6761,-1.6524,-1.6285,-1.5951,-1.5662,-1.5546,-1.543,-1.5128,-1.4893,-1.4715,-1.4606,-1.4506,-1.4515,-1.4515,-1.4515,-1.4515,-1.4506,-1.4556,-1.4616,-1.4725,-1.497,-1.5088,-1.5147,-1.5254,-1.5362,-1.542,-1.542,-1.542,-1.5478,-1.5546,-1.5662,-1.5826,-1.6056,-1.6181,-1.6374,-1.6477,-1.6534,-1.6534,-1.6591,-1.6694,-1.6853,-1.6965,-1.7078,-0.5699,-0.5574,-0.5703,-0.5763,-0.5767,-0.5791,-0.5879,-0.5998,-0.5986,-0.6028,-0.6059,-0.5885,-0.5752,-0.555,-0.5359,-0.516,-0.496,-0.4761,-0.4628,-0.4697,-0.4697,-0.4697,-0.4761,-0.5024,-0.5286,-0.5815,-0.5947,-0.6083,-0.628,-0.6478,-0.6679,-0.6811,-0.7199,-0.74,-0.7666,-0.8057,-0.8382,-0.8506,-0.8894,-0.9268,-0.9588,-1.004,-1.0618,-1.1498,-1.1996,-1.2498,-1.2736,-1.3094,-1.3381,-1.3511,-1.4043,-1.4628,-1.5264,-1.5853,-1.6312,-1.6539,-1.7123,-1.7357,-1.7523,-1.7645,-1.7755,-1.7854,-1.781,-1.7755,-1.7865,-1.7865,-1.7767,-1.7645,-1.759,-1.7368,-1.7011,-1.6807,-1.6591,-1.6363,-1.6124,-1.5826,-1.5478,-1.5294,-1.5059,-1.4824,-1.4715,-1.4616,-1.4556,-1.4515,-1.4515,-1.4524,-1.4533,-1.4524,-1.4584,-1.4606,-1.4666,-1.4725,-1.497,-1.5039,-1.5147,-1.5147,-1.5254,-1.5303,-1.5362,-1.5362,-1.5362,-1.5478,-1.5546,-1.5788,-1.5961,-1.6134,-1.6259,-1.6374,-1.6431,-1.6431,-1.6488,-1.6591,-1.6694,-1.6807,-1.692,-0.5461,-0.5461,-0.5464,-0.5464,-0.5491,-0.5736,-0.5809,-0.5721,-0.5975,-0.5982,-0.5741,-0.5686,-0.5484,-0.5223,-0.496,-0.4764,-0.4498,-0.4298,-0.4298,-0.4367,-0.4298,-0.4231,-0.4434,-0.4498,-0.4628,-0.4891,-0.5223,-0.5554,-0.5752,-0.5954,-0.6152,-0.6346,-0.6675,-0.6876,-0.7138,-0.7466,-0.7917,-0.8182,-0.8501,-0.8882,-0.9332,-0.9786,-1.0364,-1.1247,-1.1685,-1.2065,-1.2498,-1.2683,-1.2972,-1.345,-1.3571,-1.4043,-1.4638,-1.5352,-1.5894,-1.6353,-1.6694,-1.6976,-1.7078,-1.7357,-1.7479,-1.7579,-1.759,-1.7656,-1.7711,-1.7711,-1.7545,-1.7479,-1.7245,-1.7022,-1.6864,-1.6648,-1.6353,-1.6056,-1.575,-1.5469,-1.5185,-1.5056,-1.4956,-1.4833,-1.4726,-1.4561,-1.4574,-1.4587,-1.4669,-1.465,-1.4638,-1.4671,-1.4703,-1.468,-1.4715,-1.4784,-1.4911,-1.497,-1.5039,-1.5039,-1.5088,-1.5147,-1.5147,-1.5196,-1.5254,-1.5362,-1.5488,-1.5614,-1.5788,-1.6019,-1.6134,-1.6316,-1.6374,-1.6374,-1.6431,-1.6477,-1.6591,-1.6705,-1.6864,-0.5403,-0.5403,-0.5403,-0.5403,-0.5477,-0.5667,-0.5697,-0.5643,-0.5782,-0.5749,-0.5617,-0.5418,-0.5286,-0.509,-0.4824,-0.4564,-0.43,-0.4097,-0.4097,-0.4233,-0.4097,-0.4097,-0.4303,-0.4303,-0.4367,-0.4498,-0.4697,-0.496,-0.5223,-0.5422,-0.562,-0.5822,-0.6148,-0.6416,-0.6679,-0.7007,-0.7396,-0.7787,-0.8177,-0.8565,-0.9017,-0.9536,-1.0301,-1.0807,-1.1373,-1.1755,-1.2003,-1.2498,-1.2736,-1.3033,-1.3329,-1.3752,-1.4231,-1.4775,-1.5313,-1.5836,-1.6306,-1.6591,-1.6694,-1.6976,-1.7145,-1.7145,-1.72,-1.7211,-1.7267,-1.7211,-1.7267,-1.7222,-1.7088,-1.6786,-1.6425,-1.6363,-1.6134,-1.576,-1.5664,-1.5513,-1.527,-1.528,-1.5133,-1.5001,-1.4841,-1.4753,-1.4603,-1.4692,-1.4853,-1.4799,-1.4716,-1.4766,-1.4832,-1.4726,-1.4715,-1.4784,-1.4852,-1.4852,-1.4862,-1.4862,-1.4862,-1.4921,-1.497,-1.5029,-1.5088,-1.5137,-1.5254,-1.5391,-1.5614,-1.5846,-1.6077,-1.6249,-1.6306,-1.6374,-1.6431,-1.6431,-1.6488,-1.6602,-1.6761,-0.5428,-0.5428,-0.5428,-0.5428,-0.5425,-0.555,-0.5613,-0.555,-0.5613,-0.5617,-0.5488,-0.5286,-0.509,-0.4957,-0.4694,-0.4431,-0.43,-0.4097,-0.4097,-0.4233,-0.4097,-0.4097,-0.4233,-0.4303,-0.43,-0.4367,-0.4367,-0.4434,-0.4761,-0.4957,-0.509,-0.5425,-0.5693,-0.5954,-0.6214,-0.6613,-0.7007,-0.7396,-0.7852,-0.8177,-0.87,-0.9408,-1.0174,-1.0561,-1.1129,-1.1442,-1.1692,-1.2065,-1.2436,-1.2744,-1.3103,-1.3519,-1.3881,-1.424,-1.4656,-1.5186,-1.5836,-1.6134,-1.6363,-1.6591,-1.6761,-1.6807,-1.6807,-1.6818,-1.6818,-1.6874,-1.6885,-1.6906,-1.6782,-1.657,-1.6218,-1.6206,-1.6045,-1.5792,-1.5776,-1.5861,-1.5598,-1.544,-1.5433,-1.5269,-1.507,-1.4898,-1.4826,-1.4845,-1.5015,-1.498,-1.4908,-1.4869,-1.49,-1.4786,-1.4715,-1.4784,-1.4793,-1.4734,-1.4675,-1.4616,-1.4556,-1.4556,-1.4616,-1.4734,-1.4784,-1.4902,-1.5029,-1.5205,-1.5439,-1.572,-1.6009,-1.6249,-1.6306,-1.6374,-1.6374,-1.6431,-1.6488,-1.6534,-1.6637,-0.5428,-0.5428,-0.5428,-0.5428,-0.5425,-0.5554,-0.5554,-0.5425,-0.5554,-0.555,-0.5425,-0.5223,-0.5024,-0.4827,-0.4564,-0.4367,-0.4233,-0.4164,-0.4164,-0.43,-0.4164,-0.4164,-0.43,-0.4303,-0.4303,-0.4303,-0.4303,-0.4434,-0.4628,-0.4691,-0.4824,-0.5156,-0.5359,-0.5557,-0.5815,-0.6284,-0.6618,-0.7007,-0.7396,-0.8047,-0.8829,-0.9332,-0.9913,-1.0364,-1.0744,-1.1003,-1.1435,-1.1747,-1.1996,-1.256,-1.2744,-1.3103,-1.3511,-1.4001,-1.43,-1.4706,-1.5177,-1.571,-1.6056,-1.6306,-1.6477,-1.6581,-1.6694,-1.6761,-1.6694,-1.6694,-1.6705,-1.6637,-1.6566,-1.6368,-1.6151,-1.6098,-1.5937,-1.5888,-1.5879,-1.5888,-1.5725,-1.5798,-1.5776,-1.553,-1.542,-1.5248,-1.5129,-1.5133,-1.5136,-1.5149,-1.5151,-1.5114,-1.501,-1.4837,-1.4606,-1.4606,-1.4497,-1.4437,-1.4369,-1.4309,-1.4249,-1.4198,-1.4249,-1.4369,-1.4488,-1.4597,-1.4843,-1.502,-1.5313,-1.5546,-1.5788,-1.6019,-1.6306,-1.6374,-1.6374,-1.6374,-1.6374,-1.6477,-1.6581,-0.5428,-0.5428,-0.5428,-0.5428,-0.5428,-0.5491,-0.5425,-0.5428,-0.5425,-0.5425,-0.5359,-0.5223,-0.4957,-0.4764,-0.4631,-0.4564,-0.4564,-0.4428,-0.4428,-0.4434,-0.4298,-0.4298,-0.4431,-0.4367,-0.4303,-0.43,-0.4434,-0.4498,-0.4625,-0.4691,-0.4827,-0.496,-0.5229,-0.5491,-0.5617,-0.5954,-0.6288,-0.6679,-0.7199,-0.7917,-0.8571,-0.9087,-0.9466,-0.9983,-1.0371,-1.0751,-1.1122,-1.1498,-1.1747,-1.2189,-1.2436,-1.2797,-1.3155,-1.3519,-1.3932,-1.424,-1.4647,-1.5118,-1.5642,-1.5961,-1.6192,-1.6285,-1.6343,-1.6343,-1.64,-1.642,-1.6374,-1.6192,-1.6389,-1.6315,-1.6228,-1.6262,-1.6119,-1.6059,-1.6122,-1.6067,-1.6092,-1.6129,-1.6129,-1.5943,-1.566,-1.5462,-1.5316,-1.5325,-1.5349,-1.5414,-1.5304,-1.5123,-1.5041,-1.4888,-1.4625,-1.4437,-1.4198,-1.4019,-1.395,-1.3881,-1.3821,-1.3761,-1.3752,-1.3872,-1.4061,-1.424,-1.4478,-1.4725,-1.502,-1.5254,-1.5556,-1.5904,-1.6192,-1.6306,-1.6374,-1.6374,-1.6316,-1.6374,-1.6477,-0.5359,-0.5428,-0.5428,-0.5428,-0.5428,-0.5428,-0.5428,-0.5428,-0.5428,-0.5428,-0.5359,-0.5223,-0.5027,-0.4831,-0.4764,-0.4761,-0.4761,-0.4691,-0.4691,-0.4628,-0.4498,-0.4367,-0.4431,-0.4367,-0.4303,-0.4303,-0.4431,-0.4495,-0.4628,-0.4694,-0.4827,-0.4894,-0.5156,-0.5359,-0.5557,-0.5822,-0.6152,-0.6548,-0.7263,-0.7819,-0.8362,-0.8816,-0.9177,-0.9663,-1.0084,-1.0507,-1.0751,-1.1115,-1.1428,-1.1809,-1.2243,-1.2613,-1.2867,-1.3216,-1.3571,-1.3881,-1.4231,-1.4588,-1.5118,-1.5478,-1.5836,-1.5951,-1.6087,-1.6175,-1.627,-1.6229,-1.6283,-1.6326,-1.6477,-1.6455,-1.6266,-1.6505,-1.6434,-1.6365,-1.6383,-1.6407,-1.6401,-1.6342,-1.6165,-1.5887,-1.5687,-1.5387,-1.5354,-1.5492,-1.5553,-1.5643,-1.5462,-1.5198,-1.4917,-1.4678,-1.4421,-1.407,-1.389,-1.3649,-1.3528,-1.3459,-1.3398,-1.3338,-1.3329,-1.345,-1.364,-1.3821,-1.4001,-1.43,-1.4656,-1.4961,-1.5254,-1.572,-1.6066,-1.6134,-1.6202,-1.6259,-1.6259,-1.6316,-1.6384,-0.5223,-0.5428,-0.5428,-0.5428,-0.5428,-0.5428,-0.5428,-0.5428,-0.5428,-0.5428,-0.5359,-0.5223,-0.5024,-0.4897,-0.4897,-0.4831,-0.4827,-0.4691,-0.4691,-0.4628,-0.4431,-0.4364,-0.4367,-0.43,-0.4303,-0.43,-0.4364,-0.4495,-0.4561,-0.4761,-0.4894,-0.509,-0.5156,-0.5289,-0.5502,-0.5785,-0.6211,-0.6643,-0.7342,-0.7749,-0.821,-0.869,-0.9212,-0.9533,-0.982,-1.013,-1.0588,-1.0814,-1.1115,-1.156,-1.1996,-1.2367,-1.256,-1.2981,-1.3268,-1.3519,-1.3821,-1.4172,-1.4529,-1.5059,-1.5478,-1.5662,-1.5876,-1.6065,-1.6287,-1.6407,-1.6547,-1.6693,-1.6812,-1.6713,-1.6606,-1.6569,-1.6685,-1.6598,-1.6563,-1.6547,-1.6432,-1.6278,-1.6097,-1.5859,-1.5584,-1.5292,-1.507,-1.5141,-1.5292,-1.5296,-1.507,-1.475,-1.4311,-1.4047,-1.3891,-1.3631,-1.345,-1.3277,-1.3103,-1.3042,-1.292,-1.2911,-1.2911,-1.3094,-1.3277,-1.3459,-1.3519,-1.3941,-1.43,-1.4597,-1.4961,-1.5303,-1.5662,-1.5846,-1.5972,-1.6087,-1.6134,-1.6202,-1.6259,-0.5156,-0.5223,-0.5359,-0.5428,-0.5428,-0.5428,-0.5428,-0.5428,-0.5428,-0.5428,-0.5428,-0.5292,-0.5226,-0.5163,-0.516,-0.5163,-0.5163,-0.4957,-0.4891,-0.4824,-0.4694,-0.4431,-0.4367,-0.4233,-0.4233,-0.4164,-0.4298,-0.4495,-0.4625,-0.4694,-0.4827,-0.496,-0.5103,-0.5292,-0.5509,-0.5869,-0.6355,-0.6725,-0.7211,-0.7613,-0.8046,-0.8369,-0.8889,-0.93,-0.958,-0.9977,-1.0425,-1.0578,-1.0961,-1.1373,-1.1685,-1.1934,-1.2189,-1.2605,-1.2858,-1.3042,-1.3398,-1.3692,-1.3992,-1.4529,-1.5069,-1.5381,-1.5654,-1.5939,-1.6246,-1.6336,-1.6483,-1.6727,-1.6982,-1.6905,-1.6777,-1.6883,-1.6943,-1.6843,-1.6693,-1.6655,-1.6482,-1.6211,-1.5929,-1.5655,-1.53,-1.5015,-1.4792,-1.4713,-1.4864,-1.495,-1.4663,-1.4306,-1.3887,-1.358,-1.3459,-1.3268,-1.3086,-1.2911,-1.2805,-1.2621,-1.249,-1.249,-1.249,-1.2674,-1.2858,-1.2858,-1.3042,-1.3467,-1.3881,-1.4181,-1.4538,-1.4893,-1.5254,-1.5556,-1.5798,-1.5914,-1.5972,-1.6019,-1.6077,-0.4954,-0.5087,-0.5223,-0.5359,-0.5428,-0.5428,-0.5428,-0.5428,-0.5428,-0.5428,-0.5428,-0.5428,-0.5428,-0.5428,-0.5428,-0.5359,-0.5226,-0.509,-0.4957,-0.4761,-0.4495,-0.4361,-0.4231,-0.4097,-0.403,-0.4028,-0.4159,-0.4359,-0.4495,-0.4628,-0.473,-0.4889,-0.509,-0.5235,-0.5471,-0.5989,-0.6409,-0.6781,-0.7153,-0.7453,-0.7883,-0.825,-0.8514,-0.9045,-0.9394,-0.9746,-1.008,-1.0347,-1.0719,-1.1038,-1.1373,-1.156,-1.1802,-1.205,-1.2367,-1.2613,-1.292,-1.3216,-1.3511,-1.4112,-1.4715,-1.502,-1.5448,-1.5799,-1.6072,-1.6296,-1.665,-1.6944,-1.7158,-1.7149,-1.6949,-1.6989,-1.6964,-1.6738,-1.654,-1.6482,-1.6272,-1.6,-1.5718,-1.5443,-1.5078,-1.4721,-1.4505,-1.4322,-1.4277,-1.4409,-1.4386,-1.3972,-1.3538,-1.3224,-1.3103,-1.2972,-1.2789,-1.2613,-1.2436,-1.2382,-1.2259,-1.2251,-1.2313,-1.2313,-1.2436,-1.2436,-1.2621,-1.3042,-1.3398,-1.3761,-1.4061,-1.441,-1.4834,-1.5381,-1.5498,-1.5624,-1.5672,-1.5672,-1.572,-0.4628,-0.5087,-0.5087,-0.5223,-0.5362,-0.5428,-0.5428,-0.5362,-0.5359,-0.5359,-0.5362,-0.5362,-0.5362,-0.5362,-0.5296,-0.5226,-0.5093,-0.4894,-0.4697,-0.4431,-0.4164,-0.3959,-0.3825,-0.3825,-0.3761,-0.3825,-0.3892,-0.4028,-0.4298,-0.4325,-0.4509,-0.4795,-0.4963,-0.5196,-0.5322,-0.6008,-0.6444,-0.6698,-0.722,-0.7417,-0.7755,-0.823,-0.8565,-0.8851,-0.9186,-0.9547,-0.9816,-1.0257,-1.0574,-1.0826,-1.1163,-1.139,-1.1585,-1.1811,-1.2032,-1.2243,-1.253,-1.2776,-1.3066,-1.4019,-1.4492,-1.4731,-1.5157,-1.5695,-1.6097,-1.6476,-1.6883,-1.7216,-1.7319,-1.7316,-1.7148,-1.7019,-1.6821,-1.6612,-1.6412,-1.6202,-1.6,-1.5647,-1.5292,-1.515,-1.4784,-1.4497,-1.4209,-1.3988,-1.3839,-1.3876,-1.3996,-1.3664,-1.3108,-1.2858,-1.2736,-1.2613,-1.2421,-1.2297,-1.2182,-1.2143,-1.2081,-1.2073,-1.2065,-1.2065,-1.2189,-1.2243,-1.2428,-1.2674,-1.2981,-1.3338,-1.358,-1.3812,-1.43,-1.4784,-1.5088,-1.5205,-1.5264,-1.5254,-1.5303,-0.4434,-0.4564,-0.4827,-0.496,-0.503,-0.5296,-0.5428,-0.5359,-0.5289,-0.516,-0.503,-0.503,-0.503,-0.503,-0.503,-0.496,-0.4894,-0.4564,-0.4367,-0.4233,-0.3897,-0.356,-0.3424,-0.3424,-0.3426,-0.3426,-0.3493,-0.3694,-0.3961,-0.4019,-0.4074,-0.4279,-0.4706,-0.5146,-0.552,-0.6019,-0.6286,-0.6765,-0.7143,-0.7403,-0.7711,-0.8062,-0.8443,-0.8656,-0.9069,-0.9414,-0.9645,-1.0071,-1.0393,-1.0616,-1.0983,-1.1193,-1.1379,-1.1595,-1.1768,-1.1892,-1.2092,-1.2711,-1.3163,-1.3853,-1.4169,-1.4417,-1.4928,-1.5475,-1.5854,-1.6459,-1.6949,-1.7279,-1.7176,-1.7047,-1.6968,-1.6682,-1.6403,-1.6272,-1.6061,-1.585,-1.5647,-1.5141,-1.4856,-1.4713,-1.4489,-1.4209,-1.3928,-1.3818,-1.3648,-1.3446,-1.3543,-1.3168,-1.2625,-1.2414,-1.2305,-1.2243,-1.212,-1.1988,-1.1934,-1.1887,-1.1824,-1.1817,-1.1809,-1.1809,-1.1934,-1.2058,-1.2243,-1.2428,-1.2674,-1.2972,-1.3277,-1.358,-1.3821,-1.4189,-1.4428,-1.4666,-1.4775,-1.4775,-1.4765,-0.41,-0.43,-0.4564,-0.4697,-0.4831,-0.5093,-0.5163,-0.5163,-0.5024,-0.4894,-0.4827,-0.4827,-0.4827,-0.4827,-0.4761,-0.4697,-0.4631,-0.4434,-0.3966,-0.3966,-0.3565,-0.3293,-0.3092,-0.3025,-0.3023,-0.3092,-0.3159,-0.336,-0.3565,-0.3659,-0.389,-0.414,-0.4415,-0.4857,-0.5336,-0.5812,-0.6294,-0.667,-0.7003,-0.7318,-0.7553,-0.7872,-0.8255,-0.8514,-0.8886,-0.9285,-0.9623,-0.9927,-1.0207,-1.0514,-1.0723,-1.094,-1.1127,-1.1296,-1.1491,-1.1556,-1.1913,-1.2525,-1.3126,-1.3394,-1.3664,-1.4004,-1.4727,-1.5349,-1.5713,-1.6254,-1.6665,-1.6835,-1.6751,-1.67,-1.6551,-1.6202,-1.5991,-1.585,-1.5638,-1.5434,-1.5141,-1.4713,-1.4497,-1.4425,-1.4209,-1.3928,-1.3783,-1.3658,-1.3554,-1.3371,-1.311,-1.2727,-1.2299,-1.221,-1.2034,-1.1934,-1.1872,-1.1872,-1.1747,-1.1685,-1.1692,-1.1622,-1.1622,-1.1622,-1.1677,-1.1864,-1.205,-1.2243,-1.2421,-1.2666,-1.3033,-1.3338,-1.3467,-1.3588,-1.37,-1.4001,-1.4231,-1.4291,-1.4291,-0.3832,-0.4233,-0.43,-0.4431,-0.4697,-0.4761,-0.4761,-0.4764,-0.4764,-0.4761,-0.4764,-0.4694,-0.4628,-0.4697,-0.4694,-0.4564,-0.43,-0.4233,-0.3832,-0.3429,-0.3226,-0.2956,-0.2822,-0.2688,-0.2688,-0.2688,-0.2757,-0.2969,-0.3175,-0.3371,-0.3638,-0.3977,-0.4229,-0.4503,-0.4902,-0.5523,-0.5999,-0.6405,-0.6795,-0.7103,-0.7334,-0.7795,-0.8102,-0.8389,-0.8746,-0.9035,-0.939,-0.9661,-0.9901,-1.016,-1.0329,-1.0578,-1.0767,-1.0962,-1.1168,-1.1354,-1.1696,-1.2255,-1.2818,-1.3014,-1.3473,-1.3923,-1.4715,-1.5299,-1.5724,-1.5987,-1.6287,-1.6367,-1.6263,-1.6202,-1.6061,-1.578,-1.5497,-1.5284,-1.5078,-1.4864,-1.4641,-1.4425,-1.4289,-1.4145,-1.3928,-1.371,-1.3637,-1.3528,-1.3476,-1.3307,-1.3134,-1.2922,-1.2512,-1.2198,-1.2014,-1.1809,-1.1747,-1.1747,-1.1685,-1.1622,-1.1622,-1.1622,-1.1622,-1.1622,-1.1677,-1.1677,-1.1864,-1.1988,-1.2182,-1.2428,-1.2797,-1.2981,-1.3042,-1.3164,-1.3277,-1.3459,-1.3761,-1.3821,-1.3838,-0.3567,-0.3766,-0.3894,-0.4025,-0.4095,-0.4095,-0.4228,-0.4434,-0.4434,-0.4364,-0.4092,-0.4095,-0.4161,-0.4092,-0.4092,-0.4025,-0.3961,-0.3763,-0.3496,-0.3228,-0.2958,-0.2688,-0.2555,-0.2421,-0.2421,-0.2488,-0.2493,-0.2649,-0.2927,-0.3026,-0.3145,-0.3411,-0.3824,-0.3995,-0.4387,-0.4932,-0.5476,-0.6018,-0.6483,-0.6872,-0.7257,-0.7795,-0.8025,-0.8255,-0.8641,-0.8954,-0.915,-0.9569,-0.9791,-0.9928,-1.0284,-1.0536,-1.0539,-1.09,-1.1203,-1.1397,-1.166,-1.1954,-1.2473,-1.2785,-1.3162,-1.3753,-1.4324,-1.4686,-1.5135,-1.5523,-1.5842,-1.5771,-1.57,-1.5638,-1.5488,-1.5284,-1.507,-1.4856,-1.4649,-1.4497,-1.4281,-1.4137,-1.4,-1.3928,-1.3717,-1.3637,-1.3492,-1.3484,-1.3426,-1.3316,-1.3155,-1.2998,-1.272,-1.2327,-1.2022,-1.1811,-1.1685,-1.1685,-1.1622,-1.1622,-1.1622,-1.1622,-1.1622,-1.1622,-1.1622,-1.1677,-1.1677,-1.1864,-1.212,-1.2367,-1.2621,-1.2744,-1.2867,-1.292,-1.3033,-1.3094,-1.3224,-1.3346,-1.3415,-0.3295,-0.3364,-0.3493,-0.3692,-0.3825,-0.3825,-0.3828,-0.3897,-0.403,-0.3961,-0.3825,-0.3825,-0.3825,-0.3825,-0.3825,-0.3758,-0.3694,-0.3496,-0.3228,-0.2958,-0.269,-0.2488,-0.2356,-0.2288,-0.2288,-0.2288,-0.2366,-0.2455,-0.2686,-0.2948,-0.3062,-0.3207,-0.353,-0.3606,-0.3917,-0.4384,-0.4927,-0.555,-0.6093,-0.6714,-0.7176,-0.7714,-0.8025,-0.8178,-0.8637,-0.887,-0.9027,-0.9473,-0.9544,-0.9695,-0.9997,-1.0162,-1.0234,-1.0656,-1.0926,-1.1168,-1.1313,-1.1597,-1.2058,-1.2383,-1.2931,-1.3404,-1.3622,-1.3958,-1.4395,-1.4885,-1.5108,-1.5204,-1.5141,-1.4999,-1.4927,-1.4784,-1.4569,-1.4425,-1.4281,-1.4137,-1.3928,-1.3783,-1.371,-1.3645,-1.3572,-1.3564,-1.3492,-1.3492,-1.3477,-1.3418,-1.3323,-1.3155,-1.2775,-1.2365,-1.2093,-1.1917,-1.174,-1.1622,-1.1622,-1.1622,-1.1622,-1.1622,-1.1622,-1.1622,-1.1622,-1.1622,-1.1677,-1.1872,-1.212,-1.2313,-1.256,-1.2621,-1.2744,-1.2797,-1.2789,-1.2858,-1.292,-1.3042,-1.3119,-0.2889,-0.3159,-0.3159,-0.336,-0.3692,-0.3692,-0.3491,-0.3226,-0.3558,-0.3692,-0.3692,-0.3692,-0.3625,-0.3558,-0.3558,-0.3493,-0.336,-0.3159,-0.2958,-0.2686,-0.2555,-0.2356,-0.2288,-0.2221,-0.2221,-0.2223,-0.2244,-0.2356,-0.257,-0.2753,-0.2932,-0.3059,-0.3294,-0.3448,-0.3526,-0.4073,-0.454,-0.5007,-0.5783,-0.6556,-0.7019,-0.7561,-0.8102,-0.8178,-0.8479,-0.8784,-0.8946,-0.9027,-0.9103,-0.9327,-0.9468,-0.9685,-0.9981,-1.0201,-1.0496,-1.0714,-1.0902,-1.1199,-1.1483,-1.1835,-1.2211,-1.2599,-1.2826,-1.3164,-1.365,-1.4299,-1.4561,-1.4705,-1.4633,-1.4569,-1.4497,-1.4353,-1.4209,-1.4072,-1.4,-1.3855,-1.3783,-1.3637,-1.3564,-1.3564,-1.3564,-1.3492,-1.3492,-1.3492,-1.3492,-1.3484,-1.344,-1.3309,-1.3053,-1.2562,-1.2255,-1.205,-1.1853,-1.1684,-1.1622,-1.1622,-1.1622,-1.1622,-1.1622,-1.1622,-1.1622,-1.1622,-1.174,-1.1934,-1.212,-1.2313,-1.2498,-1.256,-1.2621,-1.2621,-1.2683,-1.2621,-1.2683,-1.2805,-1.2875,-0.2753,-0.2822,-0.2822,-0.2887,-0.2954,-0.2954,-0.2954,-0.2822,-0.2887,-0.2954,-0.2954,-0.2954,-0.3021,-0.3021,-0.3088,-0.3023,-0.2956,-0.2889,-0.2688,-0.2555,-0.2423,-0.2288,-0.2221,-0.2221,-0.2223,-0.217,-0.2204,-0.2275,-0.2432,-0.2591,-0.2646,-0.2665,-0.2901,-0.3137,-0.3294,-0.3763,-0.4231,-0.4698,-0.5395,-0.617,-0.671,-0.7403,-0.794,-0.8174,-0.8484,-0.8708,-0.8865,-0.8946,-0.9022,-0.9099,-0.9246,-0.9473,-0.97,-0.9771,-0.9992,-1.0293,-1.0438,-1.0663,-1.0962,-1.126,-1.1558,-1.1855,-1.2157,-1.2452,-1.2966,-1.3637,-1.4,-1.4137,-1.4201,-1.4137,-1.4137,-1.3928,-1.3855,-1.3783,-1.371,-1.3637,-1.3564,-1.3564,-1.3492,-1.3492,-1.3492,-1.3492,-1.3492,-1.3492,-1.3492,-1.3492,-1.3484,-1.3418,-1.3323,-1.298,-1.2473,-1.224,-1.1992,-1.1875,-1.1684,-1.1622,-1.1622,-1.1622,-1.1622,-1.1622,-1.1622,-1.1622,-1.1685,-1.1934,-1.2127,-1.2313,-1.2436,-1.256,-1.2621,-1.2621,-1.2621,-1.2621,-1.2621,-1.2683,-1.2683,-0.2487,-0.2554,-0.2686,-0.2686,-0.2686,-0.2686,-0.2621,-0.2554,-0.2554,-0.2554,-0.2487,-0.2619,-0.2686,-0.2686,-0.2686,-0.2686,-0.2619,-0.2554,-0.2555,-0.2423,-0.2356,-0.2288,-0.2221,-0.2223,-0.2181,-0.2202,-0.2285,-0.2365,-0.2426,-0.2474,-0.2507,-0.2588,-0.2746,-0.2982,-0.3219,-0.3608,-0.4155,-0.4543,-0.5162,-0.5783,-0.6479,-0.7246,-0.7863,-0.8174,-0.8403,-0.8627,-0.8703,-0.8789,-0.8865,-0.8946,-0.9094,-0.917,-0.9322,-0.9473,-0.962,-0.9771,-0.9922,-1.0067,-1.0368,-1.0663,-1.0887,-1.126,-1.1484,-1.1781,-1.215,-1.2746,-1.3119,-1.3258,-1.363,-1.363,-1.371,-1.3564,-1.3637,-1.3637,-1.3564,-1.3564,-1.3492,-1.3492,-1.3492,-1.3492,-1.3492,-1.3492,-1.3492,-1.3492,-1.3492,-1.3492,-1.3492,-1.3492,-1.3411,-1.3259,-1.2844,-1.2405,-1.2152,-1.1876,-1.1641,-1.1622,-1.1622,-1.1622,-1.156,-1.1622,-1.1622,-1.1622,-1.1692,-1.1941,-1.2127,-1.2305,-1.2436,-1.2498,-1.2621,-1.2621,-1.2621,-1.2621,-1.2621,-1.2621,-1.2621,-0.2288,-0.2423,-0.2554,-0.2619,-0.2619,-0.2619,-0.2554,-0.2423,-0.2356,-0.2356,-0.2288,-0.2487,-0.2619,-0.2619,-0.2619,-0.2619,-0.2552,-0.2421,-0.2356,-0.2356,-0.2221,-0.2221,-0.2221,-0.2224,-0.2196,-0.2267,-0.2352,-0.2399,-0.252,-0.2564,-0.2588,-0.2668,-0.2824,-0.3139,-0.3295,-0.3686,-0.4153,-0.4462,-0.5004,-0.5625,-0.6395,-0.7165,-0.771,-0.8174,-0.8479,-0.8703,-0.8703,-0.8703,-0.8703,-0.8784,-0.8861,-0.8941,-0.9018,-0.9094,-0.9246,-0.9322,-0.9473,-0.962,-0.9841,-1.0067,-1.0363,-1.0663,-1.0887,-1.1186,-1.1558,-1.1855,-1.2224,-1.2526,-1.2893,-1.3119,-1.32,-1.3353,-1.3426,-1.3419,-1.3419,-1.3492,-1.3492,-1.3492,-1.3492,-1.3492,-1.3492,-1.3492,-1.3492,-1.3492,-1.3492,-1.3492,-1.3419,-1.3419,-1.3397,-1.3172,-1.2878,-1.2436,-1.2062,-1.184,-1.1587,-1.1498,-1.1435,-1.1435,-1.1435,-1.1498,-1.1622,-1.1622,-1.1685,-1.1934,-1.212,-1.2182,-1.2367,-1.2498,-1.2498,-1.256,-1.2621,-1.2621,-1.2621,-1.2621,-1.2621,-0.2221,-0.2221,-0.2288,-0.2287,-0.2287,-0.2287,-0.2288,-0.2221,-0.2221,-0.2221,-0.2221,-0.2221,-0.2287,-0.2288,-0.2287,-0.2287,-0.2354,-0.2288,-0.2221,-0.2221,-0.2221,-0.2221,-0.223,-0.2181,-0.2229,-0.2305,-0.2387,-0.2516,-0.2623,-0.273,-0.2824,-0.2982,-0.2982,-0.3217,-0.3448,-0.3761,-0.3917,-0.4384,-0.4849,-0.5467,-0.624,-0.7015,-0.7638,-0.8097,-0.8479,-0.8627,-0.8703,-0.8703,-0.8703,-0.8703,-0.8708,-0.8784,-0.8784,-0.8861,-0.8941,-0.9018,-0.917,-0.9246,-0.9468,-0.9695,-0.9992,-1.0067,-1.0368,-1.0663,-1.0962,-1.1186,-1.1484,-1.1781,-1.2077,-1.2599,-1.2753,-1.3155,-1.3309,-1.3207,-1.3119,-1.3266,-1.3419,-1.3419,-1.3419,-1.3419,-1.3419,-1.3419,-1.3419,-1.3419,-1.3346,-1.3346,-1.3193,-1.3193,-1.3046,-1.299,-1.286,-1.2395,-1.1978,-1.1741,-1.1544,-1.1262,-1.1185,-1.1247,-1.131,-1.1435,-1.1498,-1.156,-1.1685,-1.1872,-1.1934,-1.1988,-1.2182,-1.2375,-1.2436,-1.2498,-1.256,-1.2621,-1.2621,-1.2621,-1.2621]},{"header":{"parameterUnit":"m.s-1","parameterCategory":1,"la1":31.0,"la2":29.5877,"lo1":-88.7671,"lo2":-86.6584,"dy":0.0162,"dx":0.0185,"nx":115,"ny":88,"refTime":"2023-05-16T06:00:00:Z","depth":0,"parameterNumber":3,"parameterNumberName":"V-component_of_WINDS"},"data":[0.0,0.0,0.0,0.0,0.0,0.0,0.0,0.0,0.0,0.0,0.0,0.0,0.0,0.0,0.0,0.0,0.0,0.0,0.0,0.0,0.0,0.0,0.0,0.0,0.0,0.0,0.0,0.0,0.0,0.0,0.0,0.0,0.0,0.0,0.0,0.0,0.0,0.0,0.0,0.0,0.0,0.0,0.0,0.0,0.0,0.0,0.0,0.0,0.0,0.0,0.0,0.0,0.0,0.0,0.0,0.0,0.0,0.0,0.0,0.0,0.0,0.0,0.0,0.0,0.0,0.0,0.0,0.0,0.0,0.0,0.0,0.0,0.0,0.0,0.0,0.0,0.0,0.0,0.0,0.0,0.0,0.0,0.0,0.0,0.0,0.0,0.0,0.0,0.0,0.0,0.0,0.0,0.0,0.0,0.0,0.0,0.0,0.0,0.0,0.0,0.0,0.0,0.0,0.0,0.0,0.0,0.0,0.0,0.0,0.0,0.0,0.0,0.0,0.0,0.0,0.0,0.0,0.0,0.0,0.0,0.0,0.0,0.0,0.0,0.0,0.0,0.0,0.0,0.0,0.0,0.0,0.0,0.0,0.0,0.0,0.0,0.0,0.0,0.0,0.0,0.0,0.0,0.0,0.0,0.0,0.0,0.0,0.0,0.0,0.0,0.0,0.0,0.0,0.0,0.0,0.0,0.0,0.0,0.0,0.0,0.0,0.0,0.0,0.0,0.0,0.0,0.0,0.0,0.0,0.0,0.0,0.0,0.0,0.0,0.0,0.0,0.0,0.0,0.0,0.0,0.0,0.0,0.0,0.0,0.0,0.0,0.0,0.0,0.0,0.0,0.0,0.0,0.0,0.0,0.0,0.0,0.0,0.0,0.0,0.0,0.0,0.0,0.0,0.0,0.0,0.0,0.0,0.0,0.0,0.0,0.0,0.0,0.0,0.0,0.0,0.0,0.0,0.0,0.0,0.0,0.0,0.0,0.0,0.0,0.0,0.0,0.0,0.0,0.0,0.0,0.0,0.0,0.0,0.0,0.0,0.0,0.0,0.0,0.0,0.0,0.0,0.0,0.0,0.0,0.0,0.0,0.0,0.0,0.0,0.0,0.0,0.0,0.0,0.0,0.0,0.0,0.0,0.0,0.0,0.0,0.0,0.0,0.0,0.0,0.0,0.0,0.0,0.0,0.0,0.0,0.0,0.0,0.0,0.0,0.0,0.0,0.0,0.0,0.0,0.0,0.0,0.0,0.0,0.0,0.0,0.0,0.0,0.0,0.0,0.0,0.0,0.0,0.0,0.0,0.0,0.0,0.0,0.0,0.0,0.0,0.0,0.0,0.0,0.0,0.0,0.0,0.0,0.0,0.0,0.0,0.0,0.0,0.0,0.0,0.0,0.0,0.0,0.0,0.0,0.0,0.0,0.0,0.0,0.0,0.0,0.0,0.0,0.0,0.0,0.0,0.0,0.0,0.0,0.0,0.0,0.0,0.0,0.0,0.0,0.0,0.0,0.0,0.0,0.0,0.0,0.0,0.0,0.0,0.0,0.0,0.0,0.0,0.0,0.0,0.0,0.0,0.0,0.0,0.0,0.0,0.0,0.0,0.0,0.0,0.0,0.0,0.0,0.0,0.0,0.0,0.0,0.0,0.0,0.0,0.0,0.0,0.0,0.0,0.0,0.0,0.0,0.0,0.0,0.0,0.0,0.0,0.0,0.0,0.0,0.0,0.0,0.0,0.0,0.0,0.0,0.0,0.0,0.0,0.0,0.0,0.0,0.0,0.0,0.0,0.0,0.0,0.0,0.0,0.0,0.0,0.0,0.0,0.0,0.0,0.0,0.0,0.0,0.0,0.0,0.0,0.0,0.0,0.0,0.0,0.0,0.0,0.0,0.0,0.0,0.0,0.0,0.0,0.0,0.0,0.0,0.0,0.0,0.0,0.0,0.0,0.0,0.0,0.0,0.0,0.0,0.0,0.0,0.0,0.0,0.0,0.0,0.0,0.0,0.0,0.0,0.0,0.0,0.0,0.0,0.0,0.0,0.0,0.0,0.0,0.0,0.0,0.0,0.0,0.0,0.0,0.0,0.0,0.0,0.0,0.0,0.0,0.0,0.0,0.0,0.0,0.0,0.0,0.0,0.0,0.0,0.0,0.0,0.0,0.0,0.0,0.0,0.0,0.0,0.0,0.0,0.0,0.0,0.0,0.0,0.0,0.0,0.0,0.0,0.0,0.0,0.0,0.0,0.0,0.0,0.0,0.0,0.0,0.0,0.0,0.0,0.0,0.0,0.0,0.0,0.0,0.0,0.0,0.0,0.0,0.0,0.0,0.0,0.0,0.0,0.0,0.0,0.0,0.0,0.0,0.0,0.0,0.0,0.0,0.0,0.0,0.0,0.0,0.0,0.0,0.0,0.0,0.0,0.0,0.0,0.0,0.0,0.0,0.0,0.0,0.0,0.0,0.0,0.0,0.0,0.0,0.0,0.0,0.0,0.0,0.0,0.0,0.0,0.0,0.0,0.0,0.0,0.0,0.0,0.0,0.0,0.0,0.0,0.0,0.0,0.0,0.0,0.0,0.0,0.0,0.0,0.0,0.0,0.0,0.0,0.0,0.0,0.0,0.0,0.0,0.0,0.0,0.0,0.0,0.0,0.0,0.0,0.0,0.0,0.0,0.0,0.0,0.0,0.0,0.0,0.0,0.0,0.0,0.0,0.0,0.0,0.0,0.0,0.0,0.0,0.0,0.0,0.0,0.0,0.0,0.0,0.0,0.0,0.0,0.0,0.0,0.0,0.0,0.0,0.0,0.0,0.0,0.0,0.0,0.0,0.0,0.0,0.0,0.0,0.0,0.0,0.0,0.0,0.0,0.0,0.0,0.0,0.0,0.0,0.0,0.0,0.0,0.0,0.0,0.0,0.0,0.0,0.0,0.0,0.0,0.0,0.0,0.0,0.0,0.0,0.0,0.0,0.0,0.0,0.0,0.0,0.0,0.0,0.0,0.0,0.0,0.0,0.0,0.0,0.0,0.0,0.0,0.0,0.0,0.0,0.0,0.0,0.0,0.0,0.0,0.0,0.0,0.0,0.0,0.0,0.0,0.0,0.0,0.0,0.0,0.0,0.0,0.0,0.0,0.0,0.0,0.0,0.0,0.0,0.0,0.0,0.0,0.0,0.0,0.0,0.0,0.0,0.0,0.0,0.0,0.0,0.0,0.0,0.0,0.0,0.0,0.0,0.0,0.0,0.0,0.0,0.0,0.0,0.0,0.0,0.0,0.0,0.0,0.0,0.0,0.0,0.0,0.0,0.0,0.0,0.0,0.0,0.0,0.0,0.0,0.0,0.0,0.0,0.0,0.0,0.0,0.0,0.0,0.0,0.0,0.0,0.0,0.0,0.0,0.0,0.0,0.0,0.0,0.0,0.0,0.0,0.0,0.0,0.0,0.0,0.0,0.0,0.0,0.0,0.0,0.0,0.0,0.0,0.0,0.0,0.0,0.0,0.0,0.0,0.0,0.0,0.0,0.0,0.0,0.0,0.0,0.0,0.0,0.0,0.0,0.0,0.0,0.0,0.0,0.0,0.0,0.0,0.0,0.0,0.0,0.0,0.0,0.0,0.0,0.0,0.0,0.0,0.0,0.0,0.0,0.0,0.0,0.0,0.0,0.0,0.0,0.0,0.0,0.0,0.0,0.0,0.0,0.0,0.0,0.0,0.0,0.0,0.0,0.0,0.0,0.0,0.0,0.0,0.0,0.0,0.0,0.0,0.0,0.0,0.0,0.0,0.0,0.0,0.0,0.0,0.0,0.0,0.0,0.0,0.0,0.0,0.0,0.0,0.0,0.0,0.0,0.0,0.0,0.0,0.0,0.0,0.0,0.0,0.0,0.0,0.0,0.0,0.0,0.0,0.0,0.0,0.0,0.0,0.0,0.0,0.0,0.0,0.0,0.0,0.0,0.0,0.0,0.0,0.0,0.0,0.0,0.0,0.0,0.0,0.0,0.0,0.0,0.0,0.0,0.0,0.0,0.0,0.0,0.0,0.0,0.0,0.0,0.0,0.0,0.0,0.0,0.0,0.0,0.0,0.0,0.0,0.0,0.0,0.0,0.0,0.0,0.0,0.0,0.0,0.0,0.0,0.0,0.0,0.0,0.0,0.0,0.0,0.0,0.0,0.0,0.0,0.0,0.0,0.0,0.0,0.0,0.0,0.0,0.0,0.0,0.0,0.0,0.0,0.0,0.0,0.0,0.0,0.0,0.0,0.0,0.0,0.0,-2.0583,0.0,0.0,0.0,0.0,0.0,0.0,0.0,0.0,0.0,0.0,0.0,0.0,0.0,0.0,0.0,0.0,0.0,0.0,0.0,0.0,0.0,0.0,0.0,0.0,0.0,0.0,0.0,0.0,0.0,0.0,0.0,0.0,0.0,0.0,0.0,0.0,0.0,0.0,0.0,0.0,0.0,0.0,0.0,0.0,0.0,0.0,0.0,0.0,0.0,0.0,0.0,0.0,0.0,0.0,0.0,0.0,0.0,0.0,0.0,0.0,0.0,0.0,0.0,0.0,0.0,0.0,0.0,0.0,0.0,0.0,0.0,0.0,0.0,0.0,0.0,0.0,0.0,0.0,0.0,0.0,0.0,0.0,0.0,0.0,0.0,0.0,0.0,0.0,0.0,0.0,0.0,0.0,0.0,0.0,0.0,0.0,0.0,0.0,0.0,0.0,0.0,0.0,0.0,0.0,0.0,0.0,0.0,0.0,0.0,0.0,-2.0503,-2.0515,-2.0506,-2.0506,-2.0547,0.0,0.0,0.0,0.0,0.0,0.0,0.0,0.0,0.0,0.0,0.0,0.0,0.0,0.0,0.0,0.0,0.0,0.0,0.0,0.0,0.0,0.0,0.0,0.0,0.0,0.0,0.0,0.0,0.0,0.0,0.0,0.0,0.0,0.0,0.0,0.0,0.0,0.0,0.0,0.0,0.0,0.0,0.0,0.0,0.0,0.0,0.0,0.0,0.0,0.0,0.0,0.0,0.0,0.0,0.0,0.0,0.0,0.0,0.0,0.0,0.0,0.0,0.0,0.0,0.0,0.0,0.0,0.0,0.0,0.0,0.0,0.0,0.0,0.0,0.0,0.0,0.0,0.0,0.0,0.0,0.0,0.0,0.0,0.0,0.0,0.0,0.0,0.0,0.0,0.0,0.0,0.0,0.0,0.0,0.0,0.0,0.0,0.0,0.0,0.0,0.0,0.0,0.0,0.0,0.0,0.0,0.0,0.0,0.0,0.0,0.0,0.0,-2.0463,-2.0472,-2.0509,0.0,0.0,0.0,0.0,0.0,0.0,0.0,0.0,0.0,0.0,0.0,0.0,0.0,0.0,0.0,0.0,0.0,0.0,0.0,0.0,0.0,0.0,0.0,0.0,0.0,0.0,0.0,0.0,0.0,0.0,0.0,0.0,0.0,0.0,0.0,0.0,0.0,0.0,0.0,0.0,0.0,0.0,0.0,0.0,0.0,0.0,0.0,0.0,0.0,0.0,0.0,0.0,0.0,0.0,0.0,0.0,0.0,0.0,0.0,0.0,0.0,0.0,0.0,0.0,0.0,0.0,0.0,0.0,0.0,0.0,0.0,0.0,0.0,0.0,0.0,0.0,0.0,0.0,0.0,0.0,0.0,0.0,0.0,0.0,0.0,0.0,0.0,0.0,0.0,0.0,0.0,0.0,0.0,0.0,0.0,0.0,0.0,0.0,0.0,0.0,0.0,0.0,0.0,0.0,0.0,0.0,0.0,0.0,0.0,0.0,-2.0328,-2.0314,-2.0371,0.0,-2.0497,0.0,0.0,0.0,0.0,0.0,0.0,0.0,0.0,0.0,0.0,0.0,0.0,0.0,0.0,0.0,0.0,0.0,0.0,0.0,0.0,0.0,0.0,0.0,0.0,0.0,0.0,0.0,0.0,0.0,0.0,0.0,0.0,0.0,0.0,0.0,0.0,0.0,0.0,0.0,0.0,0.0,0.0,0.0,0.0,0.0,0.0,0.0,0.0,0.0,0.0,0.0,0.0,0.0,0.0,0.0,0.0,0.0,0.0,0.0,0.0,0.0,0.0,0.0,0.0,0.0,0.0,0.0,0.0,0.0,0.0,0.0,0.0,0.0,0.0,0.0,0.0,0.0,0.0,0.0,0.0,0.0,0.0,0.0,0.0,0.0,0.0,0.0,0.0,0.0,0.0,0.0,0.0,0.0,0.0,0.0,0.0,0.0,0.0,0.0,0.0,0.0,0.0,0.0,0.0,0.0,0.0,0.0,0.0,0.0,0.0,-1.4031,-1.651,-1.9005,-2.0363,0.0,0.0,0.0,0.0,0.0,0.0,0.0,0.0,0.0,0.0,0.0,0.0,0.0,0.0,0.0,0.0,0.0,0.0,0.0,0.0,0.0,0.0,0.0,0.0,0.0,0.0,0.0,0.0,0.0,0.0,0.0,0.0,0.0,0.0,0.0,0.0,0.0,0.0,0.0,0.0,0.0,0.0,0.0,0.0,0.0,0.0,0.0,0.0,0.0,0.0,0.0,0.0,0.0,0.0,0.0,0.0,0.0,0.0,0.0,0.0,0.0,0.0,0.0,0.0,0.0,0.0,0.0,0.0,0.0,0.0,0.0,0.0,0.0,0.0,0.0,0.0,0.0,0.0,0.0,0.0,0.0,0.0,0.0,0.0,0.0,0.0,0.0,0.0,0.0,0.0,0.0,0.0,0.0,0.0,0.0,0.0,0.0,0.0,0.0,0.0,0.0,0.0,0.0,0.0,0.0,0.0,0.0,0.0,0.0,0.0,-0.7012,-0.9644,-1.3871,-1.8065,-2.0295,-2.0385,0.0,0.0,0.0,0.0,0.0,0.0,0.0,0.0,0.0,0.0,0.0,0.0,0.0,0.0,0.0,0.0,0.0,0.0,0.0,0.0,0.0,0.0,0.0,0.0,0.0,0.0,0.0,0.0,0.0,0.0,0.0,0.0,0.0,0.0,0.0,0.0,0.0,0.0,0.0,0.0,0.0,0.0,0.0,0.0,0.0,0.0,0.0,0.0,0.0,0.0,0.0,0.0,0.0,0.0,0.0,0.0,0.0,0.0,0.0,0.0,0.0,0.0,0.0,0.0,0.0,0.0,0.0,0.0,0.0,0.0,0.0,0.0,0.0,0.0,0.0,0.0,0.0,0.0,0.0,0.0,0.0,0.0,0.0,0.0,0.0,0.0,0.0,0.0,0.0,0.0,0.0,0.0,0.0,0.0,0.0,0.0,0.0,0.0,0.0,0.0,0.0,0.0,0.0,0.0,0.0,0.0,0.0,0.0,-0.148,-0.5268,-0.9452,-1.3681,-1.7978,-2.0219,0.0,0.0,0.0,0.0,0.0,0.0,0.0,0.0,0.0,0.0,0.0,0.0,0.0,0.0,0.0,0.0,0.0,0.0,0.0,0.0,0.0,0.0,0.0,0.0,0.0,0.0,0.0,0.0,0.0,0.0,0.0,0.0,0.0,0.0,0.0,0.0,0.0,0.0,0.0,0.0,0.0,0.0,0.0,0.0,0.0,0.0,0.0,0.0,0.0,0.0,0.0,0.0,0.0,0.0,0.0,0.0,0.0,0.0,0.0,0.0,0.0,0.0,0.0,0.0,0.0,0.0,0.0,0.0,0.0,0.0,0.0,0.0,0.0,0.0,0.0,0.0,0.0,0.0,0.0,0.0,0.0,0.0,0.0,0.0,0.0,0.0,0.0,0.0,0.0,0.0,0.0,0.0,0.0,0.0,0.0,0.0,0.0,0.0,0.0,0.0,0.0,0.0,0.0,0.0,0.0,0.0,0.0,0.0,0.0,0.3066,-0.0937,-0.5269,-0.9621,-1.3818,-1.7362,0.0,0.0,0.0,0.0,0.0,0.0,0.0,0.0,0.0,0.0,0.0,0.0,0.0,0.0,0.0,0.0,0.0,0.0,0.0,0.0,0.0,0.0,0.0,0.0,0.0,0.0,0.0,0.0,0.0,0.0,0.0,0.0,0.0,0.0,0.0,0.0,0.0,0.0,0.0,0.0,0.0,0.0,0.0,0.0,0.0,0.0,0.0,0.0,0.0,0.0,0.0,0.0,0.0,0.0,0.0,0.0,0.0,0.0,0.0,0.0,0.0,0.0,0.0,0.0,0.0,0.0,0.0,0.0,0.0,0.0,0.0,0.0,0.0,0.0,0.0,0.0,0.0,0.0,0.0,0.0,0.0,0.0,0.0,0.0,0.0,0.0,0.0,0.0,0.0,0.0,0.0,0.0,0.0,0.0,0.0,0.0,0.0,0.0,0.0,0.0,0.0,0.0,0.0,0.0,0.0,0.0,0.0,0.0,0.0,0.5642,0.0,-0.2837,-0.7202,-1.1448,-1.5702,0.0,0.0,0.0,0.0,0.0,0.0,0.0,0.0,0.0,0.0,0.0,0.0,0.0,0.0,0.0,0.0,0.0,0.0,0.0,0.0,0.0,0.0,0.0,0.0,0.0,0.0,0.0,0.0,0.0,0.0,0.0,0.0,0.0,0.0,0.0,0.0,0.0,0.0,0.0,0.0,0.0,0.0,0.0,0.0,0.0,0.0,0.0,0.0,0.0,0.0,0.0,0.0,0.0,0.0,0.0,0.0,0.0,0.0,0.0,0.0,0.0,0.0,0.0,0.0,0.0,0.0,0.0,0.0,0.0,0.0,0.0,0.0,0.0,0.0,0.0,0.0,0.0,0.0,0.0,0.0,0.0,0.0,0.0,0.0,0.0,0.0,0.0,0.0,0.0,0.0,0.0,0.0,0.0,0.0,0.0,0.0,0.0,0.0,0.0,0.0,0.0,0.0,0.0,0.0,0.0,0.0,0.0,0.0,0.6282,0.5856,0.1787,-0.2353,-0.6914,-1.1082,-1.5443,0.0,0.0,0.0,0.0,0.0,0.0,0.0,0.0,0.0,0.0,0.0,0.0,0.0,0.0,0.0,0.0,0.0,0.0,0.0,0.0,0.0,0.0,0.0,0.0,0.0,0.0,0.0,0.0,0.0,0.0,0.0,0.0,0.0,0.0,0.0,0.0,0.0,0.0,0.0,0.0,0.0,0.0,0.0,0.0,0.0,0.0,0.0,0.0,0.0,0.0,0.0,0.0,0.0,0.0,0.0,0.0,0.0,0.0,0.0,0.0,0.0,0.0,0.0,0.0,0.0,0.0,0.0,0.0,0.0,0.0,0.0,0.0,0.0,0.0,0.0,0.0,0.0,0.0,0.0,0.0,0.0,0.0,0.0,0.0,0.0,0.0,0.0,0.0,0.0,0.0,0.0,0.0,0.0,0.0,0.0,0.0,0.0,0.0,0.0,0.0,0.0,0.0,0.0,0.0,0.0,0.0,0.0,0.0,0.0,0.6233,0.4762,0.1831,-0.2583,-0.6867,-1.119,0.0,0.0,0.0,0.0,0.0,0.0,0.0,0.0,0.0,0.0,0.0,0.0,0.0,0.0,0.0,0.0,0.0,0.0,0.0,0.0,0.0,0.0,0.0,0.0,0.0,0.0,0.0,0.0,0.0,0.0,0.0,0.0,0.0,0.0,0.0,0.0,0.0,0.0,0.0,0.0,0.0,0.0,0.0,0.0,0.0,0.0,0.0,0.0,0.0,0.0,0.0,0.0,0.0,0.0,0.0,0.0,0.0,0.0,0.0,0.0,0.0,0.0,0.0,0.0,0.0,0.0,0.0,0.0,0.0,0.0,0.0,0.0,0.0,0.0,0.0,0.0,0.0,0.0,0.0,0.0,0.0,0.0,0.0,0.0,0.0,0.0,0.0,0.0,0.0,0.0,0.0,0.0,0.0,0.0,0.0,0.0,0.0,0.0,0.0,0.0,0.0,0.0,0.0,0.0,0.0,0.0,0.0,0.0,0.0,0.6599,0.6212,0.3862,-0.06,-0.4851,-0.9205,-1.3654,0.0,0.0,0.0,0.0,0.0,0.0,0.0,0.0,0.0,0.0,0.0,0.0,0.0,0.0,0.0,0.0,0.0,0.0,0.0,0.0,0.0,0.0,0.0,0.0,0.0,0.0,0.0,0.0,0.0,0.0,0.0,0.0,0.0,0.0,0.0,0.0,0.0,0.0,0.0,0.0,0.0,0.0,0.0,0.0,0.0,0.0,0.0,0.0,0.0,0.0,0.0,0.0,0.0,0.0,0.0,0.0,0.0,0.0,0.0,0.0,0.0,0.0,0.0,0.0,0.0,0.0,0.0,0.0,0.0,0.0,0.0,0.0,0.0,0.0,0.0,0.0,0.0,0.0,0.0,0.0,0.0,0.0,0.0,0.0,0.0,0.0,0.0,0.0,0.0,0.0,0.0,0.0,0.0,0.0,0.0,0.0,0.0,0.0,0.0,0.0,0.0,0.0,0.0,0.0,0.0,0.0,0.0,0.0,0.6945,0.6357,0.4041,-0.0145,-0.4685,-0.9096,0.0,0.0,0.0,0.0,0.0,0.0,0.0,0.0,0.0,0.0,0.0,0.0,0.0,0.0,0.0,0.0,0.0,0.0,0.0,0.0,0.0,0.0,0.0,0.0,0.0,0.0,0.0,0.0,0.0,0.0,0.0,0.0,0.0,0.0,0.0,0.0,0.0,0.0,0.0,0.0,0.0,0.0,0.0,0.0,0.0,0.0,0.0,0.0,0.0,0.0,0.0,0.0,0.0,0.0,0.0,0.0,0.0,0.0,0.0,0.0,0.0,0.0,0.0,0.0,0.0,0.0,0.0,0.0,0.0,0.0,0.0,0.0,0.0,0.0,0.0,0.0,0.0,0.0,0.0,0.0,0.0,0.0,0.0,0.0,0.0,0.0,0.0,0.0,0.0,0.0,0.0,0.0,0.0,0.0,0.0,0.0,0.0,0.0,0.0,0.0,0.0,0.0,0.0,0.0,0.0,0.0,0.0,0.0,0.0,0.7405,0.6954,0.5906,0.4069,-0.2992,-0.7595,0.0,0.0,0.0,0.0,0.0,0.0,0.0,0.0,0.0,0.0,0.0,0.0,0.0,0.0,0.0,0.0,0.0,0.0,0.0,0.0,0.0,0.0,0.0,0.0,0.0,0.0,0.0,0.0,0.0,0.0,0.0,0.0,0.0,0.0,0.0,0.0,0.0,0.0,0.0,0.0,0.0,0.0,0.0,0.0,0.0,0.0,0.0,0.0,0.0,0.0,0.0,0.0,0.0,0.0,0.0,0.0,0.0,0.0,0.0,0.0,0.0,0.0,0.0,0.0,0.0,0.0,0.0,0.0,0.0,0.0,0.0,0.0,0.0,0.0,0.0,0.0,0.0,0.0,0.0,0.0,0.0,0.0,0.0,0.0,0.0,0.0,0.0,0.0,0.0,0.0,0.0,0.0,0.0,0.0,0.0,0.0,0.0,0.0,0.0,0.0,0.0,0.0,0.0,0.0,0.0,0.0,0.0,0.0,0.7856,0.7713,0.7327,0.6809,0.6186,-0.2628,-0.7366,0.0,0.0,0.0,0.0,0.0,0.0,0.0,0.0,0.0,0.0,0.0,0.0,0.0,0.0,0.0,0.0,0.0,0.0,0.0,0.0,0.0,0.0,0.0,0.0,0.0,0.0,0.0,0.0,0.0,0.0,0.0,0.0,0.0,0.0,0.0,0.0,0.0,0.0,0.0,0.0,0.0,0.0,0.0,0.0,0.0,0.0,0.0,0.0,0.0,0.0,0.0,0.0,0.0,0.0,0.0,0.0,0.0,0.0,0.0,0.0,0.0,0.0,0.0,0.0,0.0,0.0,0.0,0.0,0.0,0.0,0.0,0.0,0.0,0.0,0.0,0.0,0.0,0.0,0.0,0.0,0.0,0.0,0.0,0.0,0.0,0.0,0.0,0.0,0.0,0.0,0.0,0.0,0.0,0.0,0.0,0.0,0.0,0.0,0.0,0.0,0.0,0.0,0.0,0.0,0.0,0.0,0.0,0.0,0.8242,0.7987,0.7587,0.6906,0.5626,-0.3209,-0.7831,0.0,0.0,0.0,0.0,0.0,0.0,0.0,0.0,0.0,0.0,0.0,0.0,0.0,0.0,0.0,0.0,0.0,0.0,0.0,0.0,0.0,0.0,0.0,0.0,0.0,0.0,0.0,0.0,0.0,0.0,0.0,0.0,0.0,0.0,0.0,0.0,0.0,0.0,0.0,0.0,0.0,0.0,0.0,0.0,0.0,0.0,0.0,0.0,0.0,0.0,0.0,0.0,0.0,0.0,0.0,0.0,0.0,0.0,0.0,0.0,0.0,0.0,0.0,0.0,0.0,0.0,0.0,0.0,0.0,0.0,0.0,0.0,0.0,0.0,0.0,0.0,0.0,0.0,0.0,0.0,0.0,0.0,0.0,0.0,0.0,0.0,0.0,0.0,0.0,0.0,0.0,0.0,0.0,0.0,0.0,0.0,0.0,0.0,0.0,0.0,0.0,0.0,0.0,0.0,0.0,0.0,0.0,0.0,0.8698,0.86,0.818,0.5714,0.096,-0.475,-0.7594,0.0,0.0,0.0,0.0,0.0,0.0,0.0,0.0,0.0,0.0,0.0,0.0,0.0,0.0,0.0,0.0,0.0,0.0,0.0,0.0,0.0,0.0,0.0,0.0,0.0,0.0,0.0,0.0,0.0,0.0,0.0,0.0,0.0,0.0,0.0,0.0,0.0,0.0,0.0,0.0,0.0,0.0,0.0,0.0,0.0,0.0,0.0,0.0,-1.6999,0.0,0.0,0.0,0.0,0.0,0.0,0.0,0.0,0.0,0.0,0.0,0.0,0.0,0.0,0.0,0.0,0.0,0.0,0.0,0.0,0.0,0.0,0.0,0.0,0.0,0.0,0.0,0.0,0.0,0.0,0.0,0.0,0.0,0.0,0.0,0.0,0.0,0.0,0.0,0.0,0.0,0.0,0.0,0.0,0.0,0.0,0.0,0.0,0.0,0.0,0.0,0.0,0.0,0.0,0.0,0.0,0.0,0.0,0.0,0.7954,0.5158,0.4669,0.1621,-0.4293,-0.9304,-1.1557,0.0,0.0,0.0,0.0,0.0,0.0,0.0,0.0,0.0,0.0,0.0,0.0,0.0,0.0,0.0,0.0,0.0,0.0,0.0,0.0,0.0,0.0,0.0,0.0,0.0,0.0,0.0,0.0,0.0,0.0,0.0,0.0,0.0,0.0,0.0,0.0,0.0,0.0,0.0,0.0,0.0,0.0,0.0,0.0,0.0,0.0,0.0,0.0,0.0,0.0,0.0,0.0,0.0,0.0,0.0,0.0,0.0,0.0,0.0,0.0,0.0,0.0,0.0,0.0,0.0,0.0,0.0,0.0,0.0,0.0,0.0,0.0,0.0,0.0,0.0,0.0,0.0,0.0,0.0,0.0,0.0,0.0,0.0,0.0,0.0,0.0,0.0,0.0,0.0,0.0,0.0,0.0,0.0,0.0,0.0,0.0,0.0,0.0,0.0,0.0,0.0,0.0,0.0,0.0,0.0,0.0,0.0,0.8295,0.5615,-0.0173,-0.0778,-0.381,-0.9699,-1.4285,-1.6492,-1.6168,0.0,0.0,0.0,0.0,0.0,0.0,0.0,0.0,0.0,0.0,0.0,0.0,0.0,0.0,0.0,0.0,0.0,0.0,0.0,0.0,0.0,0.0,0.0,0.0,0.0,0.0,0.0,0.0,0.0,0.0,0.0,0.0,0.0,0.0,0.0,0.0,0.0,0.0,-0.6854,-1.5737,0.0,0.0,0.0,0.0,0.0,0.0,0.0,0.0,-1.7004,0.0,0.0,0.0,0.0,0.0,0.0,0.0,0.0,0.0,0.0,0.0,0.0,0.0,0.0,0.0,0.0,0.0,0.0,0.0,0.0,0.0,0.0,0.0,0.0,0.0,0.0,0.0,0.0,0.0,0.0,0.0,0.0,0.0,0.0,0.0,0.0,0.0,0.0,0.0,0.0,0.0,0.0,0.0,0.0,0.0,0.0,0.0,0.0,0.0,0.0,0.0,0.0,0.0,0.0,0.0,0.0,0.2577,0.2729,-0.0043,-0.5874,-0.6315,-0.9219,-1.4789,-1.6019,-1.8263,-2.181,0.0,0.0,0.0,0.0,0.0,0.0,0.0,0.0,0.0,0.0,0.0,0.0,0.0,0.0,0.0,0.0,0.0,0.0,0.0,0.0,0.0,0.0,0.0,0.0,0.0,0.0,0.0,0.0,0.0,0.0,0.0,0.0,0.0,0.0,0.0,0.0,0.0,0.0,0.0,-1.8673,-2.2274,0.0,0.0,0.0,0.0,0.0,0.0,0.0,0.0,-1.7334,0.0,0.0,0.0,0.0,0.0,0.0,0.0,0.0,0.0,0.0,0.0,0.0,0.0,0.0,0.0,0.0,0.0,0.0,0.0,0.0,0.0,0.0,0.0,0.0,0.0,0.0,0.0,0.0,0.0,0.0,0.0,0.0,0.0,0.0,0.0,0.0,0.0,0.0,0.0,0.0,0.0,0.0,0.0,0.0,0.0,0.0,0.0,0.0,0.0,0.0,0.0,0.0,0.0,0.0,0.0,0.1218,-0.1433,-0.5643,-1.1369,-1.1749,-1.4587,-2.0194,-2.0539,-2.1689,0.0,0.0,0.0,0.0,0.0,0.0,0.0,0.0,0.0,0.0,0.0,0.0,0.0,0.0,0.0,0.0,0.0,0.0,0.0,0.0,0.0,0.0,0.0,0.0,0.0,0.0,0.0,0.0,0.0,0.0,0.0,0.0,0.0,0.0,0.0,0.0,0.0,0.0,0.0,0.0,-1.8674,-2.1777,-2.1318,0.0,0.0,0.0,0.0,0.0,0.0,-1.8498,-1.8132,0.0,0.0,0.0,0.0,0.0,0.0,0.0,0.0,0.0,0.0,0.0,0.0,0.0,0.0,0.0,0.0,0.0,0.0,0.0,0.0,0.0,0.0,0.0,0.0,0.0,0.0,0.0,0.0,0.0,0.0,0.0,0.0,0.0,0.0,0.0,0.0,0.0,0.0,0.0,0.0,0.0,0.0,0.0,0.0,0.0,0.0,0.0,0.0,0.0,0.0,0.0,0.0,0.0,0.0,0.0,-0.049,-0.5714,-1.1275,-1.6846,-1.722,-1.9505,-2.4081,-2.4358,-2.4446,0.0,0.0,0.0,0.0,0.0,0.0,0.0,0.0,0.0,0.0,0.0,0.0,0.0,0.0,0.0,0.0,0.0,0.0,0.0,0.0,0.0,0.0,0.0,0.0,0.0,0.0,0.0,0.0,0.0,0.0,0.0,0.0,0.0,0.0,0.0,0.0,0.0,0.0,0.0,0.0,0.0,-2.1396,-2.1056,-1.9811,0.0,0.0,0.0,0.0,-1.84,-1.8484,0.0,0.0,0.0,0.0,0.0,0.0,0.0,0.0,0.0,0.0,0.0,0.0,0.0,0.0,0.0,0.0,0.0,0.0,0.0,0.0,0.0,0.0,0.0,0.0,0.0,0.0,0.0,0.0,0.0,0.0,0.0,0.0,0.0,0.0,0.0,0.0,0.0,0.0,0.0,0.0,0.0,0.0,0.0,0.0,0.0,0.0,0.0,0.0,0.0,0.0,0.0,0.0,0.0,0.0,0.0,0.0,-0.5601,-1.123,-1.6924,-2.2405,-2.2785,-2.3259,-2.4113,-2.4247,-2.4375,0.0,0.0,0.0,0.0,0.0,0.0,0.0,0.0,0.0,0.0,0.0,0.0,0.0,0.0,0.0,0.0,0.0,0.0,0.0,0.0,0.0,0.0,0.0,0.0,0.0,0.0,0.0,0.0,0.0,0.0,0.0,0.0,0.0,0.0,0.0,0.0,0.0,0.0,0.0,0.0,0.0,-2.213,-2.1542,-1.9863,-1.8601,0.0,0.0,-1.7677,-1.7554,-1.7667,0.0,0.0,0.0,0.0,0.0,0.0,0.0,0.0,0.0,0.0,0.0,0.0,0.0,0.0,0.0,0.0,0.0,0.0,0.0,0.0,0.0,0.0,0.0,0.0,0.0,0.0,0.0,0.0,0.0,0.0,0.0,0.0,0.0,0.0,0.0,0.0,0.0,0.0,0.0,0.0,0.0,0.0,0.0,0.0,0.0,0.0,0.0,0.0,0.0,0.0,0.0,0.0,0.0,0.0,0.0,-0.5813,-1.1289,-1.699,-2.115,-2.354,-2.375,-2.3876,-2.4054,-2.4171,-2.434,0.0,0.0,0.0,0.0,0.0,0.0,0.0,0.0,0.0,0.0,0.0,0.0,0.0,0.0,0.0,0.0,0.0,0.0,0.0,0.0,0.0,0.0,0.0,0.0,0.0,0.0,0.0,0.0,0.0,0.0,0.0,0.0,0.0,0.0,0.0,0.0,0.0,0.0,0.0,0.0,0.0,0.0,-2.0404,-1.8828,0.0,0.0,0.0,-1.7135,-1.7328,0.0,0.0,0.0,0.0,0.0,0.0,0.0,0.0,0.0,0.0,0.0,0.0,0.0,0.0,0.0,0.0,0.0,0.0,0.0,0.0,0.0,0.0,0.0,0.0,0.0,0.0,0.0,0.0,0.0,0.0,0.0,0.0,0.0,0.0,0.0,0.0,0.0,0.0,0.0,0.0,0.0,0.0,0.0,0.0,0.0,0.0,0.0,0.0,0.0,0.0,0.0,0.0,0.0,0.0,0.0,0.0,0.0,-1.4962,-2.0645,-2.3603,-2.3585,-2.3721,-2.3813,-2.3937,-2.4056,0.0,0.0,0.0,0.0,0.0,0.0,0.0,0.0,0.0,0.0,0.0,0.0,0.0,0.0,0.0,0.0,0.0,0.0,0.0,0.0,0.0,0.0,0.0,0.0,0.0,0.0,0.0,-2.2554,0.0,0.0,0.0,0.0,0.0,0.0,0.0,0.0,0.0,0.0,0.0,0.0,0.0,0.0,-2.1146,-1.9487,-1.7984,-1.6909,0.0,0.0,-1.6978,-1.7321,-1.7917,-1.8145,0.0,0.0,0.0,0.0,0.0,0.0,0.0,0.0,0.0,0.0,0.0,0.0,0.0,0.0,0.0,0.0,0.0,0.0,0.0,0.0,0.0,0.0,0.0,0.0,0.0,0.0,0.0,0.0,0.0,0.0,0.0,0.0,0.0,0.0,0.0,0.0,0.0,0.0,0.0,0.0,0.0,0.0,0.0,0.0,0.0,0.0,0.0,0.0,0.0,0.0,0.0,0.0,0.0,0.0,-0.9323,-1.4962,-2.0637,-2.3539,-2.3585,-2.3607,-2.3678,-2.3795,-2.3955,-2.4094,0.0,0.0,0.0,0.0,0.0,0.0,0.0,0.0,0.0,0.0,0.0,0.0,0.0,0.0,0.0,0.0,0.0,0.0,0.0,0.0,0.0,0.0,0.0,0.0,0.0,0.0,0.0,0.0,0.0,0.0,0.0,0.0,0.0,0.0,0.0,0.0,0.0,0.0,0.0,0.0,0.0,-2.0913,-1.946,-1.7936,-1.7072,0.0,-1.7444,-1.7404,-1.7668,-1.8037,-1.8245,-1.81,0.0,0.0,0.0,0.0,0.0,0.0,0.0,0.0,0.0,0.0,0.0,0.0,0.0,0.0,0.0,0.0,0.0,0.0,0.0,0.0,0.0,0.0,0.0,0.0,0.0,0.0,0.0,0.0,0.0,0.0,0.0,0.0,0.0,0.0,0.0,0.0,0.0,0.0,0.0,0.0,0.0,0.0,0.0,0.0,0.0,0.0,0.0,0.0,0.0,0.0,0.0,0.0,0.0,-1.1034,-2.0069,-2.2382,-2.3517,-2.3522,-2.3562,-2.3652,-2.3747,-2.3828,-2.3933,0.0,0.0,0.0,0.0,0.0,0.0,0.0,0.0,0.0,0.0,0.0,0.0,0.0,0.0,0.0,0.0,0.0,0.0,0.0,0.0,0.0,0.0,0.0,0.0,0.0,0.0,0.0,0.0,-2.2872,-2.3393,-2.3787,0.0,0.0,0.0,0.0,0.0,0.0,0.0,0.0,0.0,0.0,-2.1107,-1.9166,-1.8119,0.0,0.0,-1.756,-1.756,-1.8104,-1.8385,-1.8588,-1.8593,-1.8374,0.0,0.0,0.0,0.0,0.0,0.0,0.0,0.0,0.0,0.0,0.0,0.0,0.0,0.0,0.0,0.0,0.0,0.0,0.0,0.0,0.0,0.0,0.0,0.0,0.0,0.0,0.0,0.0,0.0,0.0,0.0,0.0,0.0,0.0,0.0,0.0,0.0,0.0,0.0,0.0,0.0,0.0,0.0,0.0,0.0,0.0,0.0,0.0,0.0,0.0,0.0,0.0,-1.3775,-2.3382,-2.3471,-2.3471,-2.3471,-2.3494,-2.3539,-2.3611,-2.3678,-2.3765,0.0,0.0,0.0,0.0,0.0,0.0,0.0,0.0,0.0,0.0,0.0,0.0,0.0,0.0,0.0,0.0,0.0,0.0,0.0,0.0,0.0,0.0,0.0,0.0,0.0,0.0,0.0,0.0,-2.3218,-2.3912,-2.4099,0.0,0.0,0.0,0.0,0.0,0.0,0.0,0.0,0.0,0.0,-2.0814,-1.8833,-1.8235,-1.8014,-1.8152,-1.8027,-1.822,-1.8767,-1.9121,-1.928,-1.9351,0.0,0.0,0.0,0.0,0.0,0.0,0.0,0.0,0.0,0.0,0.0,0.0,0.0,0.0,0.0,0.0,0.0,0.0,0.0,0.0,0.0,0.0,0.0,0.0,0.0,0.0,0.0,-2.2893,0.0,0.0,-2.2712,0.0,0.0,0.0,0.0,0.0,0.0,0.0,0.0,0.0,0.0,0.0,0.0,0.0,0.0,0.0,0.0,0.0,0.0,0.0,0.0,0.0,0.0,-1.7599,-2.3382,-2.343,-2.3401,-2.3401,-2.3336,-2.3336,-2.3407,-2.3471,-2.3585,-2.37,0.0,0.0,0.0,0.0,0.0,0.0,0.0,0.0,0.0,0.0,0.0,0.0,0.0,0.0,0.0,0.0,0.0,0.0,0.0,0.0,0.0,0.0,0.0,0.0,0.0,0.0,-2.2216,-2.3386,-2.4237,0.0,0.0,0.0,0.0,0.0,0.0,0.0,0.0,0.0,-2.1959,-2.0845,-1.9763,-1.8714,-1.8249,-1.8352,-1.917,-1.9233,-1.9365,-1.9704,-2.0096,-2.0355,0.0,0.0,0.0,0.0,0.0,0.0,0.0,0.0,0.0,0.0,0.0,0.0,0.0,0.0,0.0,0.0,0.0,0.0,0.0,0.0,0.0,0.0,0.0,0.0,0.0,0.0,0.0,-2.2825,-2.2816,0.0,0.0,0.0,0.0,0.0,0.0,0.0,0.0,0.0,0.0,0.0,-1.7181,-1.712,0.0,0.0,0.0,0.0,0.0,0.0,0.0,0.0,0.0,0.0,0.0,0.0,-1.7844,-2.3188,-2.3448,-2.3401,-2.3401,-2.3336,-2.3289,-2.3247,-2.3354,-2.3407,-2.3499,0.0,0.0,0.0,0.0,0.0,0.0,0.0,0.0,0.0,0.0,0.0,0.0,0.0,0.0,0.0,0.0,0.0,0.0,0.0,0.0,0.0,0.0,0.0,0.0,0.0,-2.1898,0.0,0.0,0.0,0.0,0.0,0.0,0.0,0.0,0.0,0.0,-2.4266,-2.3245,-2.2136,-2.1465,-2.069,-1.9727,-1.9648,-1.9843,0.0,0.0,0.0,0.0,0.0,0.0,0.0,0.0,0.0,0.0,0.0,0.0,0.0,0.0,-1.5993,-1.4477,-1.3035,-1.1697,-1.0568,0.0,0.0,0.0,0.0,0.0,0.0,0.0,0.0,0.0,0.0,0.0,0.0,0.0,0.0,-2.279,-2.279,-2.2738,0.0,0.0,0.0,0.0,0.0,0.0,0.0,0.0,-2.279,-2.2747,-2.279,-2.2773,-2.086,0.0,-1.7392,-1.5618,0.0,0.0,0.0,0.0,0.0,0.0,0.0,0.0,-1.984,-2.33,-2.3684,-2.3762,-2.3696,-2.3876,-2.3844,-2.3541,-2.3284,-2.3151,-2.3193,-2.3265,-2.3271,0.0,0.0,0.0,0.0,0.0,0.0,0.0,0.0,0.0,0.0,0.0,0.0,0.0,0.0,0.0,0.0,0.0,0.0,0.0,0.0,0.0,0.0,0.0,-2.1798,0.0,0.0,0.0,0.0,0.0,0.0,0.0,0.0,0.0,-2.4502,-2.3578,-2.2606,-2.1899,-2.1382,-2.0898,-2.0409,0.0,0.0,0.0,0.0,0.0,0.0,0.0,-2.16,-2.1588,-2.1348,-2.1094,-2.0786,-1.9987,-1.9285,-1.8875,0.0,0.0,-1.5534,-1.4143,-1.2856,-1.1716,-1.0491,-0.9371,-0.8722,-0.8292,-0.7916,0.0,0.0,0.0,0.0,0.0,0.0,0.0,0.0,-2.2816,-2.279,0.0,-2.2738,0.0,0.0,0.0,0.0,-2.2579,-2.2605,0.0,0.0,-2.2596,-2.2542,-2.2623,-2.2623,-2.2632,-2.2712,-2.2686,-2.2754,-2.2296,-1.2221,0.0,0.0,0.0,0.0,0.0,0.0,-2.3471,-2.3442,-2.4088,-2.4384,-2.4199,-2.4883,-2.49,-2.4155,-2.338,-2.2937,-2.2851,-2.292,-2.2928,-2.2893,-2.2893,0.0,0.0,0.0,0.0,0.0,0.0,0.0,0.0,0.0,0.0,0.0,0.0,0.0,0.0,0.0,0.0,0.0,0.0,0.0,0.0,-2.126,0.0,0.0,0.0,0.0,0.0,0.0,0.0,0.0,0.0,-2.3201,-2.3752,-2.2486,-2.1459,-2.1328,0.0,0.0,0.0,0.0,-2.1823,-2.2348,-2.2285,-2.2247,-2.2359,-2.2359,-2.2223,-2.1925,0.0,0.0,-2.054,-1.9944,-1.9417,-1.8875,-1.8192,-1.7354,-1.6245,-1.51,-1.4011,-1.3185,-1.1983,-1.0875,-1.0137,-0.9567,-0.9075,-2.2094,0.0,0.0,0.0,0.0,-2.2712,-2.2738,-2.2764,-2.2738,-2.2738,-2.2738,-2.2712,0.0,0.0,0.0,0.0,0.0,0.0,-2.2605,-2.2632,-2.2649,-2.2659,-2.2685,-2.2676,-2.2685,-2.2685,-2.279,-2.2868,-2.2815,-1.9893,-1.8478,-1.8703,0.0,0.0,0.0,0.0,-2.3517,-2.3442,-2.4034,-2.4313,-2.4217,-2.4868,-2.5097,-2.4819,-2.4453,-2.4018,-2.3467,-2.3478,-2.3209,-2.264,-2.2605,0.0,0.0,0.0,0.0,0.0,0.0,0.0,0.0,0.0,0.0,0.0,0.0,0.0,0.0,0.0,0.0,0.0,0.0,0.0,-2.0299,-2.0369,-2.061,0.0,0.0,0.0,0.0,0.0,0.0,0.0,0.0,0.0,-2.2282,-2.1799,-2.1417,0.0,0.0,-2.1243,-2.1473,-2.2002,-2.2543,-2.2845,-2.2592,0.0,-2.2555,-2.2432,-2.2185,-2.1937,-2.1486,-2.0978,-2.0475,-1.9878,-1.9274,-1.8875,-1.8192,-1.7501,-1.6881,-1.5675,-1.4545,-1.3775,-1.2746,-1.1781,-1.1192,-1.0513,-0.9965,-2.1886,-2.2192,-2.2321,-2.2432,-2.2569,-2.2632,-2.2659,-2.2659,-2.2668,-2.2712,-2.2712,-2.2712,-2.2659,-2.2552,-2.2515,0.0,0.0,0.0,-2.2525,-2.2552,-2.2605,-2.2632,-2.2676,-2.2676,-2.2659,-2.2676,-2.279,-2.2868,-2.2902,-2.3095,-2.3265,-2.3407,0.0,-2.3585,-2.3585,-2.3585,-2.3539,-2.3442,-2.4028,-2.4424,-2.4611,-2.4901,-2.5062,-2.4976,-2.4247,-2.3613,-2.317,-2.3124,-2.2847,-2.2332,-2.226,-2.2231,0.0,0.0,0.0,0.0,0.0,0.0,0.0,0.0,0.0,0.0,0.0,-1.9545,-1.9176,0.0,0.0,0.0,-1.9748,-2.006,-1.985,-1.9759,0.0,0.0,0.0,0.0,0.0,0.0,0.0,-2.1417,-2.1513,-2.1479,-2.1264,-2.1104,-2.1149,-2.1402,-2.1537,-2.1751,-2.215,0.0,-2.3173,-2.3412,-2.303,-2.2726,-2.2848,-2.2616,-2.2259,-2.1874,-2.1285,-2.0775,-2.0475,-1.9878,-1.9351,-1.8942,-1.8395,-1.7852,-1.7442,-1.6385,-1.533,-1.4489,-1.3477,-1.2666,-1.209,-1.1409,-1.0807,-2.1768,-2.201,-2.2192,-2.2349,-2.2487,-2.2569,-2.2623,-2.2623,-2.2659,-2.2712,-2.2712,-2.2712,-2.2649,-2.247,-2.2366,0.0,-2.231,-2.2349,-2.2449,-2.2497,-2.2497,-2.2552,-2.2605,-2.2605,-2.2605,-2.2632,-2.2816,-2.2902,-2.2902,-2.3095,-2.3217,-2.3271,-2.3494,-2.3585,-2.3585,-2.3585,-2.3517,-2.3401,-2.4058,-2.4633,-2.5181,-2.4988,-2.4876,-2.4782,-2.3334,-2.2536,-2.2383,-2.2327,-2.219,-2.1998,-2.1911,-2.184,-2.1751,0.0,0.0,0.0,0.0,0.0,0.0,0.0,0.0,0.0,0.0,0.0,0.0,0.0,0.0,-1.9216,-1.9453,0.0,-1.9552,-1.9408,0.0,0.0,0.0,-2.0003,-2.0271,-2.056,-2.066,-2.051,0.0,0.0,-2.0675,-2.0614,-2.081,-2.1511,-2.1764,-2.2056,-2.2604,-2.3198,-2.3688,-2.3819,-2.339,-2.3078,-2.3017,-2.2726,-2.2371,-2.1824,-2.1244,-2.0775,-2.0464,-2.0009,-1.955,-1.9142,-1.8674,-1.8202,-1.7784,-1.7088,-1.6324,-1.5346,-1.433,-1.3462,-1.29,-1.2305,-1.1848,-2.1768,-2.1957,-2.2044,-2.2186,-2.2432,-2.2542,-2.2623,-2.2605,-2.2685,-2.2712,-2.2712,-2.2712,-2.2605,-2.2487,-2.2349,-2.2338,-2.2377,-2.2415,-2.2497,-2.2579,-2.2632,-2.2703,-2.2738,-2.2764,-2.2747,-2.2747,-2.2833,-2.2919,-2.2977,-2.3052,-2.3168,-2.3241,-2.3424,-2.3517,-2.3517,-2.3517,-2.3471,-2.3313,-2.3993,-2.458,-2.5098,-2.4965,-2.4859,-2.4718,-2.4322,-2.3761,-2.3085,-2.3009,-2.2622,-2.1873,-2.1797,-2.1678,-2.1493,-2.1433,0.0,0.0,0.0,0.0,0.0,0.0,0.0,0.0,0.0,-1.9827,-1.9244,0.0,-2.0121,0.0,-1.8733,-1.8748,-1.8951,-1.8839,0.0,0.0,-1.9052,-1.9198,-1.9436,-1.9604,-1.9759,-1.9811,-2.008,-2.0386,-2.0914,-2.0978,-2.1351,-2.2496,-2.238,-2.2473,-2.2989,-2.3618,-2.3878,-2.3688,-2.3378,-2.3017,-2.2787,-2.2309,-2.1886,-2.1698,-2.1244,-2.0775,-2.0464,-2.0074,-1.966,-1.9198,-1.8721,-1.8327,-1.7998,-1.752,-1.7019,-1.6324,-1.533,-1.4489,-1.3912,-1.3564,-1.3273,-2.1827,-2.194,-2.2061,-2.2237,-2.2405,-2.2515,-2.2596,-2.2605,-2.2659,-2.2712,-2.2703,-2.2676,-2.2605,-2.2525,-2.2432,-2.2405,-2.246,-2.2515,-2.2552,-2.2605,-2.2659,-2.2712,-2.2764,-2.2764,-2.2764,-2.2738,-2.2825,-2.2893,-2.297,-2.302,-2.3119,-2.3193,-2.3313,-2.3383,-2.3407,-2.3453,-2.3448,-2.3336,-2.3912,-2.4296,-2.4452,-2.4368,-2.4269,-2.4164,-2.3769,-2.3359,-2.282,-2.271,-2.2391,-2.1784,-2.1648,-2.1495,-2.1309,-2.1183,-2.1103,0.0,0.0,0.0,0.0,0.0,0.0,0.0,0.0,0.0,0.0,0.0,-2.0161,-1.9246,-1.8706,-1.8529,-1.8691,-1.8476,-1.841,-1.8464,-1.8783,-1.8998,-1.9107,-1.9595,-1.997,-2.0133,-2.0511,-2.0945,-2.1519,-2.1758,-2.2258,-2.3273,-2.3267,-2.3267,-2.3555,-2.3974,-2.4086,-2.3897,-2.3675,-2.333,-2.2909,-2.2309,-2.1949,-2.1886,-2.1423,-2.0978,-2.0786,-2.0399,-1.9998,-1.9594,-1.9253,-1.8854,-1.8529,-1.8034,-1.7446,-1.6868,-1.6129,-1.5334,-1.4696,-1.4308,-1.3859,-2.1899,-2.2027,-2.218,-2.2299,-2.2432,-2.2487,-2.2542,-2.2623,-2.2659,-2.2712,-2.2703,-2.2649,-2.2623,-2.2579,-2.2542,-2.2497,-2.2515,-2.2596,-2.2623,-2.2605,-2.2659,-2.2712,-2.2712,-2.2712,-2.2712,-2.2694,-2.279,-2.2825,-2.2902,-2.297,-2.307,-2.3168,-2.3193,-2.3223,-2.3289,-2.3407,-2.343,-2.3378,-2.3727,-2.3784,-2.3596,-2.3488,-2.3443,-2.334,-2.2705,-2.2282,-2.2214,-2.2089,-2.1882,-2.1724,-2.1509,-2.134,-2.1167,-2.099,-2.0861,0.0,-2.0691,0.0,0.0,0.0,0.0,0.0,0.0,0.0,0.0,-2.0159,-2.0012,-1.9544,-1.8951,-1.8583,-1.8534,-1.8271,-1.8084,-1.8096,-1.8629,-1.9006,-1.9074,-1.9859,-2.0478,-2.0718,-2.1319,-2.1869,-2.2343,-2.2736,-2.3219,-2.3918,-2.4245,-2.4326,-2.4315,-2.435,-2.4408,-2.435,-2.4086,-2.3628,-2.3198,-2.2665,-2.2223,-2.2101,-2.1596,-2.1169,-2.0968,-2.0613,-2.0242,-1.9953,-1.9673,-1.9371,-1.9031,-1.8373,-1.776,-1.7256,-1.6615,-1.602,-1.53,-1.4722,-1.4191,-2.2073,-2.2237,-2.2282,-2.2394,-2.2569,-2.2596,-2.2579,-2.2623,-2.2659,-2.2712,-2.2685,-2.2632,-2.2623,-2.2596,-2.2525,-2.2542,-2.2596,-2.2579,-2.2632,-2.2685,-2.2703,-2.2738,-2.279,-2.2773,-2.2799,-2.279,-2.285,-2.2859,-2.2824,-2.2952,-2.302,-2.3045,-2.3144,-2.3199,-2.3217,0.0,0.0,0.0,-2.3101,-2.2972,-2.2882,-2.2774,-2.2664,-2.2609,-2.2462,0.0,-2.2197,-2.2044,-2.1882,-2.1708,-2.1509,0.0,0.0,0.0,0.0,0.0,0.0,0.0,0.0,0.0,0.0,0.0,-2.1853,-2.1531,-2.0525,-1.9881,-1.9401,-1.8975,-1.8625,-1.8367,-1.8205,-1.815,-1.8084,-1.8096,-1.834,-1.8561,-1.8585,-1.9349,-2.0091,-2.0531,-2.1411,-2.2299,-2.3294,-2.3716,-2.4164,-2.4846,-2.5205,-2.537,-2.5356,-2.5104,-2.4821,-2.4708,-2.4234,-2.3708,-2.339,-2.2871,-2.2323,-2.1849,-2.1404,-2.0924,-2.0404,-2.0132,-1.9761,-1.9409,-1.9254,-1.9032,-1.8426,-1.8144,-1.7906,-1.7458,-1.7126,-1.6558,-1.548,-1.52,-1.4941,-2.2276,-2.2405,-2.2449,-2.2542,0.0,-2.2685,-2.2712,-2.2738,-2.2712,-2.2712,-2.2703,-2.2659,-2.2632,-2.2632,-2.2605,-2.2623,-2.2659,-2.2632,-2.2676,-2.2712,-2.2712,-2.2694,-2.2764,-2.279,-2.2799,-2.279,-2.2859,-2.2884,-2.2892,-2.2977,-2.3003,-2.3045,-2.3119,-2.3337,-2.3673,-2.4033,-2.3797,-2.2995,-2.3206,-2.3064,-2.2657,-2.2856,-2.2779,-2.2366,-2.231,0.0,0.0,0.0,0.0,0.0,0.0,0.0,0.0,-2.1009,0.0,-2.0813,-2.1173,-2.1484,-2.1723,-2.2084,-2.2249,-2.2205,-2.1895,-2.1335,-2.0413,-1.9813,-1.9368,-1.9035,-1.8756,-1.853,-1.8464,-1.841,-1.8302,-1.8271,-1.8686,-1.8948,-1.905,-1.9841,-2.0767,-2.1529,-2.2295,-2.3252,-2.4366,-2.4915,-2.5312,-2.5755,-2.6042,-2.619,-2.615,-2.577,-2.5384,-2.509,-2.4654,-2.4063,-2.3566,-2.3,-2.2389,-2.1861,-2.1448,-2.1083,-2.0598,-2.032,-2.0088,-1.9749,-1.9561,-1.9383,-1.8895,-1.855,-1.8197,-1.7747,-1.735,-1.6917,-1.6074,-1.5737,-1.5449,-2.2487,-2.2542,-2.2623,-2.2712,-2.2799,-2.2816,-2.2842,-2.2893,-2.2773,0.0,0.0,-2.2712,-2.2712,-2.2694,-2.2712,-2.2694,-2.2694,-2.2738,-2.2738,-2.2738,-2.2738,-2.2721,-2.2738,-2.279,-2.2816,-2.2816,-2.2893,-2.2944,-2.2995,-2.302,-2.3052,-2.3112,-2.326,-2.3673,-2.4401,-2.492,-2.4552,-2.3371,-2.3722,-2.3618,-2.2942,-2.3403,-2.3299,-2.2502,-2.2428,-2.2257,-2.1986,-2.2045,-2.198,-2.1755,-2.1664,-2.1488,-2.1258,-2.1432,-2.1491,-2.1323,-2.1596,-2.2013,-2.2453,-2.2263,-2.2235,-2.2575,-2.1732,-2.0934,-2.0321,-1.9862,-1.9525,-1.9247,-1.897,-1.8851,-1.8851,-1.8774,-1.8667,-1.8572,-1.9155,-1.9557,-1.9636,-2.0539,-2.1529,-2.2472,-2.321,-2.419,-2.519,-2.5889,-2.6326,-2.6578,-2.6736,-2.6841,-2.6788,-2.6365,-2.5934,-2.5618,-2.5259,-2.4706,-2.3901,-2.3313,-2.2639,-2.1995,-2.1619,-2.1305,-2.0983,-2.0736,-2.0499,-2.0121,-2.0034,-1.9759,-1.9425,-1.8943,-1.8533,-1.81,-1.7666,-1.7234,-1.6931,-1.6506,-1.6058,-2.2623,-2.2685,-2.2738,-2.2816,-2.2893,-2.2893,-2.2893,-2.2902,-2.2893,-2.285,-2.2868,-2.2816,-2.2773,-2.279,-2.279,-2.279,-2.279,-2.2842,-2.2893,-2.2893,-2.2868,-2.2868,-2.285,-2.2893,-2.2893,-2.2876,-2.297,-2.2995,-2.302,-2.3119,-2.3144,-2.319,-2.3837,-2.4515,-2.5083,-2.5079,-2.4931,-2.4723,-2.4689,-2.4584,-2.4394,-2.4394,-2.3985,-2.322,-2.3139,-2.2731,-2.189,-2.2441,-2.2617,-2.2329,-2.2645,-2.2706,-2.2456,-2.2257,-2.2034,-2.178,-2.2154,-2.2367,-2.2217,-2.2615,-2.2741,-2.2296,-2.1602,-2.1019,-2.056,-1.9965,-1.9565,-1.938,-1.9158,-1.8987,-1.8987,-1.9093,-1.9133,-1.9133,-1.951,-1.9768,-1.9793,-2.073,-2.159,-2.2231,-2.3564,-2.4713,-2.536,-2.6237,-2.6884,-2.7063,-2.7218,-2.7335,-2.7357,-2.693,-2.651,-2.6229,-2.6028,-2.545,-2.4449,-2.4028,-2.3259,-2.2009,-2.159,-2.1303,-2.0862,-2.0553,-2.0332,-1.997,-1.9927,-1.9691,-1.9263,-1.9006,-1.8875,-1.8592,-1.8259,-1.7984,-1.7875,-1.759,-1.7119,-2.2816,-2.2868,-2.2893,-2.2944,-2.3003,-2.3028,-2.3077,-2.3119,-2.3119,-2.3045,-2.2893,-2.285,-2.2868,-2.2868,-2.2868,-2.2868,-2.2868,-2.2893,-2.2919,-2.297,-2.297,-2.2977,-2.3003,-2.3045,-2.307,-2.3052,-2.3144,-2.3168,-2.3168,-2.3217,-2.3241,-2.3305,-2.4373,-2.5252,-2.583,-2.6155,-2.626,-2.6134,-2.5569,-2.5067,-2.4601,-2.4881,-2.4652,-2.3835,-2.3725,-2.3481,-2.3007,-2.3209,-2.3227,-2.2977,-2.3061,-2.2972,-2.2703,-2.2701,-2.2659,-2.246,-2.2843,-2.3048,-2.2891,-2.2922,-2.2783,-2.2356,-2.1935,-2.1602,-2.1251,-2.051,-1.9965,-1.9759,-1.9656,-1.9604,-1.9552,-1.9656,-1.9759,-1.9759,-2.0055,-2.0245,-2.0409,-2.102,-2.1776,-2.2605,-2.382,-2.4983,-2.5727,-2.663,-2.7299,-2.7488,-2.769,-2.784,-2.7925,-2.776,-2.7408,-2.6849,-2.6269,-2.5521,-2.4582,-2.3756,-2.3036,-2.2144,-2.1852,-2.1547,-2.1144,-2.0921,-2.0723,-2.0409,-2.0308,-2.0105,-1.9798,-1.9708,-1.9552,-1.9331,-1.9174,-1.8963,-1.875,-1.8483,-1.7929,-2.31,-2.329,-2.3333,-2.3488,-2.3661,-2.3552,-2.353,-2.3578,-2.3401,-2.3199,-2.302,-2.2977,-2.297,-2.297,-2.2952,-2.297,-2.297,-2.2977,-2.302,-2.307,-2.3052,-2.3095,-2.3144,-2.3193,-2.3241,-2.3265,-2.3313,-2.3336,-2.336,-2.3383,-2.3561,-2.3956,-2.5077,-2.5995,-2.6615,-2.7109,-2.7296,-2.7083,-2.636,-2.5656,-2.5067,-2.5527,-2.5345,-2.4543,-2.4347,-2.415,-2.3951,-2.39,-2.3811,-2.3584,-2.3535,-2.3449,-2.3152,-2.3264,-2.329,-2.3212,-2.3383,-2.3509,-2.3451,-2.3127,-2.2799,-2.2586,-2.2402,-2.2217,-2.1983,-2.1286,-2.066,-2.0359,-2.0359,-2.0308,-2.0258,-2.0347,-2.0448,-2.0435,-2.0673,-2.0921,-2.1055,-2.1492,-2.2102,-2.2969,-2.41,-2.515,-2.5973,-2.6896,-2.7575,-2.7905,-2.8152,-2.8332,-2.8365,-2.8477,-2.8189,-2.7409,-2.6535,-2.5668,-2.4733,-2.3794,-2.3003,-2.2473,-2.2278,-2.2058,-2.1793,-2.1664,-2.1458,-2.1104,-2.0957,-2.0822,-2.0623,-2.0485,-2.0321,-2.0105,-1.9952,-1.985,-1.9423,-1.9174,-1.8697,-2.3516,-2.4163,-2.4317,-2.4799,-2.5295,-2.4676,-2.4375,-2.4311,-2.3679,-2.3383,-2.3389,-2.3223,-2.3193,-2.3168,-2.3193,-2.3151,-2.3193,-2.3241,-2.3265,-2.3289,-2.3265,-2.3265,-2.3289,-2.3289,-2.333,-2.3401,-2.343,-2.3499,-2.3544,-2.3647,-2.4306,-2.5483,-2.6206,-2.6841,-2.7449,-2.7334,-2.723,-2.7181,-2.6922,-2.674,-2.6706,-2.6539,-2.6135,-2.533,-2.5096,-2.4612,-2.3883,-2.4237,-2.4401,-2.4175,-2.4627,-2.4729,-2.4411,-2.4287,-2.4044,-2.3734,-2.3651,-2.3523,-2.3363,-2.3172,-2.3083,-2.3038,-2.2799,-2.2663,-2.2572,-2.2356,-2.1888,-2.1251,-2.1006,-2.0944,-2.0894,-2.105,-2.1113,-2.1131,-2.1437,-2.1691,-2.1759,-2.2184,-2.2583,-2.2721,-2.425,-2.5375,-2.5774,-2.6924,-2.7894,-2.825,-2.8525,-2.8763,-2.8779,-2.8842,-2.8482,-2.7798,-2.7194,-2.6161,-2.4877,-2.4292,-2.3639,-2.2992,-2.2711,-2.2572,-2.2449,-2.2324,-2.217,-2.1793,-2.1698,-2.1506,-2.1277,-2.1131,-2.1019,-2.0759,-2.061,-2.0409,-2.0042,-1.9837,-1.9384,-2.4768,-2.512,-2.5189,-2.5443,-2.5743,-2.544,-2.5365,-2.5374,-2.4633,-2.4298,-2.4203,-2.3773,-2.3486,-2.3401,-2.3378,-2.336,-2.3383,-2.3435,-2.3481,-2.3544,-2.3531,-2.3576,-2.3598,-2.3598,-2.362,-2.3642,-2.3664,-2.3685,-2.3797,-2.4176,-2.4895,-2.5765,-2.6473,-2.7116,-2.7631,-2.7565,-2.743,-2.7324,-2.7166,-2.7055,-2.699,-2.6742,-2.6403,-2.5965,-2.5723,-2.5466,-2.5062,-2.5127,-2.5088,-2.4862,-2.4987,-2.4934,-2.4645,-2.4426,-2.4234,-2.4024,-2.3925,-2.3739,-2.361,-2.348,-2.3392,-2.3319,-2.3172,-2.3038,-2.2949,-2.2859,-2.2618,-2.2249,-2.1921,-2.1684,-2.1602,-2.1698,-2.176,-2.1835,-2.2085,-2.2287,-2.2278,-2.2632,-2.2949,-2.3215,-2.4517,-2.5553,-2.5982,-2.722,-2.8209,-2.8558,-2.8842,-2.9091,-2.9152,-2.9229,-2.8722,-2.7703,-2.7214,-2.6514,-2.5165,-2.4415,-2.3968,-2.3641,-2.3363,-2.3201,-2.3053,-2.2963,-2.2768,-2.237,-2.2278,-2.2137,-2.1855,-2.1807,-2.1698,-2.1444,-2.1126,-2.093,-2.0861,-2.0636,-2.0295,-2.5799,-2.6064,-2.633,-2.6514,-2.6598,-2.6383,-2.635,-2.6363,-2.5656,-2.5339,-2.5248,-2.4569,-2.4179,-2.397,-2.3741,-2.3611,-2.3616,-2.3682,-2.3725,-2.3786,-2.3792,-2.3795,-2.3837,-2.3876,-2.3876,-2.3858,-2.3858,-2.3876,-2.3964,-2.4842,-2.551,-2.5996,-2.6869,-2.7504,-2.7794,-2.776,-2.7642,-2.7478,-2.7355,-2.723,-2.7103,-2.6859,-2.6606,-2.6382,-2.6118,-2.599,-2.5881,-2.5728,-2.5502,-2.5317,-2.5201,-2.4989,-2.463,-2.4467,-2.4317,-2.4208,-2.4082,-2.3982,-2.3839,-2.3739,-2.3653,-2.3581,-2.3494,-2.3392,-2.326,-2.3216,-2.3172,-2.3024,-2.2723,-2.2449,-2.2278,-2.2315,-2.2376,-2.2431,-2.2583,-2.2721,-2.2783,-2.3038,-2.3304,-2.3642,-2.4627,-2.5742,-2.6428,-2.7535,-2.8389,-2.8544,-2.9025,-2.9329,-2.9294,-2.9383,-2.9079,-2.7646,-2.7306,-2.6672,-2.5439,-2.4618,-2.4181,-2.4051,-2.3852,-2.3638,-2.348,-2.3436,-2.3304,-2.2814,-2.2783,-2.2646,-2.2402,-2.2356,-2.2278,-2.1983,-2.1718,-2.1465,-2.1388,-2.1277,-2.1104,-2.63,-2.704,-2.7896,-2.8234,-2.833,-2.7554,-2.732,-2.7409,-2.6658,-2.6377,-2.6329,-2.5656,-2.5328,-2.5196,-2.434,-2.3915,-2.3896,-2.3955,-2.3976,-2.3996,-2.3978,-2.3996,-2.3996,-2.3996,-2.4016,-2.4074,-2.4036,-2.4032,-2.4124,-2.5499,-2.6213,-2.6289,-2.7543,-2.8192,-2.8154,-2.7893,-2.7701,-2.7672,-2.7509,-2.7341,-2.723,-2.7055,-2.6842,-2.6589,-2.6206,-2.599,-2.5881,-2.5712,-2.5486,-2.5294,-2.5294,-2.5068,-2.463,-2.4589,-2.4441,-2.425,-2.4082,-2.3982,-2.3997,-2.3982,-2.3925,-2.3797,-2.3739,-2.3696,-2.3551,-2.3494,-2.3451,-2.3451,-2.3275,-2.3083,-2.2904,-2.2809,-2.2838,-2.2873,-2.298,-2.3113,-2.326,-2.3421,-2.361,-2.3887,-2.4663,-2.5739,-2.7134,-2.7793,-2.811,-2.8354,-2.9022,-2.9403,-2.9075,-2.9469,-2.9085,-2.8077,-2.7461,-2.7033,-2.528,-2.4667,-2.4472,-2.4343,-2.4245,-2.4021,-2.3809,-2.3653,-2.348,-2.3304,-2.3172,-2.3024,-2.2889,-2.2754,-2.2632,-2.2449,-2.2263,-2.2091,-2.1977,-2.1821,-2.1698,-2.7749,-2.8103,-2.8442,-2.8662,-2.8707,-2.8458,-2.8396,-2.8443,-2.7739,-2.7435,-2.7331,-2.6669,-2.6078,-2.556,-2.5264,-2.4726,-2.415,-2.4153,-2.4209,-2.4173,-2.4229,-2.4266,-2.4266,-2.4266,-2.4247,-2.421,-2.4191,-2.4448,-2.4976,-2.5996,-2.6676,-2.7126,-2.8001,-2.8432,-2.83,-2.8136,-2.7996,-2.794,-2.7719,-2.7552,-2.7491,-2.7261,-2.7055,-2.6842,-2.6417,-2.6118,-2.599,-2.5712,-2.5486,-2.5294,-2.5201,-2.5005,-2.463,-2.4467,-2.4385,-2.4276,-2.4234,-2.4193,-2.4193,-2.4166,-2.4082,-2.394,-2.3839,-2.3739,-2.3653,-2.3566,-2.3566,-2.3566,-2.3523,-2.3465,-2.3451,-2.3305,-2.3186,-2.3275,-2.339,-2.349,-2.3623,-2.3782,-2.3952,-2.4227,-2.4972,-2.5991,-2.6882,-2.7517,-2.7758,-2.7885,-2.8362,-2.8617,-2.8567,-2.8739,-2.8518,-2.7627,-2.7206,-2.6724,-2.5647,-2.5107,-2.4871,-2.4751,-2.463,-2.4385,-2.4219,-2.4078,-2.3909,-2.3696,-2.3566,-2.348,-2.3334,-2.3172,-2.3038,-2.2918,-2.2783,-2.2646,-2.2552,-2.2385,-2.2231,-2.8281,-2.839,-2.8414,-2.8649,-2.8984,-2.9003,-2.9071,-2.9126,-2.869,-2.8493,-2.8386,-2.7717,-2.6953,-2.6208,-2.591,-2.5262,-2.4395,-2.4375,-2.4393,-2.4393,-2.4444,-2.4461,-2.4464,-2.4464,-2.4447,-2.443,-2.4598,-2.4986,-2.5498,-2.6528,-2.7233,-2.7629,-2.8337,-2.863,-2.8476,-2.8318,-2.8237,-2.8136,-2.7968,-2.7806,-2.7713,-2.7461,-2.723,-2.7055,-2.6674,-2.633,-2.6026,-2.577,-2.5524,-2.5333,-2.5201,-2.4989,-2.463,-2.4441,-2.4359,-2.4317,-2.4302,-2.4302,-2.4302,-2.425,-2.4166,-2.4024,-2.3925,-2.3782,-2.3638,-2.3595,-2.3595,-2.3638,-2.3653,-2.3696,-2.3782,-2.3681,-2.3595,-2.3653,-2.3731,-2.3827,-2.3937,-2.4162,-2.4328,-2.4595,-2.5152,-2.593,-2.6697,-2.7073,-2.7324,-2.7485,-2.7941,-2.8246,-2.8037,-2.8185,-2.807,-2.7354,-2.7163,-2.6705,-2.6003,-2.5551,-2.5224,-2.5123,-2.4926,-2.4726,-2.4564,-2.4467,-2.4302,-2.4094,-2.3967,-2.3882,-2.3754,-2.3625,-2.3494,-2.3378,-2.3231,-2.3083,-2.3023,-2.2947,-2.2737,-2.7724,-2.7816,-2.7797,-2.8381,-2.9058,-2.9172,-2.9291,-2.9373,-2.9416,-2.94,-2.9326,-2.8727,-2.7902,-2.7023,-2.6313,-2.542,-2.4692,-2.4599,-2.4599,-2.4582,-2.458,-2.458,-2.4582,-2.4582,-2.4622,-2.4664,-2.5282,-2.5634,-2.5817,-2.7147,-2.7859,-2.797,-2.8562,-2.8785,-2.8612,-2.8484,-2.838,-2.83,-2.8164,-2.7979,-2.7818,-2.7659,-2.7448,-2.7213,-2.6906,-2.6556,-2.6046,-2.5828,-2.5567,-2.5333,-2.5294,-2.5084,-2.467,-2.4523,-2.4457,-2.4302,-2.4302,-2.4302,-2.4302,-2.4276,-2.4193,-2.4024,-2.3982,-2.3839,-2.3638,-2.3595,-2.3638,-2.3739,-2.3782,-2.3839,-2.3967,-2.4032,-2.4032,-2.4036,-2.405,-2.4128,-2.4282,-2.4467,-2.4735,-2.5029,-2.5297,-2.5637,-2.6292,-2.672,-2.6929,-2.7196,-2.7748,-2.8065,-2.7654,-2.7922,-2.8052,-2.7598,-2.7175,-2.6753,-2.633,-2.5974,-2.5696,-2.5448,-2.5217,-2.5021,-2.4862,-2.4726,-2.4605,-2.44,-2.4359,-2.4261,-2.4135,-2.3967,-2.3867,-2.3739,-2.3638,-2.3508,-2.3451,-2.3334,-2.3187,-2.7149,-2.7322,-2.7842,-2.8253,-2.8667,-2.921,-2.9531,-2.9607,-2.9626,-2.97,-2.9753,-2.9545,-2.864,-2.7509,-2.6984,-2.612,-2.481,-2.4738,-2.4726,-2.472,-2.4698,-2.4698,-2.4685,-2.4685,-2.4914,-2.5459,-2.6244,-2.6879,-2.7305,-2.7823,-2.8262,-2.8728,-2.8893,-2.8929,-2.8858,-2.8712,-2.8569,-2.851,-2.838,-2.8237,-2.8053,-2.7864,-2.763,-2.7417,-2.712,-2.6759,-2.6417,-2.6026,-2.5696,-2.5394,-2.5224,-2.4989,-2.467,-2.4523,-2.4457,-2.4317,-2.4302,-2.4276,-2.425,-2.4208,-2.4109,-2.3925,-2.3839,-2.3782,-2.3638,-2.3595,-2.3653,-2.3797,-2.3797,-2.3925,-2.4135,-2.4204,-2.4245,-2.4219,-2.4353,-2.4483,-2.4639,-2.4886,-2.5107,-2.5301,-2.5454,-2.5735,-2.6031,-2.6336,-2.6571,-2.6695,-2.7159,-2.7316,-2.7215,-2.735,-2.7402,-2.7097,-2.6926,-2.6889,-2.6532,-2.626,-2.6082,-2.5824,-2.5562,-2.5317,-2.5162,-2.5021,-2.4886,-2.4766,-2.4686,-2.4605,-2.4467,-2.4385,-2.4287,-2.4162,-2.4036,-2.3909,-2.3797,-2.3711,-2.3566,-2.6525,-2.669,-2.7157,-2.7604,-2.8015,-2.8857,-2.925,-2.9359,-2.9639,-2.9822,-2.9926,-2.9945,-2.9207,-2.8108,-2.7884,-2.7097,-2.5819,-2.5498,-2.5439,-2.549,-2.4907,-2.4907,-2.5214,-2.552,-2.5806,-2.6352,-2.7119,-2.7737,-2.8164,-2.848,-2.8849,-2.9151,-2.9138,-2.9048,-2.9017,-2.8881,-2.8761,-2.8662,-2.8554,-2.8406,-2.8273,-2.8063,-2.7836,-2.76,-2.7341,-2.7055,-2.6809,-2.6382,-2.5954,-2.5567,-2.5246,-2.4974,-2.4751,-2.4589,-2.4482,-2.44,-2.4317,-2.4234,-2.4223,-2.4166,-2.4024,-2.3839,-2.3797,-2.3739,-2.3638,-2.3638,-2.3739,-2.3839,-2.3967,-2.4094,-2.4359,-2.4508,-2.4549,-2.4589,-2.4665,-2.4879,-2.5068,-2.5317,-2.5492,-2.5642,-2.5791,-2.5937,-2.6082,-2.6295,-2.6453,-2.6623,-2.6775,-2.6959,-2.6926,-2.6943,-2.6959,-2.6943,-2.6927,-2.6843,-2.6674,-2.6521,-2.6417,-2.6187,-2.5934,-2.5659,-2.5454,-2.5355,-2.524,-2.5162,-2.5029,-2.495,-2.4815,-2.4831,-2.4791,-2.463,-2.4426,-2.4343,-2.4276,-2.4135,-2.4036,-2.5888,-2.5935,-2.601,-2.6553,-2.7304,-2.815,-2.8598,-2.878,-2.9434,-2.9826,-2.9969,-3.0022,-2.9547,-2.8882,-2.8605,-2.8063,-2.7354,-2.6597,-2.6582,-2.6613,-2.5933,-2.5559,-2.6136,-2.6822,-2.7148,-2.732,-2.8034,-2.839,-2.854,-2.9101,-2.9453,-2.9314,-2.9272,-2.9206,-2.9048,-2.9017,-2.8929,-2.881,-2.8705,-2.8612,-2.851,-2.83,-2.8081,-2.7818,-2.76,-2.7355,-2.7103,-2.6759,-2.6295,-2.5775,-2.5362,-2.5107,-2.4966,-2.4751,-2.4589,-2.4498,-2.4291,-2.425,-2.4166,-2.4124,-2.3982,-2.3839,-2.3839,-2.3739,-2.3696,-2.3739,-2.3882,-2.4009,-2.4193,-2.4385,-2.4589,-2.4806,-2.495,-2.5091,-2.5082,-2.5198,-2.5508,-2.5659,-2.5791,-2.5954,-2.6115,-2.6258,-2.64,-2.659,-2.6742,-2.6859,-2.6975,-2.7024,-2.7057,-2.7057,-2.7024,-2.7024,-2.6992,-2.6876,-2.6759,-2.664,-2.6538,-2.6434,-2.6222,-2.6043,-2.5754,-2.568,-2.5584,-2.5454,-2.5378,-2.5262,-2.5224,-2.5224,-2.5162,-2.4989,-2.4871,-2.4766,-2.4686,-2.4549,-2.4467,-2.5084,-2.5175,-2.5793,-2.6189,-2.6525,-2.7346,-2.8096,-2.8657,-2.8947,-2.9521,-2.995,-3.0079,-2.9641,-2.8917,-2.8846,-2.8375,-2.7733,-2.7357,-2.7281,-2.7438,-2.7153,-2.6877,-2.7141,-2.7829,-2.8209,-2.8324,-2.8946,-2.9381,-2.9364,-2.9514,-2.9569,-2.9453,-2.9355,-2.9272,-2.9228,-2.9178,-2.913,-2.9021,-2.8929,-2.881,-2.8644,-2.851,-2.8282,-2.8025,-2.7777,-2.7569,-2.7355,-2.694,-2.6452,-2.5881,-2.553,-2.5246,-2.5114,-2.495,-2.4782,-2.4544,-2.4431,-2.4333,-2.4208,-2.4166,-2.4067,-2.3982,-2.394,-2.3925,-2.3882,-2.3925,-2.4067,-2.4177,-2.4261,-2.4482,-2.4806,-2.4966,-2.5139,-2.541,-2.5454,-2.5476,-2.568,-2.5934,-2.6079,-2.6168,-2.6345,-2.6486,-2.664,-2.6775,-2.6957,-2.7023,-2.7137,-2.7218,-2.7203,-2.7203,-2.7203,-2.7154,-2.7122,-2.7007,-2.6892,-2.6775,-2.6674,-2.6589,-2.6468,-2.638,-2.6134,-2.5954,-2.5881,-2.577,-2.5642,-2.5551,-2.553,-2.553,-2.5432,-2.5317,-2.5146,-2.5029,-2.5005,-2.491,-2.4846,-2.4903,-2.4922,-2.5433,-2.5626,-2.5754,-2.6555,-2.7433,-2.8202,-2.8698,-2.9313,-2.999,-3.0157,-2.987,-2.9464,-2.9445,-2.9197,-2.8706,-2.8324,-2.8401,-2.8717,-2.8717,-2.8403,-2.8244,-2.8761,-2.9141,-2.9129,-2.9563,-2.9735,-2.9737,-2.9719,-2.9645,-2.9589,-2.9472,-2.9412,-2.9332,-2.9289,-2.9222,-2.9156,-2.9108,-2.8952,-2.8834,-2.8669,-2.8484,-2.8219,-2.7979,-2.7748,-2.7478,-2.7085,-2.6624,-2.6154,-2.5791,-2.5513,-2.5368,-2.5114,-2.4942,-2.4708,-2.4595,-2.4431,-2.4333,-2.4291,-2.4193,-2.4094,-2.4109,-2.4109,-2.4109,-2.4151,-2.4276,-2.4359,-2.4482,-2.471,-2.4989,-2.5185,-2.5378,-2.5584,-2.5696,-2.5807,-2.5917,-2.6099,-2.6293,-2.6382,-2.6555,-2.6708,-2.6825,-2.6973,-2.7087,-2.7169,-2.725,-2.7299,-2.7299,-2.7299,-2.7299,-2.7218,-2.7137,-2.7023,-2.6942,-2.6825,-2.6725,-2.6657,-2.6589,-2.6537,-2.6399,-2.617,-2.6079,-2.599,-2.5901,-2.5828,-2.5807,-2.577,-2.5733,-2.5621,-2.5416,-2.5301,-2.5278,-2.5185,-2.5162,-2.5018,-2.5012,-2.5023,-2.4991,-2.5194,-2.5942,-2.6877,-2.7684,-2.8545,-2.9393,-3.0051,-3.0218,-3.0155,-3.0221,-3.0048,-3.0144,-3.0068,-2.9404,-2.9583,-2.9844,-2.9964,-2.9608,-2.903,-2.9463,-2.9753,-2.9744,-2.9823,-2.9823,-2.9806,-2.9753,-2.9718,-2.9701,-2.9626,-2.955,-2.9453,-2.9392,-2.9349,-2.9283,-2.9178,-2.9089,-2.8975,-2.8815,-2.8637,-2.8406,-2.8209,-2.7911,-2.7569,-2.7261,-2.6956,-2.6521,-2.6154,-2.5885,-2.5705,-2.5384,-2.513,-2.4989,-2.4766,-2.458,-2.4498,-2.4441,-2.4302,-2.4204,-2.4302,-2.4261,-2.4261,-2.4343,-2.4482,-2.458,-2.4822,-2.5005,-2.5185,-2.5476,-2.5663,-2.5791,-2.5901,-2.6063,-2.6239,-2.6293,-2.6435,-2.6657,-2.6691,-2.6858,-2.6989,-2.7135,-2.7152,-2.725,-2.7299,-2.7299,-2.7299,-2.7299,-2.7299,-2.725,-2.7169,-2.7038,-2.6957,-2.6926,-2.6792,-2.6708,-2.6674,-2.6623,-2.6537,-2.6399,-2.6293,-2.6187,-2.6082,-2.601,-2.597,-2.597,-2.5934,-2.5881,-2.5642,-2.5621,-2.56,-2.547,-2.5378,-2.5089,-2.507,-2.5089,-2.5076,-2.5222,-2.6003,-2.6854,-2.7687,-2.8553,-2.9383,-3.006,-3.0226,-3.0221,-3.0279,-3.0267,-3.026,-3.0299,-3.0074,-3.0239,-3.0316,-3.0362,-3.026,-2.9934,-3.0061,-3.0045,-3.0053,-3.0057,-3.0007,-2.9956,-2.9888,-2.9857,-2.9842,-2.9736,-2.9664,-2.9645,-2.955,-2.9491,-2.9372,-2.931,-2.9203,-2.9089,-2.8975,-2.881,-2.8562,-2.8318,-2.8025,-2.7719,-2.7539,-2.7355,-2.7004,-2.6573,-2.6243,-2.6013,-2.5721,-2.546,-2.5269,-2.5029,-2.4862,-2.4742,-2.463,-2.4549,-2.4508,-2.4549,-2.4523,-2.4508,-2.4549,-2.4686,-2.4846,-2.4966,-2.5162,-2.5448,-2.5712,-2.5844,-2.5937,-2.6082,-2.6295,-2.6452,-2.6554,-2.6589,-2.6691,-2.6891,-2.7021,-2.7103,-2.7201,-2.725,-2.7299,-2.7299,-2.7299,-2.7299,-2.7299,-2.725,-2.7201,-2.7105,-2.699,-2.6925,-2.6876,-2.6792,-2.6708,-2.6708,-2.6708,-2.6623,-2.6555,-2.6434,-2.6347,-2.626,-2.6206,-2.6079,-2.6043,-2.6007,-2.5954,-2.5901,-2.5807,-2.5733,-2.5642,-2.5567,-2.6327,-2.632,-2.6308,-2.6327,-2.6384,-2.6817,-2.7478,-2.8204,-2.8714,-2.9429,-3.0073,-3.0234,-3.026,-3.0299,-3.0336,-3.0348,-3.0352,-3.0414,-3.0436,-3.0436,-3.0444,-3.0425,-3.0383,-3.0292,-3.0215,-3.018,-3.0152,-3.0123,-3.0098,-3.0034,-2.9988,-2.9975,-2.9857,-2.9825,-2.9774,-2.9701,-2.9626,-2.9531,-2.9412,-2.9291,-2.9203,-2.9089,-2.89,-2.8612,-2.8371,-2.8099,-2.795,-2.773,-2.76,-2.7369,-2.7004,-2.6624,-2.635,-2.6049,-2.5815,-2.5594,-2.5307,-2.5201,-2.5084,-2.4989,-2.491,-2.4831,-2.4871,-2.4871,-2.4871,-2.4871,-2.4966,-2.5123,-2.5201,-2.5333,-2.5621,-2.5787,-2.5934,-2.6063,-2.6189,-2.6417,-2.6589,-2.6657,-2.6725,-2.6875,-2.7006,-2.7103,-2.7184,-2.7282,-2.7299,-2.7299,-2.7299,-2.7299,-2.7282,-2.7233,-2.7201,-2.712,-2.7007,-2.6942,-2.6909,-2.6825,-2.6742,-2.6708,-2.6708,-2.6708,-2.6674,-2.6657,-2.6589,-2.6469,-2.633,-2.6277,-2.6203,-2.6115,-2.6079,-2.6079,-2.6043,-2.5954,-2.5828,-2.5754,-2.568,-2.7701,-2.7707,-2.772,-2.7708,-2.7727,-2.7842,-2.8262,-2.8836,-2.9098,-2.9627,-3.0119,-3.0273,-3.0299,-3.0316,-3.039,-3.0425,-3.0458,-3.049,-3.051,-3.0519,-3.0519,-3.0519,-3.049,-3.0428,-3.0364,-3.0267,-3.0241,-3.0234,-3.0194,-3.0152,-3.0128,-3.0098,-2.9988,-2.9959,-2.9912,-2.9809,-2.9719,-2.9664,-2.955,-2.9394,-2.9291,-2.916,-2.8975,-2.8637,-2.8432,-2.8237,-2.8109,-2.7922,-2.7742,-2.7701,-2.7413,-2.7083,-2.6707,-2.6385,-2.6104,-2.5961,-2.5626,-2.5492,-2.5378,-2.5317,-2.524,-2.5146,-2.5201,-2.524,-2.5162,-2.5162,-2.5256,-2.5317,-2.5355,-2.5508,-2.5701,-2.5881,-2.6043,-2.6187,-2.6312,-2.6469,-2.6674,-2.6758,-2.6891,-2.7021,-2.7103,-2.7201,-2.7233,-2.7299,-2.7299,-2.7316,-2.7333,-2.7316,-2.7284,-2.7184,-2.7152,-2.712,-2.7007,-2.6992,-2.6909,-2.6909,-2.6825,-2.6775,-2.6742,-2.6742,-2.6742,-2.6674,-2.6657,-2.6537,-2.6434,-2.6329,-2.6274,-2.6203,-2.6168,-2.6168,-2.6132,-2.6043,-2.5954,-2.5881,-2.5807,-2.7769,-2.7769,-2.7788,-2.7788,-2.7922,-2.8511,-2.8875,-2.9091,-2.9698,-3.0075,-3.0241,-3.0311,-3.0328,-3.0394,-3.0458,-3.0509,-3.055,-3.0578,-3.0578,-3.0588,-3.0578,-3.0588,-3.0579,-3.055,-3.051,-3.0449,-3.0394,-3.0336,-3.0299,-3.0279,-3.024,-3.018,-3.0109,-3.0083,-3.0022,-2.9943,-2.9806,-2.9755,-2.9645,-2.9513,-2.9373,-2.9246,-2.9067,-2.8737,-2.8562,-2.8424,-2.8237,-2.8154,-2.7979,-2.773,-2.7672,-2.7413,-2.71,-2.6725,-2.6452,-2.617,-2.5954,-2.577,-2.568,-2.5492,-2.5432,-2.5339,-2.5355,-2.5333,-2.5294,-2.5294,-2.541,-2.5432,-2.5567,-2.5717,-2.5844,-2.6007,-2.617,-2.633,-2.6605,-2.6793,-2.6977,-2.7161,-2.7261,-2.7461,-2.7407,-2.7385,-2.7555,-2.7725,-2.7881,-2.7846,-2.7676,-2.7592,-2.7508,-2.7321,-2.7103,-2.7087,-2.704,-2.7007,-2.6992,-2.6992,-2.6942,-2.6909,-2.6909,-2.6859,-2.6825,-2.6742,-2.6691,-2.664,-2.6537,-2.6399,-2.6329,-2.6239,-2.6203,-2.6203,-2.6168,-2.6115,-2.6043,-2.597,-2.5844,-2.9152,-2.9152,-2.9152,-2.9152,-2.9198,-2.95,-2.9653,-2.9723,-3.0094,-3.0279,-3.0304,-3.034,-3.0364,-3.0417,-3.046,-3.054,-3.0598,-3.0606,-3.0606,-3.0607,-3.0606,-3.0606,-3.0617,-3.0617,-3.0588,-3.055,-3.0519,-3.0458,-3.0394,-3.0359,-3.0323,-3.0305,-3.0221,-3.0185,-3.0128,-3.0053,-2.994,-2.9841,-2.9736,-2.9626,-2.9492,-2.9349,-2.9089,-2.8905,-2.8687,-2.8554,-2.845,-2.8237,-2.8109,-2.795,-2.7789,-2.7582,-2.7338,-2.707,-2.6792,-2.6486,-2.6222,-2.6043,-2.5954,-2.577,-2.5659,-2.5659,-2.5621,-2.5637,-2.56,-2.5637,-2.56,-2.5654,-2.5696,-2.5848,-2.6033,-2.6187,-2.6329,-2.6622,-2.6995,-2.742,-2.769,-2.7996,-2.8164,-2.8213,-2.8209,-2.8189,-2.8201,-2.8375,-2.8533,-2.8429,-2.812,-2.7917,-2.7749,-2.7407,-2.7103,-2.7087,-2.7072,-2.7072,-2.7089,-2.7089,-2.7089,-2.7057,-2.7007,-2.6975,-2.6942,-2.6892,-2.6825,-2.6792,-2.664,-2.6503,-2.6364,-2.6258,-2.6222,-2.6203,-2.6168,-2.6168,-2.6132,-2.6059,-2.5934,-3.0398,-3.0398,-3.0398,-3.0398,-3.0379,-3.0316,-3.0285,-3.0316,-3.0285,-3.0304,-3.0348,-3.0364,-3.0417,-3.0439,-3.05,-3.0559,-3.0598,-3.0606,-3.0606,-3.0607,-3.0606,-3.0606,-3.0607,-3.0617,-3.0598,-3.0588,-3.0588,-3.0579,-3.049,-3.0439,-3.0417,-3.0379,-3.0349,-3.0279,-3.0207,-3.0142,-3.0053,-2.994,-2.9823,-2.9736,-2.9608,-2.939,-2.9134,-2.9017,-2.8804,-2.8681,-2.858,-2.8424,-2.8264,-2.8126,-2.794,-2.7719,-2.7539,-2.7355,-2.7135,-2.6842,-2.6486,-2.6329,-2.6187,-2.6043,-2.5934,-2.5881,-2.5881,-2.5897,-2.5897,-2.586,-2.5877,-2.5909,-2.5967,-2.601,-2.6208,-2.6445,-2.6703,-2.7079,-2.7742,-2.8322,-2.8579,-2.8886,-2.9178,-2.9176,-2.9103,-2.9082,-2.9097,-2.8978,-2.9153,-2.893,-2.8637,-2.8261,-2.8023,-2.7375,-2.7103,-2.7087,-2.7105,-2.7137,-2.7169,-2.7201,-2.7233,-2.7233,-2.7201,-2.7137,-2.7087,-2.7023,-2.6975,-2.6876,-2.6742,-2.6555,-2.6382,-2.6258,-2.6222,-2.6203,-2.6203,-2.6168,-2.6132,-2.6079,-2.599,-3.0398,-3.0398,-3.0398,-3.0398,-3.0379,-3.0336,-3.0336,-3.0379,-3.0336,-3.0316,-3.0379,-3.0394,-3.0428,-3.0479,-3.054,-3.0588,-3.0607,-3.0597,-3.0597,-3.0598,-3.0597,-3.0597,-3.0598,-3.0617,-3.0617,-3.0617,-3.0617,-3.0579,-3.051,-3.0481,-3.046,-3.0406,-3.039,-3.0355,-3.0267,-3.0213,-3.0161,-3.0053,-2.994,-2.9771,-2.9569,-2.9373,-2.9203,-2.9067,-2.8929,-2.8852,-2.8662,-2.8536,-2.8432,-2.8209,-2.8126,-2.794,-2.7701,-2.7478,-2.7324,-2.7085,-2.6825,-2.6538,-2.633,-2.6222,-2.6115,-2.6026,-2.5954,-2.5934,-2.5954,-2.5954,-2.597,-2.599,-2.6129,-2.6322,-2.6616,-2.7194,-2.7604,-2.8083,-2.8647,-2.911,-2.942,-2.9868,-3.0145,-3.0316,-3.0263,-3.0087,-3.0016,-2.9861,-2.9706,-2.9414,-2.9105,-2.8727,-2.823,-2.7614,-2.7184,-2.7184,-2.7264,-2.7296,-2.731,-2.7341,-2.7373,-2.7421,-2.7373,-2.731,-2.7247,-2.7166,-2.7055,-2.6957,-2.6792,-2.6657,-2.6537,-2.6399,-2.6222,-2.6203,-2.6203,-2.6203,-2.6203,-2.6115,-2.6026,-3.0398,-3.0398,-3.0398,-3.0398,-3.0398,-3.0367,-3.0379,-3.0398,-3.0379,-3.0379,-3.039,-3.0394,-3.0439,-3.0509,-3.053,-3.054,-3.054,-3.054,-3.054,-3.0579,-3.0578,-3.0578,-3.0559,-3.0588,-3.0617,-3.0598,-3.0579,-3.055,-3.0491,-3.0481,-3.0479,-3.0458,-3.0433,-3.0367,-3.0304,-3.0279,-3.0232,-3.0128,-2.9988,-2.9806,-2.9645,-2.9491,-2.9351,-2.92,-2.9085,-2.8947,-2.8785,-2.8637,-2.8536,-2.8371,-2.8264,-2.8081,-2.7893,-2.7719,-2.7491,-2.7355,-2.7117,-2.6858,-2.6556,-2.6434,-2.6293,-2.6189,-2.6154,-2.6154,-2.6118,-2.6151,-2.6203,-2.6293,-2.6745,-2.7019,-2.7276,-2.8026,-2.849,-2.8972,-2.9539,-2.9902,-3.0265,-3.082,-3.115,-3.129,-3.141,-3.1182,-3.1058,-3.1075,-3.0954,-3.0747,-3.0037,-2.9207,-2.8589,-2.7853,-2.7506,-2.7296,-2.7421,-2.7513,-2.7526,-2.7539,-2.7569,-2.76,-2.7582,-2.7522,-2.7448,-2.7355,-2.723,-2.712,-2.6957,-2.6825,-2.6674,-2.6468,-2.6293,-2.6222,-2.6203,-2.6203,-2.6239,-2.6203,-2.6115,-3.039,-3.0398,-3.0398,-3.0398,-3.0398,-3.0398,-3.0398,-3.0398,-3.0398,-3.0398,-3.039,-3.0394,-3.0447,-3.0499,-3.0509,-3.049,-3.049,-3.0481,-3.0481,-3.051,-3.055,-3.0588,-3.0559,-3.0588,-3.0617,-3.0617,-3.0559,-3.053,-3.051,-3.05,-3.0479,-3.0469,-3.0406,-3.039,-3.0355,-3.0305,-3.024,-3.0157,-3.0254,-3.0236,-3.0151,-3.0245,-3.0015,-2.9739,-2.9496,-2.9265,-2.8947,-2.8767,-2.8644,-2.851,-2.8327,-2.8164,-2.8071,-2.7864,-2.7672,-2.7539,-2.7338,-2.7149,-2.6858,-2.6674,-2.6486,-2.6417,-2.638,-2.6395,-2.6681,-2.6614,-2.6833,-2.7171,-2.7559,-2.7936,-2.8317,-2.8878,-2.9344,-2.9829,-3.0331,-3.0695,-3.1008,-3.1392,-3.1725,-3.1864,-3.1985,-3.226,-3.219,-3.2297,-3.2246,-3.2072,-3.1182,-2.9828,-2.8808,-2.7898,-2.7702,-2.7465,-2.7557,-2.7677,-2.7736,-2.7748,-2.7777,-2.7806,-2.7789,-2.773,-2.7659,-2.7569,-2.7478,-2.7324,-2.7135,-2.699,-2.6825,-2.6555,-2.6347,-2.6329,-2.631,-2.6274,-2.6274,-2.6239,-2.622,-3.0394,-3.0398,-3.0398,-3.0398,-3.0398,-3.0398,-3.0398,-3.0398,-3.0398,-3.0398,-3.039,-3.0394,-3.0428,-3.0488,-3.0488,-3.0499,-3.0479,-3.0481,-3.0481,-3.051,-3.0559,-3.0569,-3.0588,-3.0598,-3.0617,-3.0598,-3.0569,-3.053,-3.052,-3.049,-3.0469,-3.0417,-3.0406,-3.0383,-3.0424,-3.0471,-3.0527,-3.0596,-3.0877,-3.108,-3.1183,-3.1337,-3.135,-3.0702,-3.0448,-3.0058,-2.909,-2.8923,-2.8767,-2.8612,-2.8432,-2.8273,-2.8209,-2.7996,-2.7818,-2.7719,-2.7569,-2.7369,-2.7181,-2.6891,-2.6674,-2.6589,-2.6553,-2.6736,-2.7241,-2.7442,-2.7813,-2.8339,-2.8541,-2.8803,-2.9202,-2.9739,-3.0255,-3.057,-3.0988,-3.1284,-3.1565,-3.1776,-3.2109,-3.2336,-3.2491,-3.2608,-3.269,-3.2657,-3.2608,-3.2433,-3.1069,-2.9747,-2.8547,-2.7718,-2.7709,-2.7642,-2.773,-2.7836,-2.794,-2.7968,-2.8025,-2.8007,-2.8007,-2.7922,-2.7836,-2.7748,-2.7719,-2.7509,-2.7324,-2.7166,-2.699,-2.6775,-2.6589,-2.6503,-2.645,-2.638,-2.6329,-2.631,-2.6274,-3.0406,-3.0394,-3.039,-3.0398,-3.0398,-3.0398,-3.0398,-3.0398,-3.0398,-3.0398,-3.0398,-3.0402,-3.0414,-3.0444,-3.0425,-3.0444,-3.0444,-3.0439,-3.0449,-3.046,-3.05,-3.0559,-3.0588,-3.0607,-3.0607,-3.0597,-3.0578,-3.053,-3.0491,-3.05,-3.0479,-3.0458,-3.0494,-3.0402,-3.0463,-3.0913,-3.1235,-3.1637,-3.187,-3.2017,-3.1972,-3.2071,-3.2052,-3.165,-3.0852,-3.0479,-2.9853,-2.926,-2.8931,-2.8687,-2.8562,-2.8458,-2.8371,-2.8146,-2.8053,-2.7968,-2.7777,-2.7612,-2.7461,-2.7181,-2.6908,-2.6775,-2.6708,-2.6925,-2.7719,-2.7734,-2.8123,-2.8682,-2.9414,-2.9729,-2.9958,-3.0614,-3.1205,-3.1347,-3.156,-3.1823,-3.2001,-3.2161,-3.2301,-3.2457,-3.2626,-3.2758,-3.2838,-3.2852,-3.2805,-3.2616,-3.1091,-2.966,-2.8473,-2.7689,-2.7748,-2.7818,-2.7904,-2.8007,-2.8099,-2.8182,-2.8219,-2.8219,-2.8219,-2.8136,-2.8053,-2.8053,-2.7968,-2.7766,-2.7539,-2.7386,-2.7198,-2.7006,-2.6825,-2.6674,-2.6554,-2.6485,-2.645,-2.6399,-2.6364,-3.0419,-3.0398,-3.0394,-3.039,-3.0398,-3.0398,-3.0398,-3.0398,-3.0398,-3.0398,-3.0398,-3.0398,-3.0398,-3.0398,-3.0398,-3.039,-3.0414,-3.0417,-3.0439,-3.049,-3.053,-3.055,-3.0588,-3.0606,-3.0615,-3.0595,-3.0558,-3.053,-3.053,-3.051,-3.0732,-3.0865,-3.0833,-3.0868,-3.1025,-3.1546,-3.222,-3.2603,-3.2943,-3.2937,-3.2836,-3.3089,-3.2921,-3.2617,-3.1969,-3.1147,-3.0568,-2.9839,-2.925,-2.8943,-2.8687,-2.8612,-2.8492,-2.8388,-2.8273,-2.8164,-2.8025,-2.7864,-2.7701,-2.74,-2.7103,-2.6957,-2.7165,-2.7504,-2.7978,-2.8367,-2.9132,-2.9797,-3.0326,-3.0622,-3.0734,-3.1291,-3.1571,-3.1647,-3.1773,-3.2001,-3.2108,-3.2267,-3.2405,-3.2558,-3.2707,-3.287,-3.2965,-3.2939,-3.2447,-3.2175,-3.1026,-2.9624,-2.8382,-2.7882,-2.794,-2.7979,-2.8063,-2.8164,-2.8264,-2.8309,-2.8362,-2.8345,-2.8318,-2.8318,-2.8264,-2.8264,-2.8182,-2.7968,-2.7777,-2.76,-2.7448,-2.7244,-2.7038,-2.6775,-2.6708,-2.6657,-2.6606,-2.6606,-2.6555,-3.051,-3.0398,-3.0398,-3.0394,-3.041,-3.0398,-3.0398,-3.041,-3.039,-3.039,-3.041,-3.041,-3.041,-3.041,-3.0421,-3.0414,-3.0436,-3.0469,-3.0519,-3.0559,-3.0597,-3.0585,-3.0602,-3.0602,-3.0629,-3.0602,-3.0593,-3.0595,-3.0578,-3.0772,-3.11,-3.1611,-3.1783,-3.1904,-3.1804,-3.2417,-3.2771,-3.2919,-3.3608,-3.3805,-3.393,-3.428,-3.4036,-3.362,-3.3125,-3.2229,-3.1371,-3.0654,-3.007,-2.9544,-2.9272,-2.91,-2.8855,-2.8869,-2.8693,-2.8327,-2.8308,-2.8198,-2.8021,-2.7513,-2.74,-2.7272,-2.7485,-2.8169,-2.904,-2.9723,-3.0302,-3.0742,-3.1244,-3.1401,-3.1582,-3.1674,-3.1802,-3.1912,-3.2037,-3.2144,-3.2267,-3.2439,-3.2608,-3.2674,-3.282,-3.2948,-3.3073,-3.2955,-3.2211,-3.1535,-3.0711,-2.9639,-2.8433,-2.8053,-2.8109,-2.8164,-2.8228,-2.8282,-2.8353,-2.8434,-2.846,-2.8442,-2.8424,-2.8424,-2.8371,-2.8327,-2.8246,-2.8136,-2.7996,-2.7806,-2.7689,-2.7552,-2.7324,-2.7087,-2.6942,-2.6876,-2.6842,-2.6825,-2.6775,-3.0579,-3.054,-3.0479,-3.0458,-3.0466,-3.0421,-3.0398,-3.039,-3.0383,-3.0425,-3.0466,-3.0466,-3.0466,-3.0466,-3.0466,-3.0458,-3.0469,-3.054,-3.0588,-3.0607,-3.0632,-3.0653,-3.0649,-3.0649,-3.0668,-3.0668,-3.0661,-3.0637,-3.0604,-3.105,-3.1476,-3.1961,-3.2966,-3.3434,-3.3434,-3.3705,-3.3915,-3.44,-3.4722,-3.4827,-3.478,-3.4921,-3.4831,-3.4396,-3.3845,-3.3101,-3.2302,-3.17,-3.1061,-3.0614,-3.038,-3.0137,-2.9837,-2.9817,-2.9686,-2.9068,-2.8837,-2.906,-2.9052,-2.8881,-2.8574,-2.8143,-2.8075,-2.8801,-2.9351,-3.0,-3.0734,-3.1333,-3.1634,-3.1726,-3.1746,-3.1875,-3.202,-3.2108,-3.2214,-3.2318,-3.2439,-3.2657,-3.2787,-3.2852,-3.293,-3.3073,-3.3214,-3.3154,-3.2547,-3.1869,-3.1148,-2.9926,-2.8693,-2.838,-2.83,-2.8327,-2.838,-2.8414,-2.8458,-2.8521,-2.8546,-2.8528,-2.851,-2.851,-2.8458,-2.8406,-2.8327,-2.8246,-2.8136,-2.7979,-2.7836,-2.7689,-2.7569,-2.7404,-2.7279,-2.7152,-2.707,-2.707,-2.7053,-3.0625,-3.0598,-3.054,-3.0519,-3.0499,-3.0436,-3.0444,-3.0444,-3.0428,-3.0469,-3.0479,-3.0479,-3.0479,-3.0479,-3.049,-3.0519,-3.053,-3.0579,-3.0643,-3.0643,-3.0692,-3.0683,-3.0704,-3.0711,-3.0691,-3.0704,-3.0697,-3.0676,-3.0692,-3.1507,-3.2266,-3.3121,-3.411,-3.4563,-3.467,-3.4732,-3.4807,-3.5134,-3.5209,-3.5184,-3.5155,-3.5145,-3.5057,-3.4794,-3.4358,-3.3766,-3.3285,-3.2727,-3.2128,-3.1885,-3.1589,-3.1328,-3.0993,-3.0827,-3.0734,-3.0104,-2.986,-3.0053,-3.0009,-3.0083,-2.9639,-2.8873,-2.9059,-2.9486,-3.0024,-3.0732,-3.1177,-3.1662,-3.1839,-3.191,-3.1965,-3.2144,-3.2249,-3.2318,-3.2422,-3.2541,-3.2657,-3.2852,-3.2948,-3.2979,-3.3073,-3.3214,-3.3274,-3.3178,-3.2925,-3.2282,-3.165,-3.035,-2.9152,-2.8766,-2.8522,-2.8458,-2.8484,-2.8484,-2.8536,-2.8562,-2.858,-2.8587,-2.8587,-2.8587,-2.8543,-2.8466,-2.8388,-2.8327,-2.8228,-2.8119,-2.795,-2.7806,-2.7766,-2.7707,-2.763,-2.7478,-2.7338,-2.7307,-2.7307,-3.066,-3.0607,-3.0598,-3.0559,-3.0519,-3.049,-3.049,-3.0509,-3.0509,-3.049,-3.0509,-3.05,-3.051,-3.0519,-3.05,-3.054,-3.0598,-3.0607,-3.066,-3.0688,-3.069,-3.0698,-3.071,-3.0722,-3.0722,-3.0722,-3.0736,-3.0834,-3.0853,-3.2069,-3.3219,-3.4242,-3.5078,-3.5398,-3.5444,-3.5372,-3.5374,-3.5422,-3.5369,-3.5308,-3.5261,-3.5162,-3.5092,-3.4944,-3.4756,-3.4319,-3.3859,-3.3417,-3.2898,-3.2471,-3.2028,-3.1844,-3.1718,-3.161,-3.1538,-3.1409,-3.1283,-3.1111,-3.0946,-3.1034,-3.0987,-3.0551,-3.085,-3.1023,-3.1028,-3.1377,-3.1794,-3.195,-3.2091,-3.2144,-3.2214,-3.2353,-3.2489,-3.259,-3.2707,-3.2805,-3.2884,-3.2979,-3.306,-3.3122,-3.3214,-3.3304,-3.3334,-3.3273,-3.3146,-3.273,-3.2105,-3.139,-3.0206,-2.9089,-2.8827,-2.851,-2.8536,-2.8536,-2.8562,-2.8587,-2.8587,-2.8587,-2.8587,-2.8587,-2.8543,-2.8543,-2.8466,-2.8414,-2.8353,-2.8246,-2.8081,-2.7996,-2.7968,-2.7911,-2.7836,-2.7748,-2.76,-2.7569,-2.7604,-3.0711,-3.0668,-3.0613,-3.0576,-3.0586,-3.0586,-3.0568,-3.0579,-3.0579,-3.0569,-3.0567,-3.0586,-3.0577,-3.0567,-3.0567,-3.0576,-3.0604,-3.0649,-3.068,-3.071,-3.0717,-3.0722,-3.0753,-3.0764,-3.0764,-3.0759,-3.0817,-3.1059,-3.1858,-3.2928,-3.4231,-3.5422,-3.5635,-3.5754,-3.5728,-3.5657,-3.5577,-3.5489,-3.5407,-3.5354,-3.5277,-3.5162,-3.511,-3.5057,-3.4984,-3.4623,-3.445,-3.4214,-3.3867,-3.3786,-3.3639,-3.3417,-3.2678,-3.3054,-3.3241,-3.241,-3.2254,-3.2188,-3.2074,-3.2456,-3.2578,-3.2206,-3.2362,-3.1856,-3.1731,-3.1826,-3.2301,-3.2335,-3.237,-3.2422,-3.2472,-3.259,-3.269,-3.2787,-3.2902,-3.2948,-3.3042,-3.3104,-3.3183,-3.3214,-3.3322,-3.3334,-3.3393,-3.3375,-3.323,-3.2958,-3.256,-3.197,-3.1092,-2.9945,-2.9204,-2.8869,-2.8562,-2.8562,-2.8587,-2.8587,-2.8587,-2.8587,-2.8587,-2.8587,-2.8587,-2.8543,-2.8543,-2.8466,-2.838,-2.8273,-2.8182,-2.8126,-2.8071,-2.8025,-2.795,-2.7922,-2.7882,-2.7824,-2.7813,-3.0703,-3.0715,-3.0661,-3.0618,-3.0602,-3.0602,-3.0621,-3.0632,-3.0615,-3.0604,-3.0602,-3.0602,-3.0602,-3.0602,-3.0602,-3.061,-3.0637,-3.068,-3.071,-3.0717,-3.0742,-3.0759,-3.0789,-3.0794,-3.0794,-3.0794,-3.0925,-3.1193,-3.233,-3.3699,-3.5003,-3.5755,-3.5842,-3.5815,-3.5763,-3.5708,-3.5618,-3.5546,-3.5457,-3.5364,-3.5273,-3.516,-3.511,-3.5075,-3.4965,-3.4926,-3.4906,-3.4747,-3.4708,-3.4666,-3.458,-3.4308,-3.3736,-3.4055,-3.4134,-3.3376,-3.3327,-3.3209,-3.3128,-3.3341,-3.3468,-3.3386,-3.3298,-3.2883,-3.2523,-3.2474,-3.2586,-3.2606,-3.2657,-3.2722,-3.2755,-3.282,-3.2916,-3.2979,-3.3042,-3.3104,-3.3214,-3.3274,-3.3304,-3.3352,-3.3382,-3.3364,-3.3393,-3.3393,-3.3357,-3.3212,-3.2977,-3.256,-3.1618,-3.0414,-2.9745,-2.9311,-2.8876,-2.8587,-2.8587,-2.8587,-2.8587,-2.8587,-2.8587,-2.8587,-2.8587,-2.8587,-2.8543,-2.8484,-2.838,-2.8318,-2.8209,-2.8182,-2.8126,-2.8081,-2.8063,-2.8053,-2.8025,-2.7968,-2.7975,-3.0704,-3.0697,-3.0697,-3.0676,-3.0618,-3.0618,-3.0642,-3.069,-3.0634,-3.0618,-3.0618,-3.0618,-3.0626,-3.0634,-3.0634,-3.0661,-3.0676,-3.0697,-3.0717,-3.0703,-3.0753,-3.0789,-3.0794,-3.0799,-3.0799,-3.0818,-3.1111,-3.1709,-3.2653,-3.4029,-3.5288,-3.5866,-3.5845,-3.5811,-3.5803,-3.5745,-3.5689,-3.5626,-3.5509,-3.5374,-3.5285,-3.5193,-3.5092,-3.5075,-3.4983,-3.4908,-3.4907,-3.4906,-3.4886,-3.4807,-3.4728,-3.4628,-3.4524,-3.4439,-3.433,-3.4242,-3.4059,-3.3963,-3.3827,-3.3891,-3.3778,-3.3698,-3.3633,-3.3419,-3.316,-3.2885,-3.2898,-3.2834,-3.2866,-3.2916,-3.2948,-3.3011,-3.3073,-3.3152,-3.3183,-3.3244,-3.3274,-3.3334,-3.3364,-3.3364,-3.3364,-3.3393,-3.3393,-3.3393,-3.3393,-3.3375,-3.3266,-3.294,-3.2306,-3.1093,-3.0333,-2.9826,-2.9337,-2.892,-2.8587,-2.8587,-2.8587,-2.8587,-2.8587,-2.8587,-2.8587,-2.8587,-2.8518,-2.8458,-2.838,-2.8318,-2.8237,-2.8209,-2.8182,-2.8182,-2.8154,-2.8182,-2.8154,-2.8099,-2.8088,-3.0697,-3.071,-3.071,-3.0685,-3.0678,-3.0678,-3.0678,-3.071,-3.0685,-3.0678,-3.0678,-3.0678,-3.0672,-3.0672,-3.0665,-3.0691,-3.0698,-3.0704,-3.0722,-3.0753,-3.0784,-3.0794,-3.0799,-3.0799,-3.0818,-3.1037,-3.1525,-3.2538,-3.3721,-3.4865,-3.5605,-3.5858,-3.5859,-3.5859,-3.5845,-3.5799,-3.5747,-3.5688,-3.557,-3.5443,-3.5345,-3.5207,-3.5089,-3.5056,-3.5002,-3.4927,-3.4907,-3.4907,-3.4887,-3.4868,-3.4809,-3.4747,-3.4685,-3.4645,-3.4561,-3.4473,-3.4409,-3.434,-3.4245,-3.4148,-3.4049,-3.3947,-3.386,-3.3753,-3.3559,-3.3334,-3.3183,-3.3104,-3.3055,-3.3104,-3.3104,-3.3214,-3.3244,-3.3274,-3.3304,-3.3334,-3.3364,-3.3364,-3.3393,-3.3393,-3.3393,-3.3393,-3.3393,-3.3393,-3.3393,-3.3393,-3.3375,-3.3212,-3.2977,-3.2125,-3.1066,-3.0486,-2.987,-2.9391,-2.892,-2.8587,-2.8587,-2.8587,-2.8587,-2.8587,-2.8587,-2.8587,-2.8562,-2.8458,-2.8398,-2.8318,-2.8264,-2.8209,-2.8182,-2.8182,-2.8182,-2.8182,-2.8182,-2.8154,-2.8154,-3.0739,-3.0734,-3.0703,-3.0703,-3.0703,-3.0703,-3.0728,-3.0734,-3.0734,-3.0734,-3.0739,-3.0709,-3.0703,-3.0703,-3.0703,-3.0703,-3.0709,-3.0734,-3.0753,-3.0784,-3.0789,-3.0794,-3.0799,-3.0818,-3.1193,-3.1486,-3.2674,-3.3824,-3.47,-3.5382,-3.585,-3.5883,-3.5891,-3.5892,-3.5891,-3.5834,-3.5775,-3.5708,-3.5604,-3.5509,-3.5388,-3.5219,-3.5107,-3.5056,-3.5001,-3.4927,-3.4908,-3.4927,-3.4907,-3.4907,-3.4849,-3.4829,-3.4788,-3.4747,-3.4687,-3.4645,-3.4602,-3.4539,-3.445,-3.434,-3.4269,-3.4148,-3.4074,-3.3972,-3.3842,-3.3643,-3.352,-3.3444,-3.3316,-3.3316,-3.3304,-3.3364,-3.3334,-3.3334,-3.3364,-3.3364,-3.3393,-3.3393,-3.3393,-3.3393,-3.3393,-3.3393,-3.3393,-3.3393,-3.3393,-3.3393,-3.3393,-3.3393,-3.3194,-3.3024,-3.1991,-3.1093,-3.0458,-2.958,-2.8811,-2.8587,-2.8587,-2.8587,-2.8612,-2.8587,-2.8587,-2.8587,-2.858,-2.8476,-2.8398,-2.83,-2.8264,-2.8237,-2.8182,-2.8182,-2.8182,-2.8182,-2.8182,-2.8182,-2.8182,-3.0794,-3.0784,-3.0734,-3.0709,-3.0709,-3.0709,-3.0734,-3.0784,-3.0789,-3.0789,-3.0794,-3.0739,-3.0709,-3.0709,-3.0709,-3.0709,-3.0714,-3.0764,-3.0789,-3.0789,-3.0799,-3.0799,-3.0799,-3.0838,-3.1408,-3.2421,-3.3629,-3.4311,-3.4948,-3.5552,-3.5883,-3.5897,-3.5885,-3.5878,-3.5864,-3.5826,-3.5756,-3.5699,-3.5607,-3.5514,-3.5364,-3.5216,-3.5141,-3.5056,-3.4983,-3.4908,-3.4908,-3.4908,-3.4908,-3.4908,-3.4888,-3.4888,-3.4868,-3.4849,-3.4809,-3.4788,-3.4747,-3.4687,-3.4604,-3.4539,-3.4431,-3.434,-3.4269,-3.4173,-3.4049,-3.3947,-3.3815,-3.3726,-3.3587,-3.352,-3.3509,-3.347,-3.3441,-3.3422,-3.3422,-3.3393,-3.3393,-3.3393,-3.3393,-3.3393,-3.3393,-3.3393,-3.3393,-3.3393,-3.3393,-3.3393,-3.3422,-3.3422,-3.3368,-3.3226,-3.2692,-3.1774,-3.1018,-3.0057,-2.9043,-2.8637,-2.8662,-2.8662,-2.8662,-2.8637,-2.8587,-2.8587,-2.8562,-2.8458,-2.838,-2.8353,-2.8273,-2.8237,-2.8237,-2.8209,-2.8182,-2.8182,-2.8182,-2.8182,-2.8182,-3.0799,-3.0799,-3.0794,-3.0774,-3.0774,-3.0774,-3.0794,-3.0799,-3.0799,-3.0799,-3.0799,-3.0799,-3.0774,-3.0794,-3.0774,-3.0774,-3.0769,-3.0794,-3.0799,-3.0799,-3.0799,-3.0799,-3.0916,-3.1193,-3.1875,-3.2966,-3.4135,-3.489,-3.5293,-3.5677,-3.5885,-3.5892,-3.5892,-3.5872,-3.5811,-3.5779,-3.5763,-3.5708,-3.5629,-3.5519,-3.5391,-3.5266,-3.5176,-3.5073,-3.4983,-3.4927,-3.4908,-3.4908,-3.4908,-3.4908,-3.4927,-3.4908,-3.4908,-3.4888,-3.4888,-3.4868,-3.4829,-3.4809,-3.4728,-3.4666,-3.4561,-3.4539,-3.445,-3.434,-3.4245,-3.4173,-3.4074,-3.3972,-3.3868,-3.3698,-3.3661,-3.3611,-3.3571,-3.3528,-3.352,-3.3462,-3.3422,-3.3422,-3.3422,-3.3422,-3.3422,-3.3422,-3.3422,-3.3422,-3.3452,-3.3452,-3.3491,-3.3491,-3.3549,-3.3403,-3.3285,-3.2502,-3.1616,-3.0786,-2.9879,-2.8961,-2.8761,-2.8737,-2.8712,-2.8662,-2.8637,-2.8612,-2.8562,-2.8484,-2.8458,-2.8414,-2.8353,-2.8291,-2.8264,-2.8237,-2.8209,-2.8182,-2.8182,-2.8182,-2.8182]}]]